[[{"header":{"parameterUnit":"m.s-1","parameterCategory":1,"la1":30.6,"la2":29.2853,"lo1":-89.7004,"lo2":-87.6739,"dy":0.0162,"dx":0.0183,"nx":112,"ny":82,"refTime":"2023-09-27T18:00:00:Z","depth":0,"parameterNumber":2,"parameterNumberName":"U-component_of_WINDS"},"data":[0.0,0.0,0.0,0.0,0.0,0.0,0.0,0.0,0.0,0.0,0.0,0.0,0.0,0.0,0.0,0.0,0.0,0.0,0.0,0.0,0.0,0.0,0.0,0.0,0.0,0.0,0.0,0.0,0.0,0.0,0.0,0.0,0.0,0.0,0.0,0.0,0.0,0.0,0.0,0.0,0.0,0.0,0.0,0.0,0.0,0.0,0.0,0.0,0.0,0.0,0.0,0.0,0.0,0.0,0.0,0.0,0.0,0.0,0.0,0.0,0.0,0.0,0.0,0.0,0.0,0.0,0.0,0.0,0.0,0.0,0.0,0.0,0.0,0.0,0.0,0.0,0.0,0.0,0.0,0.0,0.0,0.0,0.0,0.0,0.0,0.0,0.0,0.0,0.0,0.0,-1.5882,-1.9143,-1.9198,-1.8917,-1.8758,-1.6887,-1.5406,-1.4788,0.0,0.0,0.0,0.0,0.0,0.0,0.0,0.0,0.0,0.0,0.0,0.0,0.0,0.0,0.0,0.0,0.0,0.0,0.0,0.0,0.0,0.0,0.0,0.0,0.0,0.0,0.0,0.0,0.0,0.0,0.0,0.0,0.0,0.0,0.0,0.0,0.0,0.0,0.0,0.0,0.0,0.0,0.0,0.0,0.0,0.0,0.0,0.0,0.0,0.0,0.0,0.0,0.0,0.0,0.0,0.0,0.0,0.0,0.0,0.0,0.0,0.0,0.0,0.0,0.0,0.0,0.0,0.0,0.0,0.0,0.0,0.0,0.0,0.0,0.0,0.0,0.0,0.0,0.0,0.0,0.0,0.0,0.0,0.0,0.0,0.0,0.0,0.0,0.0,0.0,0.0,0.0,0.0,0.0,0.0,0.0,0.0,0.0,0.0,0.0,0.0,0.0,0.0,0.0,-1.8173,-2.0214,-1.9573,-1.8598,-1.7617,-1.6437,-1.4863,-1.2875,0.0,0.0,0.0,0.0,0.0,0.0,0.0,0.0,0.0,0.0,0.0,0.0,0.0,0.0,0.0,0.0,0.0,0.0,0.0,0.0,0.0,0.0,0.0,0.0,0.0,0.0,0.0,0.0,0.0,0.0,0.0,0.0,0.0,0.0,0.0,0.0,0.0,0.0,0.0,0.0,0.0,0.0,0.0,0.0,0.0,0.0,0.0,0.0,0.0,0.0,0.0,0.0,0.0,0.0,0.0,0.0,0.0,0.0,0.0,0.0,0.0,0.0,0.0,0.0,0.0,0.0,0.0,0.0,0.0,0.0,0.0,0.0,0.0,0.0,0.0,0.0,0.0,0.0,0.0,0.0,0.0,0.0,0.0,0.0,0.0,0.0,0.0,0.0,0.0,0.0,0.0,0.0,0.0,0.0,0.0,0.0,0.0,0.0,0.0,0.0,0.0,0.0,0.0,-1.8285,-1.9725,-2.0527,-2.0157,-1.9432,-1.8318,-1.7212,-1.5803,-1.3994,-1.2879,0.0,0.0,0.0,0.0,0.0,0.0,0.0,0.0,0.0,0.0,0.0,0.0,0.0,0.0,0.0,0.0,0.0,0.0,0.0,0.0,0.0,0.0,0.0,0.0,0.0,0.0,0.0,0.0,0.0,0.0,0.0,0.0,0.0,0.0,0.0,0.0,0.0,0.0,0.0,0.0,0.0,0.0,0.0,0.0,0.0,0.0,0.0,0.0,0.0,0.0,0.0,0.0,0.0,0.0,0.0,0.0,0.0,0.0,0.0,0.0,0.0,0.0,0.0,0.0,0.0,0.0,0.0,0.0,0.0,0.0,0.0,0.0,0.0,0.0,0.0,0.0,0.0,0.0,0.0,0.0,0.0,0.0,0.0,0.0,0.0,0.0,0.0,0.0,0.0,0.0,0.0,0.0,0.0,0.0,0.0,0.0,0.0,0.0,0.0,0.0,0.0,0.0,-1.8482,-1.9505,-1.9806,-1.959,-1.9097,-1.8301,-1.7172,-1.6055,-1.486,-1.323,0.0,0.0,0.0,0.0,0.0,0.0,0.0,0.0,0.0,0.0,0.0,0.0,0.0,0.0,0.0,0.0,0.0,0.0,0.0,0.0,0.0,0.0,0.0,0.0,0.0,0.0,0.0,0.0,0.0,0.0,0.0,0.0,0.0,0.0,0.0,0.0,0.0,0.0,0.0,0.0,0.0,0.0,0.0,0.0,0.0,0.0,0.0,0.0,0.0,0.0,0.0,0.0,0.0,0.0,0.0,0.0,0.0,0.0,0.0,0.0,0.0,0.0,0.0,0.0,0.0,0.0,0.0,0.0,0.0,0.0,0.0,0.0,0.0,0.0,0.0,0.0,0.0,0.0,0.0,0.0,0.0,0.0,0.0,0.0,0.0,0.0,0.0,0.0,0.0,0.0,0.0,0.0,0.0,0.0,0.0,0.0,0.0,0.0,0.0,0.0,0.0,0.0,-1.606,-1.6211,-1.7436,-1.6642,-1.6026,-1.5944,-1.4936,-1.4128,-1.3645,-1.2806,0.0,0.0,0.0,0.0,0.0,0.0,0.0,0.0,0.0,0.0,0.0,0.0,0.0,0.0,0.0,0.0,0.0,0.0,0.0,0.0,0.0,0.0,0.0,0.0,0.0,0.0,0.0,0.0,0.0,0.0,0.0,0.0,0.0,0.0,0.0,0.0,0.0,0.0,0.0,0.0,0.0,0.0,0.0,0.0,0.0,0.0,0.0,0.0,0.0,0.0,0.0,0.0,0.0,0.0,0.0,0.0,0.0,0.0,0.0,0.0,0.0,0.0,0.0,0.0,0.0,0.0,0.0,0.0,0.0,0.0,0.0,0.0,0.0,0.0,0.0,0.0,0.0,0.0,0.0,0.0,0.0,0.0,0.0,0.0,0.0,0.0,0.0,0.0,0.0,0.0,0.0,0.0,0.0,0.0,0.0,0.0,0.0,0.0,0.0,0.0,0.0,0.0,-1.7125,-1.7557,-1.7325,-1.6927,-1.6437,-1.5737,-1.5338,-1.4436,-1.2852,0.0,0.0,0.0,0.0,0.0,0.0,0.0,0.0,0.0,0.0,0.0,0.0,0.0,0.0,0.0,0.0,0.0,0.0,0.0,0.0,0.0,0.0,0.0,0.0,0.0,0.0,0.0,0.0,0.0,0.0,0.0,0.0,0.0,0.0,0.0,0.0,0.0,0.0,0.0,0.0,0.0,0.0,0.0,0.0,0.0,0.0,0.0,0.0,0.0,0.0,0.0,0.0,0.0,0.0,0.0,0.0,0.0,0.0,0.0,0.0,0.0,0.0,0.0,0.0,0.0,0.0,0.0,0.0,0.0,0.0,0.0,0.0,0.0,0.0,0.0,0.0,0.0,0.0,0.0,0.0,0.0,0.0,0.0,0.0,0.0,0.0,0.0,0.0,0.0,0.0,0.0,0.0,0.0,0.0,0.0,0.0,0.0,0.0,0.0,0.0,0.0,0.0,-1.6104,-1.7019,-1.7432,-1.664,-1.6572,-1.6278,-1.5517,-1.5475,-1.4734,-1.2968,0.0,0.0,0.0,0.0,0.0,0.0,0.0,0.0,0.0,0.0,0.0,0.0,0.0,0.0,0.0,0.0,0.0,0.0,0.0,0.0,0.0,0.0,0.0,0.0,0.0,0.0,0.0,0.0,0.0,0.0,0.0,0.0,0.0,0.0,0.0,0.0,0.0,0.0,0.0,0.0,0.0,0.0,0.0,0.0,0.0,0.0,0.0,0.0,0.0,0.0,0.0,0.0,0.0,0.0,0.0,0.0,0.0,0.0,0.0,0.0,0.0,0.0,0.0,0.0,0.0,0.0,0.0,0.0,0.0,0.0,0.0,0.0,0.0,0.0,0.0,0.0,0.0,0.0,0.0,0.0,0.0,0.0,0.0,0.0,0.0,0.0,0.0,0.0,0.0,0.0,0.0,0.0,0.0,0.0,0.0,0.0,0.0,0.0,0.0,0.0,0.0,0.0,-1.5221,-1.5101,-1.5008,-1.5008,-1.5008,-1.5008,-1.5008,-1.5008,-1.4708,0.0,0.0,0.0,0.0,0.0,0.0,0.0,0.0,0.0,0.0,0.0,0.0,0.0,0.0,0.0,0.0,0.0,0.0,0.0,0.0,0.0,0.0,0.0,0.0,0.0,0.0,0.0,0.0,0.0,0.0,0.0,0.0,0.0,0.0,0.0,0.0,0.0,0.0,0.0,0.0,0.0,0.0,0.0,0.0,0.0,0.0,0.0,0.0,0.0,0.0,0.0,0.0,0.0,0.0,0.0,0.0,0.0,0.0,0.0,0.0,0.0,0.0,0.0,0.0,0.0,0.0,0.0,0.0,0.0,0.0,0.0,0.0,0.0,0.0,0.0,0.0,0.0,0.0,0.0,0.0,0.0,0.0,0.0,0.0,0.0,0.0,0.0,0.0,0.0,0.0,0.0,0.0,0.0,0.0,0.0,0.0,0.0,0.0,0.0,0.0,0.0,0.0,0.0,-1.574,-1.5925,-1.5828,-1.5098,-1.5008,-1.5008,-1.5008,-1.5008,-1.4545,-1.35,0.0,0.0,0.0,0.0,0.0,0.0,0.0,0.0,0.0,0.0,0.0,0.0,0.0,0.0,0.0,0.0,0.0,0.0,0.0,0.0,0.0,0.0,0.0,0.0,0.0,0.0,0.0,0.0,0.0,0.0,0.0,0.0,0.0,0.0,0.0,0.0,0.0,0.0,0.0,0.0,0.0,0.0,0.0,0.0,0.0,0.0,0.0,0.0,0.0,0.0,0.0,0.0,0.0,0.0,0.0,0.0,0.0,0.0,0.0,0.0,0.0,0.0,0.0,0.0,0.0,0.0,0.0,0.0,0.0,0.0,0.0,0.0,0.0,0.0,0.0,0.0,0.0,0.0,0.0,0.0,0.0,0.0,0.0,0.0,0.0,0.0,0.0,0.0,0.0,0.0,0.0,0.0,0.0,0.0,0.0,0.0,0.0,0.0,0.0,0.0,0.0,0.0,-1.6095,-1.6174,-1.6015,-1.5402,-1.5311,-1.5311,-1.5311,-1.5311,-1.4856,-1.3801,0.0,0.0,0.0,0.0,0.0,0.0,0.0,0.0,0.0,0.0,0.0,0.0,0.0,0.0,0.0,0.0,0.0,0.0,0.0,0.0,0.0,0.0,0.0,0.0,0.0,0.0,0.0,0.0,0.0,0.0,0.0,0.0,0.0,0.0,0.0,0.0,0.0,0.0,0.0,0.0,0.0,0.0,0.0,0.0,0.0,0.0,0.0,0.0,0.0,0.0,0.0,0.0,0.0,0.0,0.0,0.0,0.0,0.0,0.0,0.0,0.0,0.0,0.0,0.0,0.0,0.0,0.0,0.0,0.0,0.0,0.0,0.0,0.0,0.0,0.0,0.0,0.0,0.0,0.0,0.0,0.0,0.0,0.0,0.0,0.0,0.0,0.0,0.0,0.0,0.0,0.0,0.0,0.0,0.0,0.0,0.0,0.0,0.0,0.0,0.0,0.0,0.0,-1.6348,-1.6007,-1.5784,-1.5784,-1.5784,-1.5784,-1.5784,-1.5784,-1.5425,-1.4616,0.0,0.0,0.0,0.0,0.0,0.0,0.0,0.0,0.0,0.0,0.0,0.0,0.0,0.0,0.0,0.0,0.0,0.0,0.0,0.0,0.0,0.0,0.0,0.0,0.0,0.0,0.0,0.0,0.0,0.0,0.0,0.0,0.0,0.0,0.0,0.0,0.0,0.0,0.0,0.0,0.0,0.0,0.0,0.0,0.0,0.0,0.0,0.0,0.0,0.0,0.0,0.0,0.0,0.0,0.0,0.0,0.0,0.0,0.0,0.0,-2.4127,-2.3475,0.0,0.0,0.0,0.0,0.0,0.0,0.0,0.0,0.0,0.0,0.0,0.0,0.0,0.0,0.0,0.0,0.0,0.0,0.0,0.0,0.0,0.0,0.0,0.0,0.0,0.0,0.0,0.0,0.0,0.0,0.0,0.0,0.0,0.0,0.0,0.0,0.0,0.0,0.0,0.0,-1.6758,-1.6195,-1.5784,-1.5784,-1.5784,-1.5784,-1.5784,-1.5784,-1.5551,-1.491,-1.475,0.0,0.0,0.0,0.0,0.0,0.0,0.0,0.0,0.0,0.0,0.0,0.0,0.0,0.0,0.0,0.0,0.0,0.0,0.0,0.0,0.0,0.0,0.0,0.0,0.0,0.0,0.0,0.0,0.0,0.0,0.0,0.0,0.0,0.0,0.0,0.0,0.0,0.0,0.0,0.0,0.0,0.0,0.0,0.0,0.0,0.0,0.0,0.0,0.0,0.0,0.0,0.0,0.0,0.0,0.0,0.0,0.0,0.0,0.0,-2.3817,-2.3686,0.0,0.0,0.0,0.0,0.0,0.0,0.0,0.0,0.0,0.0,0.0,0.0,0.0,0.0,0.0,0.0,0.0,0.0,0.0,0.0,0.0,0.0,0.0,0.0,0.0,0.0,0.0,0.0,0.0,0.0,0.0,0.0,0.0,0.0,0.0,0.0,0.0,0.0,0.0,0.0,-1.6895,-1.6269,-1.5784,-1.5784,-1.5784,-1.5784,-1.5784,-1.5784,-1.5698,-1.5404,-1.5124,0.0,0.0,0.0,0.0,0.0,0.0,0.0,0.0,0.0,0.0,0.0,0.0,0.0,0.0,0.0,0.0,0.0,0.0,0.0,0.0,0.0,0.0,0.0,0.0,0.0,0.0,0.0,0.0,0.0,0.0,0.0,0.0,0.0,0.0,0.0,0.0,0.0,0.0,0.0,0.0,0.0,0.0,0.0,0.0,0.0,0.0,0.0,0.0,0.0,0.0,0.0,0.0,0.0,-2.3297,-2.3349,-2.3349,-2.3349,-2.2751,-2.1865,-2.3859,-2.4104,-2.3095,-2.333,0.0,0.0,0.0,0.0,0.0,0.0,0.0,0.0,0.0,0.0,0.0,0.0,0.0,0.0,0.0,0.0,0.0,0.0,0.0,0.0,0.0,0.0,-1.9258,-2.0684,-2.0312,-2.0237,-2.2324,0.0,0.0,0.0,0.0,0.0,0.0,0.0,0.0,0.0,0.0,0.0,-1.6612,-1.6106,-1.5784,-1.5784,-1.5784,-1.5784,-1.5784,-1.5784,-1.5784,-1.5784,-1.5378,-1.4501,0.0,0.0,0.0,0.0,0.0,0.0,0.0,0.0,0.0,0.0,0.0,0.0,0.0,0.0,0.0,0.0,0.0,0.0,0.0,0.0,0.0,0.0,0.0,0.0,0.0,0.0,0.0,0.0,0.0,0.0,0.0,0.0,-2.4986,-2.4701,0.0,0.0,0.0,0.0,0.0,0.0,0.0,0.0,0.0,0.0,0.0,0.0,0.0,-2.3047,-2.2937,-2.3448,-2.372,-2.37,-2.4042,-2.4247,-2.4247,-2.4247,-2.4137,-2.3949,-2.3156,0.0,-2.2934,-2.3089,0.0,0.0,0.0,0.0,0.0,0.0,0.0,0.0,0.0,0.0,0.0,0.0,0.0,0.0,0.0,0.0,0.0,0.0,0.0,0.0,0.0,0.0,-2.2477,-2.2711,-2.1834,-2.1047,-2.1459,-2.0079,-1.9128,-2.0346,-1.9566,-1.8773,0.0,0.0,0.0,0.0,0.0,0.0,-1.5468,-1.5592,-1.5784,-1.5784,-1.5784,-1.5784,-1.5784,-1.5784,-1.5784,-1.5784,-1.5704,-1.4867,-1.3075,-1.3485,0.0,0.0,0.0,0.0,0.0,0.0,0.0,0.0,0.0,0.0,0.0,0.0,0.0,0.0,0.0,0.0,0.0,0.0,0.0,0.0,0.0,0.0,0.0,0.0,0.0,0.0,0.0,0.0,0.0,-2.4715,-2.4953,-2.5495,-2.5533,-2.5281,0.0,0.0,0.0,0.0,0.0,0.0,0.0,0.0,0.0,-2.2798,-2.3448,-2.361,-2.3104,-2.3806,-2.4131,-2.4151,-2.4579,-2.4785,-2.4785,-2.4785,-2.4785,-2.4746,-2.3926,-2.3624,-2.3662,-2.2793,-2.3001,-2.3777,0.0,0.0,0.0,0.0,-2.1403,-2.1694,-2.0385,-2.0803,-2.181,-2.1135,0.0,0.0,0.0,0.0,0.0,0.0,0.0,-2.1148,-2.1056,-2.1719,-2.2559,-2.2984,-2.2672,-2.2101,-2.1459,-2.0113,-1.9075,-1.9217,-1.8949,-1.8582,-1.8323,-1.8089,0.0,0.0,0.0,-1.6445,-1.5885,-1.5795,-1.5784,-1.5784,-1.5784,-1.5784,-1.5784,-1.5784,-1.5784,-1.5784,-1.514,-1.4017,-1.2462,-1.2656,-1.1305,0.0,0.0,0.0,0.0,0.0,0.0,0.0,0.0,0.0,0.0,0.0,0.0,0.0,0.0,0.0,0.0,0.0,0.0,0.0,0.0,0.0,0.0,0.0,0.0,0.0,0.0,0.0,0.0,-2.4489,-2.5052,-2.5661,-2.5428,-2.5167,0.0,0.0,0.0,0.0,0.0,0.0,-2.3421,-2.3772,-2.3724,-2.3207,-2.4102,-2.4319,-2.3764,-2.4551,-2.4922,-2.4922,-2.5352,-2.5566,-2.5566,-2.5566,-2.5566,-2.5547,-2.5117,-2.4922,-2.4805,-2.3203,-2.2881,-2.343,-2.3185,-2.3119,-2.3015,-2.1959,-2.1791,-2.19,-2.0661,-2.1113,-2.2148,-2.1795,-2.1797,-2.1816,-2.1484,0.0,0.0,0.0,0.0,-2.0518,-2.0724,-2.1058,-2.1433,-2.2033,-2.2183,-2.1854,-2.0629,-1.9704,-1.8987,-1.8605,-1.8448,-1.8261,-1.7752,-1.7453,0.0,-1.6911,-1.6599,-1.6257,-1.5965,-1.5865,-1.5784,-1.5784,-1.5784,-1.5784,-1.5784,-1.5784,-1.5784,-1.5784,-1.4603,-1.3295,-1.195,-1.1609,-1.0255,-0.776,0.0,0.0,0.0,0.0,0.0,0.0,0.0,0.0,0.0,0.0,0.0,0.0,0.0,0.0,0.0,0.0,0.0,0.0,0.0,0.0,0.0,0.0,0.0,0.0,0.0,0.0,0.0,0.0,0.0,-2.3749,-2.5301,0.0,0.0,0.0,0.0,-2.4364,-2.4346,-2.4323,-2.4323,-2.4364,-2.4547,-2.4965,-2.5036,-2.5223,-2.5557,-2.6055,-2.6289,-2.6289,-2.6719,-2.6914,-2.6914,-2.6914,-2.6914,-2.6894,-2.6465,-2.6289,-2.6191,-2.4844,-2.4297,-2.4245,-2.3423,-2.3134,-2.3004,-2.1292,-2.1428,-2.2327,-2.1465,-2.197,-2.3023,-2.3003,-2.2519,-2.166,-2.0391,-2.0273,0.0,0.0,-1.9111,-1.9691,-1.8204,-1.8715,-1.9629,-1.9662,-1.9679,-1.936,-1.8133,-1.8074,-1.8502,-1.9298,-1.8458,-1.7751,-1.8087,0.0,-1.7445,-1.5499,-1.5871,-1.5965,-1.4751,-1.5297,-1.5784,-1.5784,-1.5784,-1.5784,-1.5784,-1.5784,-1.5784,-1.5784,-1.4603,-1.3295,-1.195,-1.073,-0.9452,-0.8018,-0.7787,0.0,0.0,0.0,0.0,0.0,0.0,0.0,0.0,0.0,0.0,0.0,0.0,0.0,0.0,0.0,0.0,0.0,0.0,0.0,0.0,0.0,0.0,0.0,0.0,0.0,0.0,0.0,0.0,-2.5082,-2.5185,0.0,-2.5782,-2.5204,-2.464,-2.4409,-2.4669,-2.4836,-2.484,-2.5371,-2.5765,-2.5947,-2.6172,-2.6406,-2.6562,-2.6719,-2.6797,-2.6797,-2.7226,-2.7441,-2.7441,-2.7441,-2.7441,-2.7422,-2.6973,-2.6797,-2.6758,-2.6289,-2.5586,-2.4805,-2.4492,-2.4219,-2.3906,-2.3281,-2.334,-2.3557,-2.2382,-2.2298,-2.2511,-2.1642,-2.1188,-2.0846,-2.0383,-2.0348,-2.0293,-1.9499,-1.9597,-1.9771,-1.9018,-1.9154,-1.9497,-1.9497,-1.9497,-1.9177,-1.7963,-1.7781,-1.772,-1.7206,-1.6952,-1.6853,-1.7003,-1.6817,-1.6485,-1.6021,-1.5986,-1.5841,-1.5424,-1.5584,-1.5784,-1.5784,-1.5784,-1.5784,-1.5784,-1.5784,-1.5439,-1.4603,-1.3343,-1.2037,-1.073,-0.941,-0.8478,-0.7988,-0.7887,-0.7597,0.0,0.0,0.0,0.0,0.0,0.0,0.0,0.0,0.0,0.0,0.0,0.0,0.0,0.0,0.0,0.0,0.0,0.0,0.0,0.0,0.0,0.0,0.0,0.0,0.0,-2.3166,-2.4074,-2.5501,-2.4888,-2.4959,-2.6389,-2.5511,-2.4961,-2.5265,-2.5567,-2.5723,-2.5723,-2.6289,-2.668,-2.6816,-2.709,-2.7305,-2.7441,-2.7441,-2.7441,-2.7441,-2.7734,-2.7871,-2.7871,-2.7871,-2.7715,-2.7441,-2.7441,-2.7285,-2.7031,-2.7324,-2.6855,-2.5986,-2.5781,-2.5547,-2.5178,-2.4526,-2.4326,-2.4049,-2.2446,-2.1791,-2.1592,-2.0666,-2.0377,-2.0377,-2.0377,-2.0377,-2.028,-1.9622,-1.9415,-1.9304,-1.8706,-1.855,-1.855,-1.855,-1.855,-1.8329,-1.7538,-1.7149,-1.6739,-1.6203,-1.6146,-1.6116,-1.5803,-1.5517,-1.5332,-1.5304,-1.5078,-1.4905,-1.4905,-1.5158,-1.5345,-1.5345,-1.5598,-1.5642,-1.5188,-1.5271,-1.4752,-1.3332,-1.2182,-1.1095,-1.0128,-0.8652,-0.7867,-0.7914,-0.7766,-0.7469,-0.7075,0.0,0.0,0.0,0.0,0.0,0.0,0.0,0.0,0.0,0.0,0.0,0.0,0.0,0.0,0.0,0.0,0.0,0.0,0.0,0.0,0.0,0.0,0.0,-2.1966,-2.3391,-2.4529,-2.4807,-2.4621,-2.5225,-2.7206,-2.6372,-2.6064,-2.6953,-2.7031,-2.7031,-2.7051,-2.7051,-2.7226,-2.7728,-2.7728,-2.7943,-2.8281,-2.832,-2.834,-2.834,-2.834,-2.834,-2.834,-2.834,-2.7871,-2.7148,-2.7969,-2.7851,-2.7129,-2.7969,-2.8066,-2.7584,-2.7156,-2.6929,-2.6698,-2.4798,-2.4074,-2.3764,-2.1528,-2.0573,-2.0346,-2.0346,-2.0329,-2.0329,-2.0329,-2.0313,-2.0071,-1.8818,-1.8474,-1.8178,-1.7,-1.67,-1.67,-1.67,-1.67,-1.67,-1.67,-1.6032,-1.5685,-1.654,-1.6246,-1.5545,-1.4692,-1.4589,-1.4295,-1.3454,-1.332,0.0,-1.332,-1.4068,-1.4589,-1.4589,-1.5278,-1.5283,-1.404,-1.4262,-1.373,-1.1968,-1.1179,-1.0611,-1.0146,-0.8519,-0.7692,-0.7828,-0.7348,-0.7334,-0.7821,0.0,0.0,0.0,0.0,0.0,0.0,0.0,0.0,0.0,0.0,0.0,0.0,0.0,0.0,0.0,0.0,0.0,0.0,0.0,0.0,0.0,-2.2715,-2.3722,-2.3731,-2.4108,-2.4762,-2.5829,-2.5877,-2.6202,-2.7033,-2.6811,-2.6758,-2.6992,-2.7305,-2.7617,-2.793,-2.7656,-2.7676,-2.8105,-2.8125,-2.8184,-2.8301,-2.8906,-2.9219,-2.9219,-2.9219,-2.9219,-2.9219,-2.9219,-2.9082,-2.8887,-2.9121,-2.8906,-2.8418,-2.8652,-2.7883,-2.6513,-2.6035,-2.5651,-2.5341,-2.4799,-2.3965,-2.28,-2.0632,-1.9554,-1.896,-1.8735,-1.865,-1.8608,-1.8419,-1.8348,-1.8255,-1.7687,-1.7581,-1.7424,-1.6854,-1.67,-1.67,-1.67,-1.67,-1.67,-1.67,-1.6513,-1.642,-1.666,-1.658,-1.6393,-1.6139,-1.6099,-1.6019,-1.5778,-1.5738,-1.5738,-1.5738,-1.5952,-1.6099,-1.6099,-1.5752,-1.5184,-1.4389,-1.3874,-1.2764,-1.0917,-1.0602,-1.0053,-0.9027,-0.8508,-0.8255,-0.8296,-0.7855,-0.774,0.0,0.0,0.0,0.0,0.0,0.0,0.0,0.0,0.0,0.0,0.0,0.0,0.0,0.0,0.0,0.0,0.0,0.0,0.0,0.0,0.0,0.0,-2.3881,-2.505,-2.5449,-2.5352,-2.5527,-2.6289,-2.6543,-2.6816,-2.7246,-2.7285,-2.7441,-2.7793,-2.8047,-2.8379,-2.8809,-2.8594,-2.8418,-2.8301,-2.8633,-2.8652,-2.8301,-2.9141,-2.9626,-2.9626,-2.9626,-2.9626,-2.9626,-2.9626,-2.9375,-2.9062,-2.9414,-2.8868,-2.7654,-2.8012,-2.7103,-2.5531,0.0,0.0,0.0,0.0,-2.2445,-2.0927,-1.9758,-1.8932,-1.8464,-1.829,-1.8237,-1.8196,-1.8023,-1.7782,-1.7488,-1.7139,-1.678,-1.658,-1.654,-1.6526,-1.662,-1.6981,-1.7074,-1.7074,-1.7074,-1.678,-1.6633,-1.7007,-1.678,0.0,-1.7007,-1.6567,-1.6032,-1.5671,-1.5605,-1.5605,-1.5605,-1.5925,-1.591,-1.5314,-1.5091,-1.4411,-1.2925,-1.2478,0.0,0.0,0.0,-0.945,-0.8347,-0.8357,0.0,0.0,0.0,-0.7862,-0.8133,-0.7229,0.0,0.0,-0.4678,-0.3358,0.0,0.0,0.0,0.0,0.0,0.0,0.0,0.0,0.0,0.0,0.0,0.0,0.0,0.0,0.0,0.0,-2.513,-2.5935,-2.6863,-2.6738,-2.6543,-2.6543,-2.6855,-2.7266,-2.7748,-2.7826,-2.8125,-2.8867,-2.8965,-2.918,-2.9609,-2.9551,0.0,0.0,0.0,-2.9199,-2.8437,-2.9297,-2.9783,-2.9783,-2.9783,-2.9651,-2.9482,-2.9482,-2.8945,-2.8052,-2.8855,-2.7921,-2.5911,-2.6605,-2.5932,-2.4554,-2.5332,-2.4799,-2.3359,-2.1835,-2.0401,-1.9185,-1.8948,0.0,0.0,-1.8544,-1.8544,-1.8531,-1.8504,-1.8116,-1.7569,-1.7048,-1.6526,-1.6192,-1.646,-1.6576,-1.6714,-1.7462,-1.7635,-1.7622,-1.7595,-1.6967,-1.6697,-1.7435,-1.7005,-1.6673,-1.7448,-1.65,-1.5378,-1.4603,-1.4482,-1.4482,-1.4482,-1.5014,-1.4914,-1.3577,-1.3903,0.0,-1.0706,-1.0789,-1.0265,-0.8664,-0.8984,-0.8929,-0.814,-0.8289,-0.817,-0.763,-0.7719,-0.7997,-0.8397,-0.687,-0.5531,-0.4543,-0.4892,-0.3744,0.0,0.0,0.0,0.0,0.0,0.0,0.0,0.0,0.0,0.0,0.0,0.0,0.0,0.0,0.0,-2.4694,-2.4982,-2.5433,-2.6839,-2.7246,-2.7474,-2.7474,-2.7552,-2.7715,-2.8125,-2.8476,-2.875,-2.8906,-2.9238,-2.9629,-3.0059,-2.9414,-2.9121,-2.9316,-2.9492,-2.9548,-2.9316,-3.0195,-3.0644,-3.0644,-3.0644,0.0,-2.8605,-2.8605,-2.7807,-2.6465,-2.6619,-2.6236,-2.5419,-2.557,-2.4585,-2.2898,-2.2821,-2.2482,-2.1809,-1.9808,-1.9963,-2.087,-1.9166,-1.8851,-1.9158,-1.8918,-1.8838,-1.8798,-1.8557,-1.841,0.0,-1.8183,-1.8063,-1.7983,-1.805,-1.8063,-1.805,-1.7969,-1.7902,-1.7836,-1.7635,-1.7448,-1.7382,-1.7555,-1.7448,-1.7382,-1.7555,-1.7341,-1.7101,-1.6927,-1.6901,-1.6901,-1.6901,-1.6048,-1.5307,-1.4995,-1.3445,-1.1994,-1.1065,-1.0389,-0.9697,-0.8879,-0.89,-0.8926,-0.871,-0.8906,-0.8982,-0.8866,-0.896,-0.9083,-0.9164,-0.7556,-0.604,-0.4644,-0.3372,-0.1895,0.0,0.0,0.0,0.0,0.0,0.0,0.0,0.0,0.0,0.0,0.0,-2.1646,-2.1824,0.0,-2.3286,-2.4697,-2.4853,-2.5488,-2.7369,-2.7232,-2.7131,-2.7643,-2.8047,-2.8379,-2.8574,-2.8984,-2.9336,-2.9551,-2.9012,-2.926,-3.047,-2.9355,-2.8956,-2.957,-2.9222,-2.8764,-2.8352,-2.8381,-2.8426,-2.8426,-2.8426,-2.7991,-2.7194,-2.7194,-2.6772,-2.5984,-2.5984,-2.54,-2.4389,-2.355,-2.2576,-2.1572,-2.1403,-2.1149,-2.0765,-1.9581,-1.9839,-2.0526,-1.935,-1.9118,-1.9345,-1.9199,-1.9145,-1.9118,-1.8971,-1.8731,-1.8424,-1.8116,-1.7822,-1.7635,-1.7836,-1.7876,-1.7903,-1.8196,-1.8263,-1.8223,-1.8076,-1.8036,-1.8036,-1.8036,-1.8036,-1.7807,-1.698,-1.6859,-1.6771,-1.6537,-1.5902,-1.5476,-1.5476,-1.477,-1.4116,-1.3416,-1.2276,-1.1244,-1.0355,-0.9824,-0.9464,-0.9144,-0.9157,-0.9157,-0.9157,-0.9232,-0.9323,-0.9323,-0.934,-0.8968,-0.8142,-0.656,-0.498,-0.3401,-0.1821,-0.0703,0.0,0.0,0.0,0.0,0.0,0.0,0.0,-2.2496,-2.2362,-2.193,-2.1262,-2.1196,-2.2698,-2.275,-2.3113,-2.477,-2.4562,-2.497,-2.7187,-2.65,-2.6082,-2.7015,-2.8157,-2.8671,-2.8123,-2.8801,-2.924,-2.9279,-2.8428,-2.8513,-2.9884,-2.8979,-2.855,-2.8899,-2.826,-2.763,-2.6893,-2.6287,-2.5984,-2.5984,-2.5984,-2.5863,-2.5558,-2.5558,-2.5375,-2.5069,-2.5069,-2.4286,-2.3014,-2.1664,-2.0975,-2.0762,-2.0762,-2.0615,-2.0361,-2.0013,-1.988,-1.9853,-1.9613,-1.9492,-1.9511,-1.9511,-1.9412,-1.943,-1.943,-1.9038,-1.8557,-1.8063,-1.7582,-1.7275,-1.7568,-1.7635,-1.7809,-1.8424,-1.8571,-1.8557,-1.8504,-1.8255,-1.8033,-1.8033,-1.7798,-1.7173,-1.5862,-1.5401,-1.5155,-1.5081,-1.4103,-1.3396,-1.3396,-1.3123,-1.2532,-1.1422,-1.1093,-1.0535,-0.9483,-0.9381,-0.9381,-0.9381,-0.9381,-0.9381,-0.9381,-0.9408,-0.9422,-0.9422,-0.9456,-0.8636,-0.6975,-0.5499,-0.3906,-0.2194,-0.0722,0.0,-2.3223,-2.1259,-2.0508,-2.279,-2.2333,-2.1722,0.0,-2.3496,-2.3004,-2.0941,-2.2039,-2.342,-2.3618,-2.2641,-2.2672,-2.5503,-2.369,-2.2605,-2.4478,-2.4601,-2.4644,-2.4985,-2.7307,-2.792,-2.5391,-2.6888,-2.7427,-2.5974,-2.7368,-2.7818,-2.6591,-2.7751,-2.7776,-2.6472,-2.6298,-2.6238,-2.6094,-2.6056,-2.5984,-2.5984,-2.5984,-2.5253,-2.3884,-2.3884,-2.3076,-2.1664,-2.1664,-2.1538,-2.1348,-2.1172,-2.1096,-2.1069,-2.1069,-2.1042,-2.0949,-2.0388,-2.0187,-2.0174,-2.0147,-1.996,-1.976,-1.976,-1.9573,-1.943,-1.943,-1.9377,-1.931,-1.9243,-1.9176,-1.9135,-1.9162,-1.9176,-1.9078,-1.8918,-1.8878,-1.8811,-1.8544,-1.7396,-1.6366,-1.6366,-1.5232,-1.4205,-1.3978,-1.2899,-1.2434,-1.3682,-1.3784,-1.3672,-1.3672,-1.2493,-1.1657,-1.1511,-1.0379,-0.9534,-0.9439,-0.9381,-0.9381,-0.9381,-0.9381,-0.9381,-0.9381,-0.951,-0.9585,-0.9585,-0.9707,-0.8975,-0.7322,-0.5681,-0.4038,-0.245,-0.0799,0.0,-2.3372,-2.2575,-2.2268,-2.2855,-2.2809,-2.2573,-2.2452,-2.2458,-2.223,-2.1227,-2.1124,-2.1487,-2.2363,-2.1607,-2.1415,-2.3182,-2.2137,-2.182,-2.4,-2.3699,-2.3383,-2.359,-2.5232,-2.5852,-2.4696,-2.5898,-2.6304,-2.5277,-2.543,-2.5757,-2.5984,-2.5741,-2.5757,-2.5984,-2.5069,-2.4594,-2.4594,-2.3606,-2.3124,-2.3124,-2.3124,-2.2827,-2.2153,-2.2153,-2.179,-2.1109,-2.1109,-2.1109,-2.1109,-2.1109,-2.1109,-2.1109,-2.1109,-2.1109,-2.1056,-2.0641,-2.0494,-2.0468,-2.0294,-2.0147,-2.0054,-2.0054,-1.9973,-1.984,-1.9666,-1.9626,-1.9586,-1.9412,-1.943,-1.943,-1.943,-1.943,-1.9158,-1.8076,-1.7807,-1.7493,-1.6449,-1.5721,-1.5257,-1.5257,-1.4665,-1.3908,-1.2971,-1.2325,-1.1803,-1.1508,-1.1271,-1.12,-1.12,-1.0632,-1.033,-1.0369,-0.994,-0.9639,-0.9639,-0.9639,-0.9639,-0.9639,-0.9639,-0.9639,-0.9639,-0.97,-0.9734,-0.9734,-0.8872,-0.7606,-0.5953,-0.4303,-0.2659,-0.0999,-0.0313,0.0,-2.3162,-2.2855,-2.27,-2.2611,-2.2467,-2.2202,-2.1711,-2.1316,-2.0973,-2.0973,-2.0141,-1.9866,-2.1316,-2.0764,-2.041,-2.1517,-2.1015,-2.1102,-2.3018,-2.2572,-2.2014,-2.2144,-2.2868,-2.3163,-2.29,-2.4231,-2.4775,-2.4039,-2.378,-2.3931,-2.4578,-2.3993,-2.3931,-2.464,-2.3497,-2.2889,-2.2889,-2.1727,-2.1109,-2.1109,-2.1109,-2.1109,-2.1109,-2.1109,-2.1109,-2.1109,-2.1109,-2.1109,-2.1109,-2.1109,-2.1109,-2.1109,-2.1109,-2.1109,-2.1082,-2.0869,-2.0802,-2.0762,-2.0548,-2.0428,-2.0361,-2.0361,-2.0294,-2.0127,-1.9987,-1.992,-1.988,-1.9666,-1.9599,-1.9482,-1.8998,-1.888,-1.8513,-1.6816,-1.6459,-1.6138,-1.488,-1.4331,-1.3961,-1.3954,-1.3586,-1.2928,-1.1736,-1.1555,-1.114,-1.0004,-0.9639,-0.9503,-0.9503,-0.9503,-0.9544,-0.9652,-0.9761,-0.9822,-0.9822,-0.9822,-0.9822,-0.9822,-0.9822,-0.9822,-0.9822,-0.9863,-0.9638,-0.9136,-0.806,-0.6399,-0.4232,-0.3051,-0.1631,0.0,0.0,0.0,-2.2315,-2.0763,-1.968,-2.1485,-2.0297,-1.9209,-2.1168,-2.0472,-1.9488,-1.9488,-1.9417,-1.9866,-2.1316,-2.0415,-1.9993,-2.1714,-2.0749,-2.0033,-2.0746,-2.0779,-2.0623,-2.0341,-2.0288,-1.9891,-1.8805,-2.1177,-2.2343,-2.1281,-2.2702,-2.2889,-2.1348,-2.2716,-2.2904,-2.1299,-2.1235,-2.1172,-2.1172,-2.1109,-2.1109,-2.1109,-2.1109,-2.1109,-2.1109,-2.1109,-2.1109,-2.1109,-2.1109,-2.1109,-2.1109,-2.1109,-2.1109,-2.1109,-2.1109,-2.1109,-2.1109,-2.1096,-2.1096,-2.1096,-2.1082,-2.0895,-2.0655,-2.0655,-2.0468,-2.0167,-2.0167,-2.0214,-2.0214,-2.0214,-2.0214,-1.9776,-1.8093,-1.7652,-1.7222,-1.5484,-1.505,-1.499,-1.4831,-1.3582,-1.2437,-1.2311,-1.102,-0.9943,-0.9883,-0.9883,-0.9883,-0.9822,-0.9815,-0.9808,-0.9808,-0.9808,-0.9808,-0.9815,-0.9822,-0.9822,-0.9822,-0.9822,-0.9822,-0.9822,-0.9822,-0.9822,-0.9822,-0.9903,-0.9224,-0.7526,-0.7569,-0.5962,-0.2568,-0.2504,-0.1607,0.0,0.0,0.0,-1.9473,-1.931,-1.9544,-1.9642,-1.9361,-1.929,-1.9984,-1.9764,-1.943,-1.943,-1.9052,-1.8953,-1.9431,-1.8945,-1.8805,-1.979,-1.9557,-1.9559,-2.0535,-2.0174,-2.0054,-2.0735,-2.0134,-1.9813,-2.0187,-2.0698,-2.0736,-2.0033,-2.1211,-2.1727,-2.1109,-2.1601,-2.176,-2.1467,-2.1403,-2.1496,-2.1697,-2.1697,-2.1697,-2.1697,-2.1697,-2.1697,-2.1697,-2.1697,-2.159,-2.1403,-2.1403,-2.1296,-2.1109,-2.1109,-2.1109,-2.1109,-2.1109,-2.1109,-2.1109,-2.1109,-2.1109,-2.1109,-2.1109,-2.1042,-2.0962,-2.0962,-2.0895,-2.0775,-2.0588,-1.9707,-1.8778,-1.8533,-1.7614,-1.6618,-1.6,-1.5876,-1.5442,-1.3885,-1.3448,-1.3188,-1.2073,-1.1384,-1.0992,-1.0941,-1.0496,-1.0127,-1.0127,-1.0127,-1.0127,-1.0127,-0.9951,-0.9822,-0.9822,-0.9822,-0.9822,-0.9822,-0.9822,-0.9863,-0.9903,-0.9909,-1.0019,-1.012,-1.0127,-1.0127,-1.0127,-0.9022,-0.8155,-0.7516,-0.5379,-0.366,-0.2507,-0.1353,-0.0583,0.0,0.0,0.0,-1.8559,-1.8972,-1.9564,-1.9079,-1.9239,-1.9546,-1.9653,-1.9679,-1.9679,-1.9679,-1.9372,-1.9011,-1.8704,-1.8571,-1.8637,-1.9025,-1.9172,-1.9613,-2.0681,-2.0347,-2.0187,-2.0735,-2.0134,-1.9893,-2.0428,-2.0428,-2.0187,-1.972,-2.0468,-2.0949,-2.0949,-2.1056,-2.1296,-2.1762,-2.171,-2.1804,-2.1977,-2.1991,-2.1991,-2.1991,-2.1991,-2.1991,-2.1991,-2.1991,-2.171,-2.132,-2.1641,-2.1416,-2.0975,-2.1296,-2.1416,-2.1416,-2.1309,-2.1269,-2.1256,-2.1149,-2.0716,-2.0259,-2.0856,-2.1109,-2.1109,-2.1109,-2.0652,-2.0157,-1.9991,-1.8707,-1.7271,-1.7052,-1.6181,-1.5173,-1.4541,-1.4424,-1.3979,-1.2394,-1.2018,-1.1683,-1.0621,-1.0358,-1.0337,-1.029,-1.0283,-1.0283,-1.0283,-1.0283,-1.0283,-1.0283,-1.0114,-0.9985,-0.9985,-0.9985,-0.9985,-0.9985,-0.9985,-1.0025,-1.0127,-0.9494,-0.9217,-0.9303,-0.873,-0.8342,-0.8342,-0.7286,-0.6404,-0.582,-0.3644,-0.222,-0.1634,-0.0524,0.0,0.0,0.0,0.0,-1.9406,-1.9662,-1.9754,-1.9825,-1.9826,-1.9893,-2.0113,-2.0167,-2.0214,-2.0113,-2.0134,-1.9767,-1.8971,-1.9025,-1.9296,-1.9363,-1.9559,-2.004,-2.0935,-2.1042,-2.0828,-2.0233,-2.0254,-2.0054,-1.9533,-2.0241,-2.0615,-2.0247,-2.0575,-2.0748,-2.0748,-2.1002,-2.1416,-2.1991,-2.2004,-2.2017,-2.2031,-2.2031,-2.2031,-2.2031,-2.2031,-2.2031,-2.2031,-2.2031,-2.1563,-2.0815,-2.1643,-2.1523,-2.0802,-2.1643,-2.1991,-2.1951,-2.1748,-2.1641,-2.1537,-2.1129,-1.9966,-1.8728,-2.0284,-2.0856,-2.0843,-2.0843,-1.9737,-1.8384,-1.8384,-1.7141,-1.5784,-1.5784,-1.5719,-1.5265,-1.3578,-1.3193,-1.2742,-1.1108,-1.0717,-1.0677,-1.0534,-1.0507,-1.0466,-1.0331,-1.0304,-1.0304,-1.0304,-1.0304,-1.0304,-1.0304,-1.0304,-1.0297,-1.0283,-1.0283,-1.0283,-1.0283,-1.0213,-1.0156,-1.0163,-0.8481,-0.7454,-0.7459,-0.5853,-0.4952,-0.4952,-0.4956,-0.4204,-0.2565,-0.2533,-0.1747,0.0,0.0,0.0,0.0,0.0,0.0,-1.8218,-1.9097,-2.0087,-2.01,-2.012,-2.0147,-2.0153,-2.0167,-2.0054,-1.9399,-1.8731,-1.8063,-1.7395,-1.7154,-1.7474,-1.8531,-1.8771,-1.9212,-2.0307,-2.008,-1.992,-2.0201,-2.0428,-2.0681,-2.1025,-2.139,-2.1443,-2.0922,-2.1363,-2.1657,-2.1657,-2.1724,-2.1924,-2.2298,-2.2311,-2.2418,-2.2632,-2.2645,-2.2645,-2.2645,-2.2645,-2.2645,-2.2645,-2.2645,-2.2392,-2.1991,-2.2218,-2.2058,-2.167,-2.1897,-2.1991,-2.1977,-2.1897,-2.1871,-2.1726,-2.0244,-1.9364,-1.8729,-1.774,-1.7304,-1.7205,-1.7205,-1.6947,-1.656,-1.656,-1.5329,-1.397,-1.397,-1.3062,-1.1894,-1.1505,-1.1372,-1.124,-1.0784,-1.0717,-1.0711,-1.067,-1.0663,-1.0649,-1.0616,-1.0609,-1.0609,-1.0609,-1.0609,-1.0609,-1.0609,-1.0609,-1.0527,-1.031,-1.0283,-1.0283,-1.0283,-0.9118,-0.8317,-0.841,-0.6783,-0.5831,-0.5965,-0.5503,-0.5304,-0.5304,-0.3996,-0.307,-0.267,-0.1341,-0.0471,0.0,0.0,0.0,0.0,0.0,0.0,-1.8731,-1.9479,-2.0267,-2.0401,-2.0428,-2.0321,-1.9947,-1.9853,-1.9559,-1.8544,-1.7929,-1.7368,-1.6647,-1.6643,-1.7021,-1.8116,-1.8517,-1.9038,-2.0094,-2.0067,-2.0067,-2.0388,-2.0695,-2.1096,-2.1748,-2.2004,-2.2044,-2.171,-2.175,-2.179,-2.179,-2.1924,-2.2178,-2.2605,-2.2619,-2.2699,-2.2928,-2.2928,-2.2928,-2.2928,-2.2928,-2.2928,-2.2928,-2.2928,-2.2565,-2.2058,-2.2445,-2.2298,-2.183,-2.2218,-2.1882,-2.1116,-2.1002,-2.0471,-1.9563,-1.8373,-1.7438,-1.6589,-1.5462,-1.4517,-1.4068,-1.5453,-1.5394,-1.4754,-1.4754,-1.3513,-1.2157,-1.2157,-1.1439,-1.0717,-1.0717,-1.0717,-1.0717,-1.0717,-1.0717,-1.0717,-1.0717,-1.0717,-1.0717,-1.0717,-1.0717,-1.0717,-1.0717,-1.0717,-1.0717,-1.0717,-1.0047,-0.9456,-0.9311,-1.0013,-1.0142,-0.9352,-0.8372,-0.7481,-0.6815,-0.5099,-0.4123,-0.4225,-0.3488,-0.3021,-0.3021,-0.2083,-0.1545,-0.1545,-0.0538,0.0,0.0,0.0,0.0,0.0,0.0,0.0,-1.9987,-2.0254,-2.0414,-2.0668,-2.0735,-2.0535,-1.9773,-1.9537,-1.9095,-1.7889,-1.7488,-1.7141,-1.646,-1.6804,-1.7367,-1.7942,-1.8542,-1.9212,-1.9794,-2.0374,-2.0641,-2.0575,-2.0922,-2.1403,-2.1991,-2.2231,-2.2392,-2.2472,-2.2017,-2.1789,-2.1789,-2.1964,-2.2338,-2.2846,-2.2928,-2.2928,-2.2928,-2.2928,-2.2928,-2.2928,-2.2928,-2.2928,-2.2928,-2.2928,-2.2378,-2.1437,-2.2187,-2.1947,-2.1045,-2.1849,-2.1183,-1.9681,-1.9393,-1.8262,-1.6786,-1.6323,-1.5155,-1.3839,-1.3574,-1.2475,-1.166,-1.4422,-1.4229,-1.2972,-1.2972,-1.1909,-1.0717,-1.0717,-1.0717,-1.0717,-1.0717,-1.0717,-1.0717,-1.0717,-1.0717,-1.0717,-1.0717,-1.0717,-1.0717,-1.0717,-1.0717,-1.0717,-1.0717,-1.0518,-1.0319,-1.0319,-0.8839,-0.7631,-0.7631,-0.9039,-0.9377,-0.7831,-0.7431,-0.6698,-0.5162,-0.3356,-0.235,-0.235,-0.0874,0.0,0.0,0.0,0.0,0.0,0.0,0.0,0.0,0.0,0.0,0.0,0.0,0.0,-1.996,-2.0401,-2.0975,-2.1029,-2.1029,-2.0989,-2.0842,-2.0067,-1.9105,-1.8102,-1.6943,-1.6233,-1.6567,-1.6714,-1.7141,-1.8237,-1.8905,-1.9092,-1.8448,-1.9733,-2.0494,-2.0013,-2.0855,-2.1697,-2.2285,-2.2178,-2.2258,-2.2752,-2.2753,-2.2632,-2.2632,-2.2753,-2.2752,-2.2928,-2.2928,-2.2928,-2.2928,-2.2928,-2.2928,-2.2928,-2.2928,-2.2928,-2.2928,-2.2928,-2.1932,-2.0355,-2.0488,-1.9565,-1.7989,-1.8116,-1.8019,-1.7669,-1.7627,-1.7397,-1.6977,-1.5325,-1.4509,-1.3894,-1.2315,-1.1545,-1.1289,-1.1844,-1.1675,-1.1305,-1.1305,-1.102,-1.0717,-1.0717,-1.0717,-1.0717,-1.0717,-1.0717,-1.0717,-1.0717,-1.0717,-1.0717,-1.0717,-1.0717,-1.0717,-1.0717,-1.0717,-1.0717,-1.0717,-0.9437,-0.8501,-0.8501,-0.6965,-0.583,-0.583,-0.6097,-0.6231,-0.5897,-0.4492,-0.3488,-0.322,-0.1478,-0.0471,-0.0471,-0.0202,0.0,0.0,0.0,0.0,0.0,0.0,0.0,0.0,0.0,0.0,0.0,0.0,0.0,-2.0,-2.0441,-2.1109,-2.1109,-2.1109,-2.0788,-1.9559,-1.8838,-1.7969,-1.6326,-1.5418,-1.5003,-1.5284,-1.5471,-1.6099,-1.7756,-1.8397,-1.8798,-1.9074,-2.0174,-2.0802,-2.0521,-2.1256,-2.1884,-2.2164,-2.2071,-2.2164,-2.2605,-2.2632,-2.2699,-2.2928,-2.2928,-2.2928,-2.2928,-2.2928,-2.2928,-2.2928,-2.2928,-2.2928,-2.2859,-2.1872,-2.1459,-2.139,-2.0409,-1.9426,-1.8589,-1.8589,-1.7957,-1.6899,-1.7106,-1.649,-1.5472,-1.5649,-1.5141,-1.4156,-1.3238,-1.2907,-1.2697,-1.1789,-1.1463,-1.1402,-1.1402,-1.1246,-1.1056,-1.1056,-1.1009,-1.0948,-1.0948,-1.0948,-1.0948,-1.0948,-1.0948,-1.0948,-1.0948,-1.0948,-1.0948,-1.0948,-1.0948,-1.0948,-1.0948,-1.0948,-1.0609,-0.9647,-0.8758,-0.7796,-0.677,-0.5136,-0.3976,-0.3976,-0.3154,-0.2934,-0.3897,-0.3222,-0.235,-0.1344,-0.0471,0.0,0.0,0.0,0.0,0.0,0.0,0.0,0.0,0.0,0.0,0.0,0.0,0.0,0.0,0.0,0.0,-2.0214,-2.0588,-2.1109,-2.1109,-2.1109,-2.0561,-1.845,-1.7769,-1.6994,-1.4897,-1.4255,-1.4162,-1.4416,-1.4643,-1.5431,-1.7368,-1.7769,-1.837,-1.984,-2.0494,-2.0922,-2.1176,-2.167,-2.2058,-2.2258,-2.2151,-2.2258,-2.2672,-2.2712,-2.2806,-2.3115,-2.306,-2.306,-2.306,-2.306,-2.2908,-2.241,-2.241,-2.2203,-2.1773,-2.0285,-1.9585,-1.9515,-1.8026,-1.7106,-1.668,-1.668,-1.6252,-1.551,-1.5938,-1.4963,-1.3249,-1.3717,-1.2919,-1.1619,-1.1619,-1.1619,-1.1619,-1.1619,-1.1619,-1.1619,-1.1619,-1.1436,-1.1212,-1.1212,-1.1192,-1.1234,-1.1234,-1.1234,-1.1234,-1.1234,-1.1234,-1.1234,-1.1234,-1.1234,-1.1234,-1.1234,-1.1234,-1.1089,-1.0675,-1.0599,-0.9971,-0.802,-0.7326,-0.6557,-0.5026,-0.3285,-0.21,-0.21,-0.0911,-0.0556,-0.1971,-0.2101,-0.1559,-0.0136,0.0,0.0,0.0,0.0,0.0,0.0,0.0,0.0,0.0,0.0,0.0,0.0,0.0,0.0,0.0,0.0,0.0,-2.0788,-2.1042,-2.1109,-2.1109,-2.1109,-2.0775,-1.9492,-1.8412,-1.7221,-1.5925,-1.483,-1.4416,-1.5471,-1.5638,-1.6157,-1.7729,-1.7555,-1.7809,-1.9296,-1.972,-2.0321,-2.1454,-2.179,-2.2298,-2.3126,-2.2699,-2.2726,-2.3581,-2.3647,-2.3661,-2.3688,-2.3688,-2.3688,-2.3688,-2.3688,-2.2808,-2.0899,-2.0899,-1.9953,-1.8207,-1.799,-1.7927,-1.7927,-1.7709,-1.6752,-1.5078,-1.5078,-1.3906,-1.1938,-1.2415,-1.21,-1.1462,-1.1849,-1.1873,-1.1619,-1.1619,-1.1619,-1.1619,-1.1619,-1.1619,-1.1619,-1.1619,-1.1504,-1.1369,-1.1369,-1.1274,-1.1234,-1.1234,-1.1234,-1.1234,-1.1234,-1.1234,-1.1234,-1.1234,-1.1234,-1.1234,-1.1234,-1.1234,-1.0675,-0.8932,-0.858,-0.7951,-0.5997,-0.4329,-0.3147,-0.3007,-0.1401,-0.0281,-0.0281,-0.007,-0.007,-0.021,-0.0279,-0.021,0.0,0.0,0.0,0.0,0.0,0.0,0.0,0.0,0.0,0.0,0.0,0.0,0.0,0.0,0.0,0.0,0.0,0.0,-1.9533,-2.0307,-2.1109,-2.1109,-2.1109,-2.0615,-1.8731,-1.7929,-1.7048,-1.5164,-1.4416,-1.4229,-1.4696,-1.4776,-1.5204,-1.6486,-1.65,-1.7128,-1.9319,-1.988,-2.0561,-2.1911,-2.2338,-2.2579,-2.2766,-2.1442,-2.0404,-1.9904,-2.0158,-2.0459,-2.0683,-2.1438,-2.1929,-2.1929,-2.0754,-1.9743,-1.8934,-1.8861,-1.8498,-1.7696,-1.6516,-1.6003,-1.6012,-1.4843,-1.389,-1.323,-1.323,-1.2359,-1.1043,-1.1762,-1.1599,-1.0968,-1.1687,-1.1938,-1.1884,-1.1884,-1.1884,-1.1884,-1.1884,-1.1884,-1.187,-1.1775,-1.1708,-1.164,-1.1552,-1.1484,-1.1436,-1.1436,-1.1436,-1.1436,-1.1436,-1.1436,-1.1436,-1.1436,-1.1436,-1.1147,-0.993,-0.9712,-0.9139,-0.7144,-0.6788,-0.6147,-0.4218,-0.3292,-0.2436,-0.122,-0.0431,0.0,0.0,0.0,0.0,0.0,0.0,0.0,0.0,0.0,0.0,0.0,0.0,0.0,0.0,0.0,0.0,0.0,0.0,0.0,0.0,0.0,0.0,0.0,0.0,0.0,-1.8784,-1.9907,-2.1109,-2.1109,-2.0842,-2.0067,-1.805,-1.7315,-1.65,-1.4496,-1.4082,-1.4082,-1.4082,-1.4082,-1.4469,-1.5598,-1.5899,-1.6767,-1.9092,-1.9733,-2.0481,-2.1871,-2.2365,-2.2442,-2.1958,-2.0215,-1.8741,-1.7699,-1.8016,-1.8313,-1.8552,-1.8948,-1.943,-2.0027,-1.8696,-1.7665,-1.7073,-1.7073,-1.6777,-1.6109,-1.4852,-1.4101,-1.3959,-1.2796,-1.2121,-1.1999,-1.2135,-1.1755,-1.1111,-1.1877,-1.1714,-1.1063,-1.183,-1.2101,-1.2135,-1.2135,-1.2135,-1.2135,-1.2135,-1.2135,-1.2047,-1.1932,-1.1898,-1.1877,-1.1782,-1.1687,-1.1619,-1.1619,-1.1619,-1.1619,-1.1619,-1.1619,-1.1476,-1.0887,-1.0743,-1.0233,-0.8271,-0.7833,-0.7255,-0.5301,-0.4939,-0.4358,-0.2401,-0.2037,-0.1602,-0.0219,0.0,0.0,0.0,0.0,0.0,0.0,0.0,0.0,0.0,0.0,0.0,0.0,0.0,0.0,0.0,0.0,0.0,0.0,0.0,0.0,0.0,0.0,0.0,0.0,0.0,0.0281,-1.9118,-2.0214,-2.1109,-2.1109,-2.0241,-1.9122,-1.7862,-1.6687,-1.5511,-1.4335,-1.4082,-1.4082,-1.4082,-1.4082,-1.4469,-1.5598,-1.6072,-1.6794,-1.829,-1.9011,-1.9813,-2.0989,-2.1643,-2.1691,-2.0792,-1.9414,-1.8628,-1.8562,-1.8562,-1.8562,-1.8572,-1.6675,-1.6523,-1.8562,-1.8562,-1.7578,-1.5531,-1.5531,-1.4544,-1.2572,-1.2494,-1.2264,-1.185,-1.2291,-1.2257,-1.1857,-1.2305,-1.2237,-1.1857,-1.2311,-1.2149,-1.1653,-1.2108,-1.2196,-1.2135,-1.2135,-1.2135,-1.2135,-1.2135,-1.2135,-1.2135,-1.2135,-1.2135,-1.2135,-1.2135,-1.185,-1.1619,-1.1619,-1.1619,-1.1619,-1.1619,-1.1619,-1.1109,-0.9213,-0.8703,-0.8194,-0.6242,-0.5808,-0.5229,-0.3342,-0.2909,-0.2328,-0.0365,0.0,0.0,0.0,0.0,0.0,0.0,0.0,0.0,0.0,0.0,0.0,0.0,0.0,0.0,0.0,0.0,0.0,0.0,0.0,0.0,0.0,0.0,0.0,0.0,0.0,0.0,0.0,0.0,0.1051,-1.5917,-1.6796,-1.7723,-1.8523,-1.7857,-1.6684,-1.5482,-1.4314,-1.3344,-1.2947,-1.2248,-1.1949,-1.2729,-1.2857,-1.3255,-1.4442,-1.559,-1.6651,-1.7642,-1.8119,-1.8407,-1.8406,-1.8894,-1.8585,-1.699,-1.6499,-1.572,-1.4536,-1.4263,-1.4231,-1.4391,-1.3791,-1.4399,-1.6447,-1.5157,-1.4099,-1.3491,-1.3414,-1.3112,-1.2501,-1.2501,-1.2264,-1.1843,-1.2298,-1.2257,-1.1857,-1.2305,-1.2244,-1.1864,-1.2318,-1.221,-1.1809,-1.2257,-1.2406,-1.2366,-1.2366,-1.2366,-1.2366,-1.2366,-1.2366,-1.2345,-1.225,-1.2216,-1.197,-1.0427,-1.0866,-1.1623,-1.0201,-0.9757,-0.9456,-0.8039,-0.7664,-0.7516,-0.6849,-0.67,-0.6181,-0.425,-0.3803,-0.3209,-0.1271,-0.0897,-0.0747,-0.0075,0.0,0.0,0.0,0.0,0.0,0.0,0.0,0.0,0.0,0.0,0.0,0.0,0.0,0.0,0.0,0.0,0.0,0.0,0.0,0.0,0.0,0.0,0.0,0.0,0.0,0.0648,0.2012,0.2012,0.3016,-1.3434,-1.4447,-1.537,-1.6127,-1.5443,-1.4366,-1.3636,-1.2578,-1.1685,-1.1673,-1.1277,-1.11,-1.1575,-1.185,-1.218,-1.271,-1.4178,-1.5311,-1.5442,-1.6238,-1.6786,-1.6763,-1.67,-1.6324,-1.5337,-1.4592,-1.365,-1.2565,-1.2332,-1.2311,-1.2488,-1.2501,-1.3035,-1.4322,-1.319,-1.2501,-1.2501,-1.2501,-1.2501,-1.2501,-1.2501,-1.2264,-1.1843,-1.2298,-1.2257,-1.1857,-1.2305,-1.2345,0.0,-1.2386,-1.2338,-1.2108,-1.2393,-1.2501,-1.2501,-1.2501,-1.2501,-1.2501,-1.2501,-1.2501,-1.2333,-1.1465,-1.0668,-0.9801,-0.835,-0.8729,-0.9414,-0.8136,-0.7761,-0.7456,-0.6101,-0.5801,-0.565,-0.4901,-0.4675,-0.4148,-0.2192,-0.1815,-0.1438,-0.0227,0.0,0.0,0.0,0.0,0.0,0.0,0.0,0.0,0.0,0.0,0.0,0.0,0.0,0.0,0.0,0.0,0.0,0.0,0.0,0.0,0.0,0.0,0.0,0.0,0.0,0.0,0.0,0.0731,0.1748,0.2909,0.3633,0.5011,0.0,-1.285,-1.3773,-1.3827,-1.3013,-1.2176,-1.2176,-1.1202,0.0,-1.0522,-1.09,-1.1125,-1.0637,-1.1015,-1.1269,-1.0691,-1.2274,-1.3227,-1.2369,-1.3684,-1.4964,-1.5678,-1.5061,-1.4735,-1.5227,-1.3553,-1.2501,-1.2501,-1.2501,-1.2501,-1.2501,-1.2515,-1.2515,-1.2515,-1.2528,-1.2522,-1.2501,-1.2501,-1.2488,-1.2454,-1.2488,-1.225,-1.1796,-1.2284,-1.2257,-1.1857,-1.2305,-1.2501,-1.2501,-1.2501,-1.2501,-1.2501,-1.2501,-1.2501,-1.2501,-1.2501,-1.2501,-1.2501,-1.2347,-1.2269,-1.1953,-0.9842,-0.7734,-0.6098,-0.6098,-0.5925,-0.5817,-0.5666,-0.5591,-0.5591,-0.544,-0.5365,-0.4912,-0.3103,-0.2727,-0.2198,-0.038,0.0,0.0,0.0,0.0,0.0,0.0,0.0,0.0,0.0,0.0,0.0,0.0,0.0,0.0,0.0,0.0,0.0,0.0,0.0,0.0,0.0,0.0,0.0,0.0,0.0,0.0,0.0,0.0,0.0,0.0,0.1982,0.2988,0.3134,0.5098,0.7059,-0.82,0.0,-1.0324,-1.1187,-1.0584,-0.9723,0.0,-0.8783,-0.8333,-0.9699,-0.9389,-0.9068,-0.9853,-1.0493,-1.0854,-1.0833,-1.2651,-1.3702,-1.2655,-1.2371,-1.2277,-1.2331,-1.2677,-1.2846,-1.2907,-1.2671,-1.2501,-1.2501,-1.2501,-1.2501,-1.2501,-1.261,-1.2678,-1.2678,-1.2793,-1.2739,-1.2501,-1.2501,-1.2332,-1.1993,-1.2338,-1.2088,-1.1348,-1.2142,-1.2257,-1.1857,-1.2305,-1.2501,-1.2501,-1.2501,-1.2501,-1.2501,-1.2501,-1.2501,-1.2501,-1.2501,-1.2501,-1.2269,-1.0701,-1.0153,-0.9765,-0.7734,-0.5552,-0.3834,-0.3834,-0.4909,-0.5813,-0.4188,-0.3723,-0.3337,-0.1787,-0.14,-0.1244,-0.0778,-0.07,-0.0545,-0.0078,0.0,0.0,0.0,0.0,0.0,0.0,0.0,0.0,0.0,0.0,0.0,0.0,0.0,0.0,0.0,0.0,0.0,0.0,0.0,0.0,0.0,0.0,0.0,0.0,0.0,0.0,0.0,0.0,0.0,0.0,0.2026,0.3816,0.5304,0.7389,0.9409,-0.7098,-0.7577,-0.8307,-0.9171,-0.8734,-0.8138,-0.8406,-0.7786,-0.7441,-0.8732,-0.8478,-0.8208,-0.8972,-0.9443,-0.9701,-0.9788,-1.0954,-1.1837,-1.176,-1.1428,-1.1206,-1.126,-1.1626,-1.1925,-1.2121,-1.2332,-1.2528,-1.2603,-1.261,-1.2637,-1.2712,-1.2793,-1.2834,-1.2834,-1.2915,-1.2881,-1.2712,-1.2712,-1.2488,-1.2047,-1.2501,-1.2352,-1.1701,-1.24,-1.2583,-1.2352,-1.2386,-1.2522,-1.2698,-1.2488,-1.2528,-1.2712,-1.2712,-1.2076,-1.1197,-1.1197,-1.0561,-0.9524,-0.8335,-0.7307,-0.6356,-0.5167,-0.3421,-0.1673,-0.1673,-0.2468,-0.3178,-0.1965,-0.1646,-0.1411,-0.0314,0.0,0.0,0.0,0.0,0.0,0.0,0.0,0.0,0.0,0.0,0.0,0.0,0.0,0.0,0.0,0.0,0.0,0.0,0.0,0.0,0.0,0.0,0.0,0.0,0.0,0.0,0.0,0.0,0.0,0.0,0.0,0.0,0.0,0.0918,0.1449,0.1449,0.4462,0.6405,0.7531,0.9564,1.1077,-0.7098,-0.7112,-0.7267,-0.7847,-0.7537,-0.7253,-0.7853,-0.7523,-0.7294,-0.7982,-0.8123,-0.8221,-0.8377,-0.8655,-0.8784,-0.8554,-0.903,-0.9652,-1.0588,-1.0914,-1.1069,-1.1362,-1.1491,-1.1694,-1.2108,-1.2352,-1.2589,-1.2718,-1.2752,-1.282,-1.2956,-1.2983,-1.299,-1.299,-1.3017,-1.303,-1.303,-1.2983,-1.2732,-1.2298,-1.2745,-1.2725,-1.2305,-1.2759,-1.2963,-1.2942,-1.2556,-1.261,-1.2929,-1.2549,-1.246,-1.2475,-1.2475,-1.1091,-0.9064,-0.9064,-0.7931,-0.623,-0.5907,-0.4374,-0.2597,-0.2597,-0.1463,0.0,0.0,0.0,0.0,0.0,0.0,0.0,0.0,0.0,0.0,0.0,0.0,0.0,0.0,0.0,0.0,0.0,0.0,0.0,0.0,0.0,0.0,0.0,0.0,0.0,0.0,0.0,0.0,0.0,0.0,0.0,0.0,0.0,0.0,0.0,0.0,0.0,0.0,0.0,0.0157,0.0471,0.2173,0.324,0.3625,0.7385,0.9236,0.9312,1.1214,1.2128,-0.7098,-0.7238,-0.7448,-0.7874,-0.7537,-0.7253,-0.7853,-0.7523,-0.7409,-0.8521,-0.8743,-0.8845,-0.9043,-0.9869,-1.0092,-0.8879,-0.9483,-1.0249,-1.0663,-1.1179,-1.1484,-1.1402,-1.1945,-1.2257,-1.2155,-1.2447,-1.2705,-1.2725,-1.2854,-1.2935,-1.3043,-1.3078,-1.3139,-1.3139,-1.3268,-1.3336,-1.3336,-1.3085,-1.2732,-1.2298,-1.2745,-1.2725,-1.2305,-1.2759,-1.2963,-1.3036,-1.2888,-1.2895,-1.2956,-1.2888,-1.1764,-1.0121,-1.0121,-0.8742,-0.6798,-0.6798,-0.6553,-0.6068,-0.4212,-0.2191,-0.0488,-0.0488,-0.0244,0.0,0.0,0.0,0.0,0.0,0.0,0.0,0.0,0.0,0.0,0.0,0.0,0.0,0.0,0.0,0.0,0.0,0.0,0.0,0.0,0.0,0.0,0.0,0.0,0.0,0.0,0.0,0.0,0.0,0.0,0.0,0.0,0.0,0.0,0.0,0.0,0.0,0.0,0.0,0.0863,0.2584,0.2969,0.3979,0.5851,0.8243,0.9398,0.9398,1.1497,1.2433,-0.7098,-0.7146,-0.7455,-0.8258,-0.7901,-0.7672,-0.8703,-0.8167,-0.7773,-0.9137,-0.8838,-0.8547,-0.9266,-0.9713,-0.989,-0.9605,-1.0439,-1.1111,-1.1084,-1.1389,-1.1653,-1.1742,-1.1979,-1.2149,-1.2182,-1.2515,-1.28,-1.2956,-1.3037,-1.3112,-1.3193,-1.3261,-1.3295,-1.3295,-1.3363,-1.3403,-1.3403,-1.3268,-1.2969,-1.2535,-1.2983,-1.2963,-1.2542,-1.2996,-1.32,-1.3105,-1.1641,-1.1183,-1.1277,-0.9858,-0.8756,-0.7999,-0.7999,-0.668,-0.4539,-0.3306,-0.2893,-0.2727,-0.1738,-0.0828,0.0,0.0,0.0,0.0,0.0,0.0,0.0,0.0,0.0,0.0,0.0,0.0,0.0,0.0,0.0,0.0,0.0,0.0,0.0,0.0,0.0,0.0,0.0,0.0,0.0,0.0,0.0,0.0,0.0,0.0,0.0,0.0,0.0,0.0,0.0,0.0,0.0,0.0,0.0,0.0471,0.1646,0.1646,0.2662,0.4771,0.5939,0.6956,0.7972,1.0075,1.1095,1.1095,1.203,1.2501,-0.7098,-0.7125,-0.7395,-0.842,-0.8106,-0.7902,-0.9462,-0.8642,-0.7991,-0.9551,-0.8967,-0.8513,-0.9612,-0.9571,-0.9612,-1.0365,-1.1151,-1.1653,-1.1606,-1.1701,-1.187,-1.2135,-1.2094,-1.2135,-1.2372,-1.2657,-1.2929,-1.3152,-1.3207,-1.3275,-1.3397,-1.3403,-1.3403,-1.3403,-1.3403,-1.3403,-1.3403,-1.3403,-1.3227,-1.2888,-1.3234,-1.322,-1.2901,-1.266,-1.2644,-1.2459,-0.9855,-0.8992,-0.9105,-0.7004,-0.6057,-0.5867,-0.5951,-0.4528,-0.2352,-0.0589,0.0,0.0,0.0,0.0,0.0,0.0,0.0,0.0,0.0,0.0,0.0,0.0,0.0,0.0,0.0,0.0,0.0,0.0,0.0,0.0,0.0,0.0,0.0,0.0,0.0,0.0,0.0,0.0,0.0,0.0,0.0,0.0,0.0,0.0,0.0,0.0,0.0,0.0,0.0,0.0491,0.0813,0.0806,0.0796,0.1739,0.3865,0.3944,0.4968,0.7095,0.8664,0.9756,1.0197,1.1765,1.2535,1.2501,1.2501,1.2501,-0.7098,-0.7244,-0.7475,-0.7928,-0.7591,-0.7591,-0.9415,-0.856,-0.7889,-0.9606,-0.9625,-0.9503,-1.0283,-1.0188,-1.0229,-1.0975,-1.1234,-1.145,-1.2128,-1.2237,-1.2298,-1.2454,-1.2583,-1.2671,-1.2698,-1.2969,-1.3152,-1.3173,-1.3302,-1.339,-1.3403,-1.3403,-1.3403,-1.3403,-1.3403,-1.3403,-1.3403,-1.3403,-1.3383,-1.3356,-1.3383,-1.3383,-1.3273,-1.1203,-1.0294,-1.0211,-0.7936,-0.6937,-0.6951,-0.6766,-0.5435,-0.3524,-0.3608,-0.2268,-0.0253,-0.0084,0.0,0.0,0.0,0.0,0.0,0.0,0.0,0.0,0.0,0.0,0.0,0.0,0.0,0.0,0.0,0.0,0.0,0.0,0.0,0.0,0.0,0.0,0.0,0.0,0.0,0.0,0.0,0.0,0.0,0.0,0.0,0.0,0.0,0.0,0.0,0.0,0.0,0.0,0.0,0.191,0.3131,0.3047,0.3095,0.4122,0.6378,0.6458,0.7424,0.9522,0.9682,1.0673,1.2476,1.2633,1.2637,1.2501,1.2501,1.2501,-0.7098,-0.7251,-0.757,-0.8339,-0.7936,-0.7733,-0.9435,-0.8981,-0.8662,-1.0213,-0.9951,-0.9496,-0.9876,-1.0378,-1.0833,-1.1118,-1.1558,-1.1965,-1.225,-1.2366,-1.2474,-1.2623,-1.2698,-1.28,-1.299,-1.3105,-1.3214,-1.3308,-1.337,-1.3403,-1.3403,-1.3403,-1.3403,-1.3403,-1.3403,-1.2727,-1.1386,-1.1303,-1.0632,-0.9207,-1.0632,-1.0549,-0.9207,-0.8373,-0.7956,-0.7873,-0.5616,-0.4612,-0.453,-0.3107,-0.2016,-0.1262,-0.1262,-0.0757,0.0,0.0,0.0,0.0,0.0,0.0,0.0,0.0,0.0,0.0,0.0,0.0,0.0,0.0,0.0,0.0,0.0,0.0,0.0,0.0,0.0,0.0,0.0,0.0,0.0,0.0,0.0,0.0,0.0,0.0,0.0,0.0,0.0,0.0,0.0,0.0,0.0,0.0,0.0,0.0589,0.2016,0.2843,0.45,0.7323,0.6217,0.6395,0.8572,0.8652,0.9627,1.174,1.182,1.2115,1.2874,1.2874,1.2847,1.2786,1.2786,1.2786,-0.721,-0.7292,-0.759,-0.8499,-0.8079,-0.7875,-0.9517,-0.9245,-0.9062,-1.0503,-1.0453,-1.0086,-1.01,-1.0683,-1.1261,-1.1294,-1.1742,-1.2142,-1.2332,-1.2481,-1.261,-1.2718,-1.2813,-1.2949,-1.3152,-1.3214,-1.3288,-1.3397,-1.3403,-1.3403,-1.3403,-1.2727,-1.2305,-1.2305,-1.1635,-1.0549,-0.904,-0.8957,-0.7873,-0.57,-0.7205,-0.7455,-0.67,-0.5951,-0.57,-0.5533,-0.3274,-0.2268,-0.2184,-0.0673,0.0,0.0,0.0,0.0,0.0,0.0,0.0,0.0,0.0,0.0,0.0,0.0,0.0,0.0,0.0,0.0,0.0,0.0,0.0,0.0,0.0,0.0,0.0,0.0,0.0,0.0,0.0,0.0,0.0,0.0,0.0,0.0,0.0,0.0,0.0,0.0,0.0,0.0,0.0,0.0,0.0,0.0,0.0589,0.1681,0.3274,0.4612,0.67,0.9795,0.924,0.9485,1.0877,1.0958,1.1613,1.3098,1.3098,1.3078,1.303,1.303,1.3003,1.2963,1.2963,1.2963,-0.7373,-0.7373,-0.7516,-0.8119,-0.7936,-0.8038,-0.9613,-0.9239,-0.892,-1.0412,-1.1199,-1.1518,-1.1212,-1.1165,-1.1274,-1.1572,-1.1626,-1.183,-1.242,-1.2637,-1.2732,-1.2732,-1.2996,-1.3173,-1.3173,-1.3315,-1.3397,-1.3397,-1.3314,-1.3321,-1.3321,-1.1214,-0.9961,-0.9961,-0.7873,-0.6703,-0.6703,-0.6703,-0.5533,-0.3358,-0.3358,-0.453,-0.6536,-0.4363,-0.3358,-0.3274,-0.101,0.0,0.0,0.0,0.0,0.0,0.0,0.0,0.0,0.0,0.0,0.0,0.0,0.0,0.0,0.0,0.0,0.0,0.0,0.0,0.0,0.0,0.0,0.0,0.0,0.0,0.0,0.0,0.0,0.0,0.0,0.0,0.0,0.0,0.0,0.0,0.0,0.0,0.0,0.0,0.0,0.0,0.0,0.0,0.0,0.0,0.2017,0.3358,0.3442,0.7455,1.0044,1.0044,1.2139,1.3403,1.3403,1.3403,1.3403,1.3403,1.3403,1.3329,1.3173,1.3173,1.3105,1.2963,1.2963,1.2963,-0.4731,-0.5475,-0.6418,-0.7027,-0.7773,-0.8587,-0.9395,-0.9496,-0.97,-1.0611,-1.1104,-1.1172,-1.0765,-1.1382,-1.1884,-1.1653,-1.1965,-1.2338,-1.2623,-1.2705,-1.2807,-1.3017,-1.3119,-1.3214,-1.3322,-1.1949,-1.1048,-1.1048,-0.9545,-0.8707,-0.8707,-0.804,-0.7702,-0.7702,-0.7007,-0.5936,-0.4414,-0.4359,-0.3263,-0.1032,-0.1032,-0.1371,-0.1956,-0.1276,-0.1025,-0.0946,-0.0258,0.0,0.0,0.0,0.0,0.0,0.0,0.0,0.0,0.0,0.0,0.0,0.0,0.0,0.0,0.0,0.0,0.0,0.0,0.0,0.0,0.0,0.0,0.0,0.0,0.0,0.0,0.0,0.0,0.0,0.0,0.0,0.0,0.0,0.0,0.0,0.0,0.0,0.0,0.0,0.0,0.0,0.0,0.1462,0.2492,0.2492,0.4634,0.66,0.8223,0.9531,1.0846,1.2455,1.3125,1.3403,1.3403,1.3403,1.3403,1.3403,1.3403,1.3376,1.3336,1.3336,1.3308,1.3268,1.3268,1.3268,-0.3673,-0.4321,-0.5137,-0.5781,-0.6349,-0.7009,-0.7545,-0.8273,-0.909,-0.9877,-0.9482,-0.9013,-0.8777,-0.9286,-0.9769,-0.9526,-0.9774,-1.0095,-1.0172,-1.0179,-1.0292,-1.0514,-1.0574,-1.0634,-1.071,-0.9545,-0.8707,-0.8707,-0.7452,-0.67,-0.67,-0.5807,-0.5316,-0.5316,-0.4521,-0.3435,-0.2063,-0.2076,-0.1389,0.0,0.0,0.0,0.0,0.0,0.0,0.0,0.0,0.0,0.0,0.0,0.0,0.0,0.0,0.0,0.0,0.0,0.0,0.0,0.0,0.0,0.0,0.0,0.0,0.0,0.0,0.0,0.0,0.0,0.0,0.0,0.0,0.0,0.0,0.0,0.0,0.0,0.0,0.0,0.0,0.0,0.0,0.0,0.0,0.0,0.0,0.0,0.0,0.0348,0.1303,0.2689,0.3985,0.485,0.7094,0.8994,1.0376,1.126,1.2253,1.3624,1.3627,1.3573,1.3573,1.3464,1.3403,1.3403,1.3403,1.3403,1.3403,1.3403,1.3403,1.3403,1.3403,1.3403,-0.3445,-0.3526,-0.378,-0.4318,-0.4246,-0.4235,-0.4991,-0.6093,-0.7233,-0.8242,-0.7013,-0.5807,-0.5972,-0.5992,-0.6099,-0.6254,-0.6322,-0.6294,-0.6307,-0.6422,-0.6509,-0.6516,-0.6659,-0.67,-0.67,-0.6536,-0.6369,-0.6369,-0.6205,-0.6124,-0.6124,-0.4161,-0.2992,-0.2992,-0.1038,0.0,0.0,0.0,0.0,0.0,0.0,0.0,0.0,0.0,0.0,0.0,0.0,0.0,0.0,0.0,0.0,0.0,0.0,0.0,0.0,0.0,0.0,0.0,0.0,0.0,0.0,0.0,0.0,0.0,0.0,0.0,0.0,0.0,0.0,0.0,0.0,0.0,0.0,0.0,0.0,0.0,0.0,0.0,0.0,0.0,0.0,0.0,0.0,0.0,0.0087,0.0262,0.0523,0.1481,0.3651,0.4084,0.5038,0.7201,0.9453,1.0843,1.0843,1.265,1.3865,1.3865,1.3844,1.3838,1.3838,1.3587,1.3444,1.3444,1.3431,1.3424,1.3424,1.341,1.3403,1.3403,1.3403,1.3403,-0.0812,-0.1585,-0.2465,-0.2682,-0.3561,-0.4606,-0.5477,-0.4409,-0.3907,-0.6022,-0.5924,-0.5619,-0.5952,-0.6112,-0.6257,-0.6332,-0.628,-0.6327,-0.6442,-0.6485,-0.6526,-0.6669,-0.6693,-0.67,-0.67,-0.5114,-0.4027,-0.4027,-0.2456,-0.1448,-0.1448,-0.0947,-0.0693,-0.0693,-0.0263,0.0,0.0,0.0,0.0,0.0,0.0,0.0,0.0,0.0,0.0,0.0,0.0,0.0,0.0,0.0,0.0,0.0,0.0,0.0,0.0,0.0,0.0,0.0,0.0,0.0,0.0,0.0,0.0,0.0,0.0,0.0,0.0,0.0,0.0,0.0,0.0,0.0,0.0,0.0,0.0,0.0,0.0,0.0,0.0,0.0,0.0,0.0,0.0,0.0,0.0624,0.258,0.4353,0.577,0.6302,0.7983,0.9401,0.9847,1.2067,1.3487,1.3487,1.3827,1.4021,1.4021,1.3905,1.3838,1.3838,1.3777,1.3743,1.3743,1.3634,1.358,1.358,1.3458,1.3403,1.3403,1.3403,1.3403,0.0,-0.0504,-0.1043,-0.1153,-0.1731,-0.2445,-0.2948,-0.2058,-0.1492,-0.2753,-0.2891,-0.2881,-0.3093,-0.3212,-0.3245,-0.3266,-0.3301,-0.3337,-0.3378,-0.3399,-0.3418,-0.3523,-0.3524,-0.3524,-0.3524,-0.2436,-0.1685,-0.1694,-0.0682,0.0,0.0,0.0,0.0,0.0,0.0,0.0,0.0,0.0,0.0,0.0,0.0,0.0,0.0,0.0,0.0,0.0,0.0,0.0,0.0,0.0,0.0,0.0,0.0,0.0,0.0,0.0,0.0,0.0,0.0,0.0,0.0,0.0,0.0,0.0,0.0,0.0,0.0,0.0,0.0,0.0,0.0,0.0,0.0,0.0,0.0,0.0,0.0,0.0,0.0,0.0,0.0,0.0,0.0,0.0987,0.2509,0.4919,0.6347,0.7506,0.8664,0.9913,1.1161,1.2325,1.3578,1.4299,1.4299,1.4224,1.4183,1.4183,1.4109,1.4061,1.4061,1.4061,1.3994,1.3759,1.377,1.3729,1.3729,1.3648,1.3614,1.3607,1.3539,1.3512,0.0,0.0,0.0,0.0,0.0,0.0,0.0,0.0,0.0,0.0,0.0,0.0,0.0,0.0,0.0,0.0,0.0,0.0,0.0,0.0,0.0,0.0,0.0,0.0,0.0,0.0,0.0,0.0,0.0,0.0,0.0,0.0,0.0,0.0,0.0,0.0,0.0,0.0,0.0,0.0,0.0,0.0,0.0,0.0,0.0,0.0,0.0,0.0,0.0,0.0,0.0,0.0,0.0,0.0,0.0,0.0,0.0,0.0,0.0,0.0,0.0,0.0,0.0,0.0,0.0,0.0,0.0,0.0,0.0,0.0,0.0,0.0,0.0,0.0,0.0,0.0,0.0,0.0,0.009,0.0538,0.0987,0.1256,0.1256,0.3224,0.5454,0.7413,0.804,0.9019,1.1072,1.1344,1.2059,1.4122,1.4299,1.4299,1.4299,1.4299,1.4299,1.4299,1.4299,1.4299,1.4299,1.4299,1.4177,1.3926,1.3892,1.3878,1.3878,1.3851,1.3838,1.3838,1.3722,1.3668,0.0,0.0,0.0,0.0,0.0,0.0,0.0,0.0,0.0,0.0,0.0,0.0,0.0,0.0,0.0,0.0,0.0,0.0,0.0,0.0,0.0,0.0,0.0,0.0,0.0,0.0,0.0,0.0,0.0,0.0,0.0,0.0,0.0,0.0,0.0,0.0,0.0,0.0,0.0,0.0,0.0,0.0,0.0,0.0,0.0,0.0,0.0,0.0,0.0,0.0,0.0,0.0,0.0,0.0,0.0,0.0,0.0,0.0,0.0,0.0,0.0,0.0,0.0,0.0,0.0,0.0,0.0,0.0,0.0,0.0,0.0,0.0,0.0,0.0,0.0,0.0,0.0,0.0,0.0628,0.2687,0.474,0.6165,0.6165,0.8129,0.9824,1.018,1.1971,1.3489,1.3761,1.385,1.3938,1.4299,1.4299,1.4299,1.4299,1.4299,1.4299,1.4299,1.4299,1.4299,1.4299,1.4299,1.4278,1.4238,1.4109,1.4041,1.4041,1.3905,1.3838,1.3838,1.3824,1.381,0.0,0.0,0.0,0.0,0.0,0.0,0.0,0.0,0.0,0.0,0.0,0.0,0.0,0.0,0.0,0.0,0.0,0.0,0.0,0.0,0.0,0.0,0.0,0.0,0.0,0.0,0.0,0.0,0.0,0.0,0.0,0.0,0.0,0.0,0.0,0.0,0.0,0.0,0.0,0.0,0.0,0.0,0.0,0.0,0.0,0.0,0.0,0.0,0.0,0.0,0.0,0.0,0.0,0.0,0.0,0.0,0.0,0.0,0.0,0.0,0.0,0.0,0.0,0.0,0.0,0.0,0.0,0.0,0.0,0.0,0.0,0.0,0.0,0.0,0.0,0.0,0.0,0.0,0.0269,0.1345,0.349,0.5544,0.6879,0.9108,1.1161,1.2509,1.3584,1.4299,1.4299,1.4299,1.4299,1.4299,1.4299,1.4299,1.4299,1.4299,1.4299,1.4299,1.4299,1.4299,1.4299,1.4299,1.4299,1.4299,1.4231,1.4197,1.4197,1.4129,1.4095,1.4095,1.4014,1.3973,0.0,0.0,0.0,0.0,0.0,0.0,0.0,0.0,0.0,0.0,0.0,0.0,0.0,0.0,0.0,0.0,0.0,0.0,0.0,0.0,0.0,0.0,0.0,0.0,0.0,0.0,0.0,0.0,0.0,0.0,0.0,0.0,0.0,0.0,0.0,0.0,0.0,0.0,0.0,0.0,0.0,0.0,0.0,0.0,0.0,0.0,0.0,0.0,0.0,0.0,0.0,0.0,0.0,0.0,0.0,0.0,0.0,0.0,0.0,0.0,0.0,0.0,0.0,0.0,0.0,0.0,0.0,0.0,0.0,0.0,0.0,0.0,0.018,0.0807,0.0897,0.0718,0.009,0.0987,0.1793,0.1793,0.4204,0.6879,0.8664,1.0446,1.2237,1.4033,1.4299,1.4299,1.4299,1.4299,1.4299,1.4299,1.4299,1.4299,1.4299,1.4299,1.4299,1.4299,1.4299,1.4299,1.4299,1.4299,1.4299,1.4299,1.4299,1.4299,1.4299,1.4299,1.4299,1.4299,1.4183,1.4129,0.0,0.0,0.0,0.0,0.0,0.0,0.0,0.0,0.0,0.0,0.0,0.0,0.0,0.0,0.0,0.0,0.0,0.0,0.0,0.0,0.0,0.0,0.0,0.0,0.0,0.0,0.0,0.0,0.0,0.0,0.0,0.0,0.0,0.0,0.0,0.0,0.0,0.0,0.0,0.0,0.0,0.0,0.0,0.0,0.0,0.0,0.0,0.0,0.0,0.0,0.0,0.0,0.0,0.0,0.0,0.0,0.0,0.0,0.0,0.0,0.0,0.0,0.0,0.0,0.0,0.0,0.0,0.0,0.0,0.0,0.0,0.0,0.0538,0.2866,0.3403,0.2776,0.0538,0.358,0.67,0.67,1.0535,1.3761,1.3938,1.4033,1.4122,1.4299,1.4299,1.4299,1.4299,1.4299,1.4299,1.4299,1.4299,1.4299,1.4299,1.4299,1.4299,1.4299,1.4299,1.4299,1.4299,1.4299,1.4299,1.4299,1.4299,1.4299,1.4299,1.4299,1.4299,1.4299,1.4292,1.4285,0.0,0.0,0.0,0.0,0.0,0.0,0.0,0.0,0.0,0.0,0.0,0.0,0.0,0.0,0.0,0.0,0.0,0.0,0.0,0.0,0.0,0.0,0.0,0.0,0.0,0.0,0.0,0.0,0.0,0.0,0.0,0.0,0.0,0.0,0.0,0.0,0.0,0.0,0.0,0.0,0.0,0.0,0.0,0.0,0.0,0.0,0.0,0.0,0.0,0.0,0.0,0.0,0.0,0.0,0.0,0.0,0.0,0.0,0.0,0.0,0.0,0.0,0.0,0.0,0.0,0.0,0.0,0.0,0.0,0.0359,0.1882,0.233,0.2866,0.5276,0.5811,0.5633,0.474,0.5901,0.7057,0.7057,0.9735,1.1971,1.1971,1.3312,1.4299,1.4299,1.4299,1.4299,1.4299,1.4299,1.4299,1.4299,1.4299,1.4299,1.4299,1.4299,1.4299,1.4299,1.4299,1.4299,1.4299,1.4299,1.4299,1.4299,1.4299,1.4299,1.4299,1.4299,1.4299,1.4299,1.4299,1.4299,0.0,0.0,0.0,0.0,0.0,0.0,0.0,0.0,0.0,0.0,0.0,0.0,0.0,0.0,0.0,0.0,0.0,0.0,0.0,0.0,0.0,0.0,0.0,0.0,0.0,0.0,0.0,0.0,0.0,0.0,0.0,0.0,0.0,0.0,0.0,0.0,0.0,0.0,0.0,0.0,0.0,0.0,0.0,0.0,0.0,0.0,0.0,0.0,0.0,0.0,0.0,0.0,0.0,0.0,0.0,0.0,0.0,0.0,0.0,0.0,0.0,0.0,0.0,0.018,0.0987,0.1166,0.1345,0.215,0.2419,0.2776,0.4383,0.5365,0.6344,0.7951,0.893,0.9557,0.9557,0.8842,0.8308,0.8308,1.0268,1.1876,1.1876,1.3224,1.4299,1.4299,1.4299,1.4299,1.4299,1.4299,1.4299,1.4299,1.4299,1.4299,1.4299,1.4299,1.4299,1.4299,1.4299,1.4299,1.4299,1.4299,1.4299,1.4299,1.4299,1.4299,1.4299,1.4299,1.4299,1.4299,1.4299,1.4299,0.0,0.0,0.0,0.0,0.0,0.0,0.0,0.0,0.0,0.0,0.0,0.0,0.0,0.0,0.0,0.0,0.0,0.0,0.0,0.0,0.0,0.0,0.0,0.0,0.0,0.0,0.0,0.0,0.0,0.0,0.0,0.0,0.0,0.0,0.0,0.0,0.0,0.0,0.0,0.0,0.0,0.0,0.0,0.0,0.0,0.0,0.0,0.0,0.0,0.0,0.0,0.0,0.0,0.0,0.0,0.0,0.009,0.009,0.009,0.018,0.0179,0.0179,0.0179,0.0628,0.2955,0.3669,0.4206,0.6433,0.7057,0.7146,0.7146,0.9019,1.0806,1.0806,1.2597,1.4299,1.4299,1.2414,1.0806,1.0806,1.2686,1.4299,1.4299,1.4299,1.4299,1.4299,1.4299,1.4299,1.4299,1.4299,1.4299,1.4299,1.4299,1.4299,1.4299,1.4299,1.4299,1.4299,1.4299,1.4299,1.4299,1.4299,1.4299,1.4299,1.4299,1.4299,1.4299,1.4299,1.4299,1.4299,1.4299,1.4299,0.0,0.0,0.0,0.0,0.0,0.0,0.0,0.0,0.0,0.0,0.0,0.0,0.0,0.0,0.0,0.0,0.0,0.0,0.0,0.0,0.0,0.0,0.0,0.0,0.0,0.0,0.0,0.0,0.0,0.0,0.0,0.0,0.0,0.0,0.0,0.0,0.0,0.0,0.0,0.0,0.0,0.0,0.0,0.0,0.0,0.0,0.0,0.0,0.0,0.0,0.0,0.0,0.0,0.0,0.0,0.0,0.1076,0.2597,0.2597,0.3759,0.5097,0.5097,0.5097,0.5276,0.5901,0.6165,0.6255,0.6882,0.7057,0.7506,0.9286,1.1522,1.3312,1.3312,1.385,1.4299,1.4299,1.3761,1.3312,1.3312,1.385,1.4299,1.4299,1.4299,1.4299,1.4299,1.4299,1.4299,1.4299,1.4299,1.4299,1.4299,1.4299,1.4299,1.4299,1.4299,1.4299,1.4299,1.4299,1.4299,1.4299,1.4299,1.4299,1.4299,1.4299,1.4299,1.4299,1.4299,1.4299,1.4299,1.4299,1.4299,0.0,0.0,0.0,0.0,0.0,0.0,0.0,0.0,0.0,0.0,0.0,0.0,0.0,0.0,0.0,0.0,0.0,0.0,0.0,0.0,0.0,0.0,0.0,0.0,0.0,0.0,0.0,0.0,0.0,0.0,0.0,0.0,0.0,0.0,0.0,0.0,0.0,0.0,0.0,0.0,0.0,0.0,0.0,0.0,0.0,0.0,0.0,0.0538,0.1524,0.1524,0.0897,0.009,0.1076,0.1524,0.1614,0.2597,0.3848,0.5097,0.5097,0.599,0.7057,0.7057,0.7057,0.7324,0.8308,0.8575,0.8842,0.9824,1.0091,1.0446,1.1876,1.3224,1.4299,1.4299,1.4299,1.4299,1.4299,1.4299,1.4299,1.4299,1.4299,1.4299,1.4299,1.4299,1.4299,1.4299,1.4299,1.4299,1.4299,1.4299,1.4299,1.4299,1.4299,1.4299,1.4299,1.4299,1.4299,1.4299,1.4299,1.4299,1.4299,1.4299,1.4299,1.4299,1.4299,1.4299,1.4299,1.4299,1.4299,1.4299,1.4299,1.4299,0.0,0.0,0.0,0.0,0.0,0.0,0.0269,0.0242,0.0199,0.0,0.0,0.0,0.0,0.0,0.0,0.0,0.0,0.0,0.0,0.0,0.0,0.0,0.0,0.0,0.0,0.0,0.0,0.0,0.0,0.0,0.0,0.0,0.0,0.0,0.0,0.0,0.0,0.0,0.0,0.0,0.0,0.0,0.0,0.0269,0.0359,0.0449,0.0718,0.1971,0.4027,0.4027,0.2687,0.0987,0.3134,0.4027,0.4206,0.6347,0.7239,0.7506,0.7506,0.7681,0.7859,0.7859,0.7859,0.8308,1.0446,1.1072,1.1522,1.3673,1.4299,1.4299,1.4299,1.4299,1.4299,1.4299,1.4299,1.4299,1.4299,1.4299,1.4299,1.4299,1.4299,1.4299,1.4299,1.4299,1.4299,1.4299,1.4299,1.4299,1.4299,1.4299,1.4299,1.4299,1.4299,1.4299,1.4299,1.4299,1.4299,1.4299,1.4299,1.4299,1.4299,1.4299,1.4299,1.4299,1.4299,1.4299,1.4299,1.4299,1.4299,1.4299,1.4299,1.4299,0.0,0.0,0.0,0.0,0.0,0.0,0.1873,0.1589,0.128,0.0249,0.0,0.0,0.0,0.0,0.0,0.0,0.0,0.0,0.0,0.0,0.0,0.0,0.0,0.0,0.0,0.0,0.0,0.0,0.0,0.0,0.0,0.0,0.0,0.0,0.0,0.0,0.0,0.0,0.0,0.0,0.0,0.0,0.009,0.1971,0.2866,0.3045,0.4919,0.5987,0.6433,0.6433,0.6165,0.5722,0.6255,0.6433,0.6433,0.6968,0.8308,1.0002,1.0002,1.125,1.2863,1.2863,1.2863,1.2952,1.3489,1.3584,1.3673,1.421,1.4299,1.4299,1.4299,1.4299,1.4299,1.4299,1.4299,1.4299,1.4299,1.4299,1.4299,1.4299,1.4299,1.4299,1.4299,1.4299,1.4299,1.4299,1.4299,1.4299,1.4299,1.4299,1.4299,1.4299,1.4299,1.4299,1.4299,1.4299,1.4299,1.4299,1.4299,1.4299,1.4299,1.4299,1.4299,1.4299,1.4299,1.4299,1.4299,1.4299,1.4299,1.4299,1.4299,1.4299,0.0,0.0,0.0,0.3884,0.0,0.0,0.0,0.2984,0.2807,0.2149,0.1986,0.1988,0.1964,0.1473,0.1025,0.0969,0.0424,0.0,0.0,0.0,0.0,0.0,0.0,0.0,0.0,0.0,0.0,0.0,0.0,0.0,0.0,0.0,0.0,0.0,0.0,0.0,0.0,0.0,0.0628,0.1793,0.1793,0.2419,0.358,0.4829,0.5365,0.5454,0.6611,0.777,0.893,0.893,0.9646,1.054,0.9375,0.893,0.9019,1.0268,1.1433,1.2503,1.2503,1.3312,1.4299,1.4299,1.4299,1.4299,1.4299,1.4299,1.4299,1.4299,1.4299,1.4299,1.4299,1.4299,1.4299,1.4299,1.4299,1.4299,1.4299,1.4299,1.4299,1.4299,1.4299,1.4299,1.4299,1.4299,1.4299,1.4299,1.4299,1.4299,1.4299,1.4299,1.4299,1.4299,1.4299,1.4299,1.4299,1.4299,1.4299,1.4299,1.4299,1.4299,1.4299,1.4299,1.4299,1.4299,1.4299,1.4299,1.4299,1.4299,1.4299,1.4299,1.4299,1.4299,0.0,0.0,0.0,0.0,0.0,0.4762,0.0,0.0,0.0,0.4029,0.4019,0.4013,0.4059,0.3145,0.2391,0.235,0.1511,0.0875,0.0807,0.0879,0.071,0.0082,0.0,0.0,0.0,0.0,0.0176,0.0627,0.0718,0.0897,0.1345,0.0897,0.0718,0.0718,0.0718,0.0718,0.0718,0.1166,0.233,0.4295,0.4295,0.5276,0.7146,0.7591,0.777,0.7862,0.8308,0.9557,1.1433,1.1433,1.2509,1.4122,1.2148,1.1433,1.161,1.3584,1.4299,1.4299,1.4299,1.4299,1.4299,1.4299,1.4299,1.4299,1.4299,1.4299,1.4299,1.4299,1.4319,1.434,1.434,1.4367,1.4387,1.4387,1.4387,1.4387,1.4387,1.4387,1.4387,1.4387,1.4387,1.4367,1.4312,1.4299,1.4299,1.4299,1.4299,1.4299,1.4299,1.4299,1.4299,1.4299,1.4299,1.4299,1.4299,1.4299,1.4299,1.4299,1.4299,1.4299,1.4299,1.4299,1.4299,1.4299,1.4299,1.4299,1.4299,1.4299,1.4299,1.4299,1.4299,1.4299,0.0,0.0,0.0,0.0,0.7577,0.0,0.6092,0.0,0.5426,0.4226,0.0,0.4051,0.4161,0.0,0.0,0.3628,0.392,0.4046,0.3608,0.3993,0.3287,0.0353,0.0,0.0,0.0,0.0,0.086,0.3036,0.3224,0.4116,0.6168,0.4295,0.3224,0.3224,0.3224,0.3224,0.3224,0.5276,0.6436,0.67,0.67,0.6879,0.7146,0.9286,1.0268,1.0446,1.2509,1.3673,1.385,1.385,1.4033,1.4299,1.4033,1.385,1.3938,1.421,1.4299,1.4299,1.4299,1.4299,1.4299,1.4299,1.4299,1.4299,1.4299,1.4299,1.4299,1.4299,1.4387,1.4489,1.4489,1.459,1.4692,1.4692,1.4692,1.4692,1.4692,1.4692,1.4692,1.4692,1.4692,1.4604,1.4346,1.4299,1.4299,1.4299,1.4299,1.4299,1.4299,1.4299,1.4299,1.4299,1.4299,1.4299,1.4299,1.4299,1.4299,1.4299,1.4299,1.4299,1.4299,1.4299,1.4299,1.4299,1.4299,1.4299,1.4299,1.4299,1.4299,1.4299,1.4299,1.4299,0.0,0.0,0.0,0.0,0.0,0.0,0.8134,0.0,0.7304,0.0,0.0,0.0,0.0,0.0,0.0,0.0,0.4911,0.4558,0.4419,0.4611,0.4316,0.3024,0.2833,0.3006,0.3452,0.3278,0.3711,0.5199,0.5189,0.5615,0.6692,0.6018,0.5633,0.5633,0.5633,0.5633,0.5633,0.6611,0.7773,0.9197,0.9197,0.9913,1.1344,1.2325,1.2774,1.2863,1.385,1.4299,1.4299,1.4299,1.4299,1.4299,1.4299,1.4299,1.4299,1.4299,1.4299,1.4299,1.4299,1.4299,1.4312,1.4394,1.4482,1.4557,1.4557,1.4557,1.4557,1.4557,1.4597,1.4645,1.4645,1.4692,1.474,1.474,1.474,1.474,1.474,1.474,1.474,1.474,1.474,1.4699,1.4577,1.4482,1.4394,1.4312,1.4299,1.4299,1.4299,1.4299,1.4299,1.4299,1.4299,1.4299,1.4299,1.4299,1.4299,1.4299,1.4299,1.4299,1.4299,1.4299,1.4299,1.4299,1.4299,1.4299,1.4299,1.4299,1.4299,1.4299,1.4299,1.4299,1.0039,0.0,0.0,0.0,0.0,0.0,0.0,0.0,0.0,0.0,0.0,0.0,0.0,0.0,0.0,0.0,0.0,0.5856,0.5789,0.5911,0.571,0.5018,0.5017,0.5265,0.5658,0.5609,0.6029,0.7049,0.7183,0.757,0.842,0.8253,0.8129,0.8129,0.8129,0.8129,0.8129,0.8753,0.9913,1.1699,1.1699,1.2597,1.4299,1.4299,1.4299,1.4299,1.4299,1.4299,1.4299,1.4299,1.4299,1.4306,1.434,1.436,1.4353,1.4312,1.4326,1.436,1.436,1.4387,1.4434,1.4543,1.4652,1.474,1.474,1.474,1.474,1.474,1.4767,1.4801,1.4801,1.4835,1.4862,1.4862,1.4862,1.4862,1.4862,1.4862,1.4862,1.4862,1.4862,1.4848,1.4808,1.4672,1.4536,1.4434,1.4421,1.4421,1.4421,1.4421,1.4421,1.4421,1.438,1.436,1.436,1.4326,1.4299,1.4299,1.4299,1.4299,1.4299,1.4299,1.4299,1.4299,1.4299,1.4299,1.4299,1.4299,1.4299,1.4299,1.4299,1.4299,0.0,0.0,0.0,0.9992,0.0,0.0,0.0,0.0,0.8871,0.0,0.0,0.0,0.0,0.0,0.0,0.0,0.0,0.0,0.0,0.8941,0.8142,0.5233,0.5395,0.5584,0.4975,0.5567,0.6795,0.8682,0.9389,1.077,1.3277,1.1586,1.054,1.054,1.054,1.054,1.054,1.2863,1.4122,1.421,1.421,1.421,1.4299,1.4299,1.4299,1.4299,1.4299,1.4299,1.4299,1.4299,1.4299,1.4312,1.4448,1.4502,1.4489,1.4353,1.4387,1.4502,1.4502,1.4604,1.4726,1.4733,1.4733,1.474,1.474,1.474,1.474,1.474,1.4848,1.4964,1.4964,1.5065,1.5167,1.5167,1.5167,1.5167,1.5167,1.5167,1.5167,1.5167,1.5167,1.5126,1.4984,1.4835,1.4733,1.4726,1.4726,1.4726,1.4726,1.4726,1.4726,1.4726,1.459,1.4502,1.4502,1.438,1.4299,1.4299,1.4299,1.4299,1.4299,1.4299,1.4299,1.4299,1.4299,1.4299,1.4299,1.4299,1.4299,1.4299,1.4299,1.4299,1.1755,1.1837,1.1748,1.1396,1.1043,0.0,0.0,0.0,0.0,0.0,0.0,0.0,0.0,0.0,0.0,0.0,0.0,0.0,0.0,0.9218,0.9007,0.7971,0.8184,0.8587,0.8837,0.8919,0.9513,1.0729,1.1018,1.1612,1.2653,1.2689,1.2638,1.2638,1.2904,1.3046,1.3046,1.385,1.4299,1.4299,1.4299,1.4299,1.4299,1.4299,1.4299,1.4299,1.4299,1.4299,1.4306,1.4401,1.4441,1.4455,1.4604,1.4665,1.4658,1.4611,1.4624,1.4665,1.4665,1.476,1.4896,1.4896,1.4957,1.5031,1.5031,1.5031,1.5031,1.5031,1.5072,1.5113,1.5113,1.5147,1.5181,1.5181,1.5181,1.5181,1.5181,1.5181,1.5181,1.5181,1.5181,1.5167,1.512,1.5065,1.4964,1.4767,1.474,1.474,1.474,1.474,1.474,1.474,1.4692,1.4665,1.4665,1.4618,1.455,1.4448,1.4441,1.4401,1.4306,1.4299,1.4299,1.4299,1.4299,1.4299,1.4299,1.4299,1.4299,1.4299,1.4299,1.4299,1.2759,1.284,1.2766,1.2461,1.2162,1.1807,1.1463,0.0,1.0236,0.0,0.0,0.0,0.0,0.0,0.0,0.0,0.0,0.0,0.0,0.9164,0.9245,0.9293,0.9747,1.0168,1.0381,1.0629,1.0907,1.1321,1.1653,1.1945,1.2196,1.3112,1.3627,1.3627,1.4068,1.4299,1.4299,1.4299,1.4299,1.4299,1.4299,1.4299,1.4299,1.4299,1.4299,1.4299,1.4299,1.4326,1.438,1.4475,1.4543,1.4611,1.476,1.4821,1.4814,1.476,1.4774,1.4828,1.4882,1.4964,1.5045,1.5045,1.5106,1.5181,1.5181,1.5181,1.5208,1.5316,1.5269,1.5208,1.5316,1.5262,1.5181,1.5181,1.5181,1.5181,1.5181,1.5181,1.5181,1.5181,1.5181,1.5181,1.5181,1.5181,1.512,1.4923,1.4896,1.4896,1.4896,1.4896,1.4896,1.4896,1.4848,1.4801,1.4746,1.474,1.4699,1.4597,1.459,1.455,1.4462,1.4407,1.4428,1.4536,1.438,1.4353,1.4455,1.4353,1.4299,1.4299,1.4299,1.4299]},{"header":{"parameterUnit":"m.s-1","parameterCategory":1,"la1":30.6,"la2":29.2853,"lo1":-89.7004,"lo2":-87.6739,"dy":0.0162,"dx":0.0183,"nx":112,"ny":82,"refTime":"2023-09-27T18:00:00:Z","depth":0,"parameterNumber":3,"parameterNumberName":"V-component_of_WINDS"},"data":[0.0,0.0,0.0,0.0,0.0,0.0,0.0,0.0,0.0,0.0,0.0,0.0,0.0,0.0,0.0,0.0,0.0,0.0,0.0,0.0,0.0,0.0,0.0,0.0,0.0,0.0,0.0,0.0,0.0,0.0,0.0,0.0,0.0,0.0,0.0,0.0,0.0,0.0,0.0,0.0,0.0,0.0,0.0,0.0,0.0,0.0,0.0,0.0,0.0,0.0,0.0,0.0,0.0,0.0,0.0,0.0,0.0,0.0,0.0,0.0,0.0,0.0,0.0,0.0,0.0,0.0,0.0,0.0,0.0,0.0,0.0,0.0,0.0,0.0,0.0,0.0,0.0,0.0,0.0,0.0,0.0,0.0,0.0,0.0,0.0,0.0,0.0,0.0,0.0,0.0,2.8579,3.3241,3.5359,3.6437,3.6519,3.7378,3.6405,3.2925,0.0,0.0,0.0,0.0,0.0,0.0,0.0,0.0,0.0,0.0,0.0,0.0,0.0,0.0,0.0,0.0,0.0,0.0,0.0,0.0,0.0,0.0,0.0,0.0,0.0,0.0,0.0,0.0,0.0,0.0,0.0,0.0,0.0,0.0,0.0,0.0,0.0,0.0,0.0,0.0,0.0,0.0,0.0,0.0,0.0,0.0,0.0,0.0,0.0,0.0,0.0,0.0,0.0,0.0,0.0,0.0,0.0,0.0,0.0,0.0,0.0,0.0,0.0,0.0,0.0,0.0,0.0,0.0,0.0,0.0,0.0,0.0,0.0,0.0,0.0,0.0,0.0,0.0,0.0,0.0,0.0,0.0,0.0,0.0,0.0,0.0,0.0,0.0,0.0,0.0,0.0,0.0,0.0,0.0,0.0,0.0,0.0,0.0,0.0,0.0,0.0,0.0,0.0,0.0,3.1636,3.4923,3.5955,3.66,3.7039,3.7578,3.6673,3.3761,0.0,0.0,0.0,0.0,0.0,0.0,0.0,0.0,0.0,0.0,0.0,0.0,0.0,0.0,0.0,0.0,0.0,0.0,0.0,0.0,0.0,0.0,0.0,0.0,0.0,0.0,0.0,0.0,0.0,0.0,0.0,0.0,0.0,0.0,0.0,0.0,0.0,0.0,0.0,0.0,0.0,0.0,0.0,0.0,0.0,0.0,0.0,0.0,0.0,0.0,0.0,0.0,0.0,0.0,0.0,0.0,0.0,0.0,0.0,0.0,0.0,0.0,0.0,0.0,0.0,0.0,0.0,0.0,0.0,0.0,0.0,0.0,0.0,0.0,0.0,0.0,0.0,0.0,0.0,0.0,0.0,0.0,0.0,0.0,0.0,0.0,0.0,0.0,0.0,0.0,0.0,0.0,0.0,0.0,0.0,0.0,0.0,0.0,0.0,0.0,0.0,0.0,0.0,3.1119,3.4078,3.5464,3.581,3.6165,3.6741,3.7229,3.6235,3.327,3.355,0.0,0.0,0.0,0.0,0.0,0.0,0.0,0.0,0.0,0.0,0.0,0.0,0.0,0.0,0.0,0.0,0.0,0.0,0.0,0.0,0.0,0.0,0.0,0.0,0.0,0.0,0.0,0.0,0.0,0.0,0.0,0.0,0.0,0.0,0.0,0.0,0.0,0.0,0.0,0.0,0.0,0.0,0.0,0.0,0.0,0.0,0.0,0.0,0.0,0.0,0.0,0.0,0.0,0.0,0.0,0.0,0.0,0.0,0.0,0.0,0.0,0.0,0.0,0.0,0.0,0.0,0.0,0.0,0.0,0.0,0.0,0.0,0.0,0.0,0.0,0.0,0.0,0.0,0.0,0.0,0.0,0.0,0.0,0.0,0.0,0.0,0.0,0.0,0.0,0.0,0.0,0.0,0.0,0.0,0.0,0.0,0.0,0.0,0.0,0.0,0.0,0.0,3.3256,3.5369,3.5916,3.6079,3.6298,3.6706,3.7248,3.6167,3.2893,3.3372,0.0,0.0,0.0,0.0,0.0,0.0,0.0,0.0,0.0,0.0,0.0,0.0,0.0,0.0,0.0,0.0,0.0,0.0,0.0,0.0,0.0,0.0,0.0,0.0,0.0,0.0,0.0,0.0,0.0,0.0,0.0,0.0,0.0,0.0,0.0,0.0,0.0,0.0,0.0,0.0,0.0,0.0,0.0,0.0,0.0,0.0,0.0,0.0,0.0,0.0,0.0,0.0,0.0,0.0,0.0,0.0,0.0,0.0,0.0,0.0,0.0,0.0,0.0,0.0,0.0,0.0,0.0,0.0,0.0,0.0,0.0,0.0,0.0,0.0,0.0,0.0,0.0,0.0,0.0,0.0,0.0,0.0,0.0,0.0,0.0,0.0,0.0,0.0,0.0,0.0,0.0,0.0,0.0,0.0,0.0,0.0,0.0,0.0,0.0,0.0,0.0,0.0,3.302,3.4765,3.6866,3.7488,3.7755,3.779,3.8283,3.7046,3.3457,3.3578,0.0,0.0,0.0,0.0,0.0,0.0,0.0,0.0,0.0,0.0,0.0,0.0,0.0,0.0,0.0,0.0,0.0,0.0,0.0,0.0,0.0,0.0,0.0,0.0,0.0,0.0,0.0,0.0,0.0,0.0,0.0,0.0,0.0,0.0,0.0,0.0,0.0,0.0,0.0,0.0,0.0,0.0,0.0,0.0,0.0,0.0,0.0,0.0,0.0,0.0,0.0,0.0,0.0,0.0,0.0,0.0,0.0,0.0,0.0,0.0,0.0,0.0,0.0,0.0,0.0,0.0,0.0,0.0,0.0,0.0,0.0,0.0,0.0,0.0,0.0,0.0,0.0,0.0,0.0,0.0,0.0,0.0,0.0,0.0,0.0,0.0,0.0,0.0,0.0,0.0,0.0,0.0,0.0,0.0,0.0,0.0,0.0,0.0,0.0,0.0,0.0,0.0,3.3975,3.5897,3.7048,3.736,3.7578,3.7876,3.8082,3.6885,3.3812,0.0,0.0,0.0,0.0,0.0,0.0,0.0,0.0,0.0,0.0,0.0,0.0,0.0,0.0,0.0,0.0,0.0,0.0,0.0,0.0,0.0,0.0,0.0,0.0,0.0,0.0,0.0,0.0,0.0,0.0,0.0,0.0,0.0,0.0,0.0,0.0,0.0,0.0,0.0,0.0,0.0,0.0,0.0,0.0,0.0,0.0,0.0,0.0,0.0,0.0,0.0,0.0,0.0,0.0,0.0,0.0,0.0,0.0,0.0,0.0,0.0,0.0,0.0,0.0,0.0,0.0,0.0,0.0,0.0,0.0,0.0,0.0,0.0,0.0,0.0,0.0,0.0,0.0,0.0,0.0,0.0,0.0,0.0,0.0,0.0,0.0,0.0,0.0,0.0,0.0,0.0,0.0,0.0,0.0,0.0,0.0,0.0,0.0,0.0,0.0,0.0,0.0,3.2477,3.568,3.8031,3.8384,3.8456,3.8582,3.8894,3.8911,3.7523,3.4227,0.0,0.0,0.0,0.0,0.0,0.0,0.0,0.0,0.0,0.0,0.0,0.0,0.0,0.0,0.0,0.0,0.0,0.0,0.0,0.0,0.0,0.0,0.0,0.0,0.0,0.0,0.0,0.0,0.0,0.0,0.0,0.0,0.0,0.0,0.0,0.0,0.0,0.0,0.0,0.0,0.0,0.0,0.0,0.0,0.0,0.0,0.0,0.0,0.0,0.0,0.0,0.0,0.0,0.0,0.0,0.0,0.0,0.0,0.0,0.0,0.0,0.0,0.0,0.0,0.0,0.0,0.0,0.0,0.0,0.0,0.0,0.0,0.0,0.0,0.0,0.0,0.0,0.0,0.0,0.0,0.0,0.0,0.0,0.0,0.0,0.0,0.0,0.0,0.0,0.0,0.0,0.0,0.0,0.0,0.0,0.0,0.0,0.0,0.0,0.0,0.0,0.0,3.3887,3.8092,4.1095,4.1095,4.1095,4.1095,4.1095,4.1095,3.9207,0.0,0.0,0.0,0.0,0.0,0.0,0.0,0.0,0.0,0.0,0.0,0.0,0.0,0.0,0.0,0.0,0.0,0.0,0.0,0.0,0.0,0.0,0.0,0.0,0.0,0.0,0.0,0.0,0.0,0.0,0.0,0.0,0.0,0.0,0.0,0.0,0.0,0.0,0.0,0.0,0.0,0.0,0.0,0.0,0.0,0.0,0.0,0.0,0.0,0.0,0.0,0.0,0.0,0.0,0.0,0.0,0.0,0.0,0.0,0.0,0.0,0.0,0.0,0.0,0.0,0.0,0.0,0.0,0.0,0.0,0.0,0.0,0.0,0.0,0.0,0.0,0.0,0.0,0.0,0.0,0.0,0.0,0.0,0.0,0.0,0.0,0.0,0.0,0.0,0.0,0.0,0.0,0.0,0.0,0.0,0.0,0.0,0.0,0.0,0.0,0.0,0.0,0.0,3.4638,3.8094,4.0702,4.1062,4.1095,4.1095,4.1095,4.1095,3.9559,3.5989,0.0,0.0,0.0,0.0,0.0,0.0,0.0,0.0,0.0,0.0,0.0,0.0,0.0,0.0,0.0,0.0,0.0,0.0,0.0,0.0,0.0,0.0,0.0,0.0,0.0,0.0,0.0,0.0,0.0,0.0,0.0,0.0,0.0,0.0,0.0,0.0,0.0,0.0,0.0,0.0,0.0,0.0,0.0,0.0,0.0,0.0,0.0,0.0,0.0,0.0,0.0,0.0,0.0,0.0,0.0,0.0,0.0,0.0,0.0,0.0,0.0,0.0,0.0,0.0,0.0,0.0,0.0,0.0,0.0,0.0,0.0,0.0,0.0,0.0,0.0,0.0,0.0,0.0,0.0,0.0,0.0,0.0,0.0,0.0,0.0,0.0,0.0,0.0,0.0,0.0,0.0,0.0,0.0,0.0,0.0,0.0,0.0,0.0,0.0,0.0,0.0,0.0,3.5421,3.9048,4.1719,4.2032,4.2066,4.2066,4.2066,4.2066,4.0818,3.7918,0.0,0.0,0.0,0.0,0.0,0.0,0.0,0.0,0.0,0.0,0.0,0.0,0.0,0.0,0.0,0.0,0.0,0.0,0.0,0.0,0.0,0.0,0.0,0.0,0.0,0.0,0.0,0.0,0.0,0.0,0.0,0.0,0.0,0.0,0.0,0.0,0.0,0.0,0.0,0.0,0.0,0.0,0.0,0.0,0.0,0.0,0.0,0.0,0.0,0.0,0.0,0.0,0.0,0.0,0.0,0.0,0.0,0.0,0.0,0.0,0.0,0.0,0.0,0.0,0.0,0.0,0.0,0.0,0.0,0.0,0.0,0.0,0.0,0.0,0.0,0.0,0.0,0.0,0.0,0.0,0.0,0.0,0.0,0.0,0.0,0.0,0.0,0.0,0.0,0.0,0.0,0.0,0.0,0.0,0.0,0.0,0.0,0.0,0.0,0.0,0.0,0.0,3.6292,4.0507,4.3515,4.3515,4.3515,4.3515,4.3515,4.3515,4.2523,4.0157,0.0,0.0,0.0,0.0,0.0,0.0,0.0,0.0,0.0,0.0,0.0,0.0,0.0,0.0,0.0,0.0,0.0,0.0,0.0,0.0,0.0,0.0,0.0,0.0,0.0,0.0,0.0,0.0,0.0,0.0,0.0,0.0,0.0,0.0,0.0,0.0,0.0,0.0,0.0,0.0,0.0,0.0,0.0,0.0,0.0,0.0,0.0,0.0,0.0,0.0,0.0,0.0,0.0,0.0,0.0,0.0,0.0,0.0,0.0,0.0,3.283,3.0387,0.0,0.0,0.0,0.0,0.0,0.0,0.0,0.0,0.0,0.0,0.0,0.0,0.0,0.0,0.0,0.0,0.0,0.0,0.0,0.0,0.0,0.0,0.0,0.0,0.0,0.0,0.0,0.0,0.0,0.0,0.0,0.0,0.0,0.0,0.0,0.0,0.0,0.0,0.0,0.0,3.7093,4.0852,4.3515,4.3515,4.3515,4.3515,4.3515,4.3515,4.2727,4.0965,4.0524,0.0,0.0,0.0,0.0,0.0,0.0,0.0,0.0,0.0,0.0,0.0,0.0,0.0,0.0,0.0,0.0,0.0,0.0,0.0,0.0,0.0,0.0,0.0,0.0,0.0,0.0,0.0,0.0,0.0,0.0,0.0,0.0,0.0,0.0,0.0,0.0,0.0,0.0,0.0,0.0,0.0,0.0,0.0,0.0,0.0,0.0,0.0,0.0,0.0,0.0,0.0,0.0,0.0,0.0,0.0,0.0,0.0,0.0,0.0,3.4014,3.3054,0.0,0.0,0.0,0.0,0.0,0.0,0.0,0.0,0.0,0.0,0.0,0.0,0.0,0.0,0.0,0.0,0.0,0.0,0.0,0.0,0.0,0.0,0.0,0.0,0.0,0.0,0.0,0.0,0.0,0.0,0.0,0.0,0.0,0.0,0.0,0.0,0.0,0.0,0.0,0.0,3.7288,4.0907,4.3515,4.3515,4.3515,4.3515,4.3515,4.3515,4.313,4.2323,4.1552,0.0,0.0,0.0,0.0,0.0,0.0,0.0,0.0,0.0,0.0,0.0,0.0,0.0,0.0,0.0,0.0,0.0,0.0,0.0,0.0,0.0,0.0,0.0,0.0,0.0,0.0,0.0,0.0,0.0,0.0,0.0,0.0,0.0,0.0,0.0,0.0,0.0,0.0,0.0,0.0,0.0,0.0,0.0,0.0,0.0,0.0,0.0,0.0,0.0,0.0,0.0,0.0,0.0,3.5031,3.5277,3.5277,3.5277,3.5202,3.5162,3.5877,3.6417,3.6604,3.4915,0.0,0.0,0.0,0.0,0.0,0.0,0.0,0.0,0.0,0.0,0.0,0.0,0.0,0.0,0.0,0.0,0.0,0.0,0.0,0.0,0.0,0.0,3.3355,3.5825,3.5182,3.4185,3.4873,0.0,0.0,0.0,0.0,0.0,0.0,0.0,0.0,0.0,0.0,0.0,3.7202,4.0887,4.3515,4.3515,4.3515,4.3515,4.3515,4.3515,4.3515,4.3515,4.2249,4.1525,0.0,0.0,0.0,0.0,0.0,0.0,0.0,0.0,0.0,0.0,0.0,0.0,0.0,0.0,0.0,0.0,0.0,0.0,0.0,0.0,0.0,0.0,0.0,0.0,0.0,0.0,0.0,0.0,0.0,0.0,0.0,0.0,2.9976,3.1759,0.0,0.0,0.0,0.0,0.0,0.0,0.0,0.0,0.0,0.0,0.0,0.0,0.0,3.3455,3.353,3.6193,3.7503,3.7562,4.0012,4.1163,4.1163,4.1163,4.1182,4.1066,3.9312,0.0,3.5827,3.633,0.0,0.0,0.0,0.0,0.0,0.0,0.0,0.0,0.0,0.0,0.0,0.0,0.0,0.0,0.0,0.0,0.0,0.0,0.0,0.0,0.0,0.0,3.9029,3.9436,3.7912,3.7012,3.942,3.5854,3.2799,3.4801,3.3719,3.2598,0.0,0.0,0.0,0.0,0.0,0.0,3.6888,4.0752,4.3515,4.3515,4.3515,4.3515,4.3515,4.3515,4.3515,4.3515,4.3294,4.2721,4.1628,4.2932,0.0,0.0,0.0,0.0,0.0,0.0,0.0,0.0,0.0,0.0,0.0,0.0,0.0,0.0,0.0,0.0,0.0,0.0,0.0,0.0,0.0,0.0,0.0,0.0,0.0,0.0,0.0,0.0,0.0,3.0048,3.1512,3.198,3.2099,3.15,0.0,0.0,0.0,0.0,0.0,0.0,0.0,0.0,0.0,3.4939,3.6193,3.6971,3.7336,3.9425,4.046,4.0493,4.2146,4.2929,4.2929,4.2929,4.2929,4.2861,4.1441,4.0306,3.9283,3.8028,3.7078,3.6352,0.0,0.0,0.0,0.0,3.249,3.3327,3.3184,3.4621,3.6477,3.6331,0.0,0.0,0.0,0.0,0.0,0.0,0.0,3.5371,3.6196,3.7618,3.9073,3.991,3.9368,3.9064,4.0573,3.7927,3.578,3.7513,3.6112,3.4493,3.4011,3.4842,0.0,0.0,0.0,3.8978,3.8829,4.1552,4.3515,4.3515,4.3515,4.3515,4.3515,4.3515,4.3515,4.3515,4.366,4.3624,4.3281,4.3956,4.3516,0.0,0.0,0.0,0.0,0.0,0.0,0.0,0.0,0.0,0.0,0.0,0.0,0.0,0.0,0.0,0.0,0.0,0.0,0.0,0.0,0.0,0.0,0.0,0.0,0.0,0.0,0.0,0.0,3.1628,3.2722,3.2844,3.3516,3.3322,0.0,0.0,0.0,0.0,0.0,0.0,3.5136,3.5747,3.6619,3.7777,3.9428,4.0574,4.1264,4.2523,4.3166,4.3166,4.391,4.4282,4.4282,4.4282,4.4282,4.4248,4.3504,4.3166,4.2963,4.0189,3.8748,3.8328,3.7928,3.682,3.5356,3.5057,3.53,3.5738,3.5251,3.6569,3.8362,3.7845,3.7753,3.7787,3.7212,0.0,0.0,0.0,0.0,3.6638,3.7775,3.8482,3.9168,4.0264,4.0538,4.0672,4.1263,3.9629,3.8502,3.9899,3.8461,3.6726,3.5801,3.6901,0.0,3.5256,3.8061,4.0365,4.0271,4.2152,4.3515,4.3515,4.3515,4.3515,4.3515,4.3515,4.3515,4.3515,4.3802,4.4175,4.4599,4.4688,4.4417,4.3731,0.0,0.0,0.0,0.0,0.0,0.0,0.0,0.0,0.0,0.0,0.0,0.0,0.0,0.0,0.0,0.0,0.0,0.0,0.0,0.0,0.0,0.0,0.0,0.0,0.0,0.0,0.0,0.0,0.0,3.6137,3.7072,0.0,0.0,0.0,0.0,3.5867,3.5926,3.6835,3.8831,3.899,4.0254,4.2915,4.3145,4.3578,4.4378,4.5128,4.5534,4.5534,4.6278,4.6616,4.6616,4.6616,4.6616,4.6583,4.5838,4.5534,4.5365,4.3031,4.2083,4.1888,4.0468,3.9868,3.9446,3.6601,3.6928,3.8575,3.7178,3.8149,3.9977,3.9943,3.9005,3.7516,3.5318,3.5115,0.0,0.0,3.6908,3.8542,3.849,4.002,4.1619,4.169,4.1725,4.1874,4.2462,4.0955,3.9904,4.1386,3.9924,3.8615,3.9235,0.0,3.884,3.696,3.8793,4.0271,3.9983,4.2029,4.3515,4.3515,4.3515,4.3515,4.3515,4.3515,4.3515,4.3515,4.3802,4.4175,4.4599,4.4908,4.5194,4.547,4.3885,0.0,0.0,0.0,0.0,0.0,0.0,0.0,0.0,0.0,0.0,0.0,0.0,0.0,0.0,0.0,0.0,0.0,0.0,0.0,0.0,0.0,0.0,0.0,0.0,0.0,0.0,0.0,0.0,3.7361,3.8231,0.0,3.7689,3.8079,3.8307,3.813,3.9767,4.113,4.1856,4.2858,4.385,4.4829,4.5331,4.5737,4.6007,4.6278,4.6413,4.6413,4.7158,4.753,4.753,4.753,4.753,4.7496,4.6718,4.6413,4.6346,4.5534,4.4316,4.2963,4.2422,4.1948,4.1407,4.0324,4.0426,4.1112,4.1008,4.1498,4.2226,4.259,4.2381,4.181,4.0993,4.0923,4.1038,4.0426,4.0856,4.1335,4.0784,4.1194,4.181,4.181,4.181,4.1958,4.2577,4.2145,4.1873,4.272,4.1178,3.9823,4.0056,4.1234,4.1452,3.9407,4.0976,4.237,4.2233,4.2964,4.3515,4.3515,4.3515,4.3515,4.3515,4.3515,4.3597,4.3802,4.4161,4.4535,4.4908,4.5243,4.5466,4.5594,4.5017,4.3085,0.0,0.0,0.0,0.0,0.0,0.0,0.0,0.0,0.0,0.0,0.0,0.0,0.0,0.0,0.0,0.0,0.0,0.0,0.0,0.0,0.0,0.0,0.0,0.0,0.0,3.6189,3.788,3.8256,3.9445,4.0138,3.987,4.053,4.1237,4.1738,4.3513,4.4553,4.4553,4.5534,4.621,4.6447,4.6921,4.7293,4.753,4.753,4.753,4.753,4.8037,4.8274,4.8274,4.8274,4.8003,4.753,4.753,4.7259,4.6819,4.7327,4.6515,4.4897,4.4654,4.4248,4.383,4.3795,4.3773,4.3836,4.3934,4.3827,4.3664,4.4067,4.4201,4.4201,4.4201,4.4201,4.4117,4.3815,4.3736,4.3614,4.3279,4.3176,4.3176,4.3176,4.3176,4.3312,4.3681,4.3121,4.2905,4.4069,4.2756,4.1177,4.0377,4.1365,4.1559,3.9355,4.0195,4.1091,4.1091,4.1789,4.2303,4.2303,4.3001,4.3566,4.3644,4.2827,4.2844,4.4123,4.3928,4.4295,4.5448,4.5036,4.4902,4.5171,4.4325,4.2632,4.0123,0.0,0.0,0.0,0.0,0.0,0.0,0.0,0.0,0.0,0.0,0.0,0.0,0.0,0.0,0.0,0.0,0.0,0.0,0.0,0.0,0.0,0.0,0.0,3.5238,3.7433,3.9255,3.9127,4.1077,4.2717,4.3433,4.4217,4.5258,4.6684,4.6819,4.6819,4.6853,4.6853,4.7158,4.7906,4.7906,4.8277,4.8984,4.9052,4.9086,4.9086,4.9086,4.9086,4.9086,4.9086,4.8274,4.7022,4.8443,4.824,4.6989,4.8443,4.8612,4.7898,4.7153,4.6878,4.683,4.6761,4.6743,4.6639,4.5776,4.5013,4.4387,4.4387,4.4352,4.4352,4.4352,4.4316,4.4426,4.5014,4.5156,4.5276,4.5773,4.5883,4.5883,4.5883,4.5883,4.5883,4.5883,4.4048,4.3094,4.5443,4.4635,4.2854,4.0503,4.0084,3.9276,3.6964,3.6597,0.0,3.6597,3.8652,4.0084,4.0084,4.2119,4.361,4.4026,4.1567,4.1334,4.4472,4.3226,4.357,4.6244,4.4345,4.3624,4.4393,4.1939,4.1862,4.4355,0.0,0.0,0.0,0.0,0.0,0.0,0.0,0.0,0.0,0.0,0.0,0.0,0.0,0.0,0.0,0.0,0.0,0.0,0.0,0.0,0.0,3.9343,4.0881,4.0288,4.0927,4.2038,4.3631,4.4373,4.5042,4.5778,4.6089,4.6346,4.6752,4.7293,4.7834,4.8376,4.7902,4.7936,4.868,4.8714,4.8815,4.9018,5.0067,5.0608,5.0608,5.0608,5.0608,5.0608,5.0608,5.0371,5.0033,5.0439,5.0067,4.9221,4.9627,4.9661,4.9344,4.8581,4.7989,4.7534,4.7511,4.7806,4.807,4.7169,4.7795,4.8915,4.8332,4.8113,4.8004,4.7365,4.7183,4.7094,4.6684,4.6557,4.6449,4.5993,4.5883,4.5883,4.5883,4.5883,4.5883,4.5883,4.5369,4.5112,4.5773,4.5553,4.5039,4.4342,4.4232,4.4011,4.3351,4.324,4.324,4.324,4.3828,4.4232,4.4232,4.3277,4.348,4.5637,4.3505,4.3437,4.659,4.6382,4.6544,4.7549,4.7049,4.6817,4.7048,4.4547,4.3893,0.0,0.0,0.0,0.0,0.0,0.0,0.0,0.0,0.0,0.0,0.0,0.0,0.0,0.0,0.0,0.0,0.0,0.0,0.0,0.0,0.0,0.0,4.1467,4.3498,4.4079,4.391,4.4215,4.5534,4.5974,4.6447,4.7192,4.7259,4.753,4.8139,4.8578,4.9154,4.9898,4.9526,4.9221,4.9018,4.9593,4.9627,4.9018,5.0473,5.1185,5.1185,5.1185,5.1185,5.1185,5.1185,5.0879,5.0338,5.0947,5.0764,5.0146,5.0796,5.1242,5.1347,0.0,0.0,0.0,0.0,4.9826,5.0059,4.9524,4.9971,5.0729,5.0251,5.0105,4.9994,4.9517,4.8857,4.8049,4.6929,4.6104,4.5553,4.5443,4.5406,4.5663,4.6654,4.6911,4.6911,4.6911,4.6104,4.57,4.6728,4.6104,0.0,4.6728,4.5516,4.4048,4.3057,4.2873,4.2873,4.2873,4.3754,4.4466,4.4633,4.4297,4.4851,4.6803,4.4616,0.0,0.0,0.0,4.671,4.7038,4.7394,0.0,0.0,0.0,4.4586,4.6124,4.4693,0.0,0.0,4.4049,4.3268,0.0,0.0,0.0,0.0,0.0,0.0,0.0,0.0,0.0,0.0,0.0,0.0,0.0,0.0,0.0,0.0,4.3857,4.5377,4.6646,4.6312,4.5974,4.5974,4.6515,4.7225,4.7939,4.8075,4.8714,4.9999,5.0168,5.0541,5.1285,5.1183,0.0,0.0,0.0,5.0574,4.9255,5.0744,5.1455,5.1455,5.1455,5.1486,5.1583,5.1583,5.09,4.9835,5.1131,5.1291,5.0717,5.2074,5.3022,5.3416,5.1227,5.0706,5.1256,5.1754,5.1958,5.2004,5.1883,0.0,0.0,5.0949,5.0949,5.0912,5.0839,4.9774,4.8269,4.6838,4.5406,4.4488,4.5223,4.5388,4.592,4.7976,4.8453,4.8416,4.8343,4.6617,4.5718,4.7902,4.6562,4.581,4.7939,4.5333,4.2249,4.012,3.979,3.979,3.979,4.1675,4.316,4.3558,4.5297,0.0,4.78,4.5375,4.5136,4.8212,4.6762,4.5937,4.6163,4.7009,4.6038,4.3,4.3778,4.5355,4.7625,4.775,4.9025,5.1283,4.654,4.5667,0.0,0.0,0.0,0.0,0.0,0.0,0.0,0.0,0.0,0.0,0.0,0.0,0.0,0.0,0.0,4.3206,4.5419,4.7086,4.684,4.7192,4.7466,4.7466,4.7601,4.8003,4.8714,4.9323,4.9796,5.0067,5.0642,5.1319,5.2063,5.0947,5.0439,5.0777,5.1082,5.105,5.0777,5.23,5.3078,5.3078,5.3078,0.0,5.3939,5.3939,5.4135,5.4413,5.4729,5.4394,5.3745,5.4063,5.426,5.4273,5.3117,5.2328,5.185,5.1267,5.1501,5.1982,5.1261,5.1793,5.2637,5.1977,5.1756,5.1646,5.0986,5.0582,0.0,4.9958,4.9627,4.9407,4.9591,4.9627,4.9591,4.937,4.9353,4.917,4.8453,4.7939,4.7755,4.8233,4.7939,4.7755,4.8233,4.7645,4.6985,4.6507,4.6434,4.6434,4.6434,4.7107,4.764,4.7739,4.6697,4.701,4.9401,4.735,4.7138,5.0038,4.9836,4.9673,4.9711,5.051,5.0615,4.9962,5.0818,5.151,5.1972,5.2111,5.2505,5.3078,5.1452,5.1058,0.0,0.0,0.0,0.0,0.0,0.0,0.0,0.0,0.0,0.0,0.0,4.2369,4.2717,0.0,4.4732,4.5486,4.6865,4.781,4.7886,4.8503,4.8694,4.8,4.8578,4.9154,4.9492,5.0202,5.0811,5.1183,5.1938,5.2516,5.2908,5.2552,5.197,5.1217,5.2313,5.2566,5.1813,5.366,5.4606,5.4606,5.4606,5.4787,5.5144,5.5144,5.535,5.5724,5.5724,5.5735,5.5758,5.616,5.6054,5.5653,5.5216,5.456,5.3745,5.2898,5.2886,5.3126,5.2276,5.2527,5.3151,5.2747,5.2601,5.2527,5.2123,5.1463,5.0618,4.9774,4.8967,4.8453,4.8837,4.8947,4.9187,4.9994,5.0178,5.0068,4.9664,4.9554,4.9554,4.9554,4.9554,4.9595,4.9843,4.9843,4.9584,4.8715,4.8761,4.8898,4.8898,4.9075,4.943,5.007,4.9235,4.9441,5.1469,5.0538,5.0448,5.1856,5.1933,5.1933,5.1933,5.2356,5.2538,5.2538,5.2972,5.3234,5.3288,5.3427,5.3558,5.3681,5.3836,5.3706,0.0,0.0,0.0,0.0,0.0,0.0,0.0,4.4391,4.4851,4.4716,4.5211,4.5716,4.5775,4.588,4.6485,4.7966,4.8467,4.8874,4.9555,5.0103,5.0102,4.9115,4.9641,5.0292,5.0735,5.1296,5.1945,5.2684,5.3325,5.3767,5.3912,5.4359,5.3836,5.2135,5.3856,5.4226,5.3067,5.4803,5.5724,5.5724,5.5724,5.578,5.592,5.592,5.6004,5.6141,5.6141,5.6527,5.7141,5.775,5.7629,5.7042,5.7042,5.6638,5.5941,5.4987,5.462,5.4546,5.3885,5.3555,5.3424,5.3424,5.3335,5.3203,5.3203,5.2307,5.0986,4.9627,4.8306,4.7462,4.8103,4.8287,4.8764,5.0618,5.1022,5.0986,5.0839,5.0845,5.0925,5.0925,5.0966,5.1139,5.1479,5.1578,5.1162,4.9716,4.9799,4.9994,4.9994,5.0066,5.0499,5.1522,5.1634,5.207,5.3105,5.3203,5.3203,5.3203,5.3203,5.3203,5.3203,5.3356,5.3433,5.3433,5.3626,5.3764,5.3886,5.4018,5.4156,5.4331,5.5151,5.5078,4.0223,3.855,3.8469,3.9976,4.2673,4.5035,0.0,4.7908,5.0044,4.9333,4.9793,5.0368,5.0362,5.0852,5.0923,4.9917,5.0803,5.1679,5.19,5.2015,5.2253,5.2827,5.1222,5.0891,5.2936,5.32,5.354,5.4303,5.4446,5.4744,5.5437,5.4909,5.4809,5.519,5.5446,5.5475,5.5327,5.5561,5.5724,5.5724,5.5724,5.6059,5.6783,5.6783,5.7116,5.775,5.775,5.7797,5.7867,5.7973,5.796,5.7886,5.7886,5.7813,5.7556,5.6014,5.5464,5.5427,5.5354,5.484,5.4289,5.4289,5.3775,5.3203,5.3203,5.3057,5.2873,5.269,5.2506,5.2396,5.247,5.2506,5.2417,5.1977,5.1867,5.1683,5.0949,5.1063,5.1321,5.1321,5.1628,5.1879,5.1941,5.2219,5.2292,5.1737,5.1669,5.1699,5.1699,5.2037,5.2311,5.2463,5.2778,5.3056,5.3192,5.3203,5.3203,5.3203,5.3203,5.3203,5.3203,5.3933,5.4357,5.4357,5.5049,5.549,5.5614,5.5805,5.5987,5.6118,5.6361,5.5976,4.2381,4.2457,4.3235,4.4734,4.6896,4.8823,4.9266,5.0591,5.1586,5.1246,5.1795,5.2196,5.1741,5.1214,5.0914,5.1165,5.1371,5.1718,5.2209,5.3074,5.3939,5.4743,5.2752,5.171,5.2661,5.3993,5.4534,5.3898,5.5162,5.5872,5.5724,5.5836,5.5872,5.5724,5.6141,5.6394,5.6394,5.6814,5.7054,5.7054,5.7054,5.7216,5.7522,5.7522,5.7703,5.7997,5.7997,5.7997,5.7997,5.7997,5.7997,5.7997,5.7997,5.7997,5.785,5.6712,5.6308,5.6235,5.5757,5.5354,5.5097,5.5097,5.4876,5.4509,5.4032,5.3922,5.3812,5.3335,5.3203,5.3203,5.3203,5.3203,5.3178,5.306,5.3027,5.3049,5.2974,5.3072,5.3207,5.3207,5.3333,5.3535,5.377,5.3922,5.4078,5.4142,5.3314,5.269,5.269,5.2847,5.3146,5.3656,5.4293,5.4664,5.4664,5.4664,5.4664,5.4664,5.4664,5.4664,5.4664,5.5011,5.5203,5.5203,5.5625,5.5891,5.6052,5.6242,5.6656,5.7257,5.7343,5.7422,4.3561,4.4734,4.5905,4.7943,4.9731,5.1215,5.1933,5.2266,5.2404,5.2404,5.2813,5.2959,5.2266,5.1393,5.1157,5.2268,5.2177,5.2394,5.3415,5.4494,5.5353,5.568,5.4201,5.2799,5.189,5.3949,5.516,5.4633,5.6021,5.6721,5.6358,5.6695,5.6721,5.6331,5.6902,5.7191,5.7191,5.7726,5.7997,5.7997,5.7997,5.7997,5.7997,5.7997,5.7997,5.7997,5.7997,5.7997,5.7997,5.7997,5.7997,5.7997,5.7997,5.7997,5.7923,5.7336,5.7152,5.7042,5.6455,5.6124,5.5941,5.5941,5.5757,5.5486,5.4913,5.473,5.462,5.4032,5.3849,5.3891,5.4022,5.4064,5.4149,5.4577,5.4686,5.47,5.4813,5.4919,5.4973,5.4693,5.4745,5.4905,5.5212,5.525,5.5375,5.5671,5.4664,5.3895,5.3895,5.3895,5.4126,5.4741,5.5357,5.5703,5.5703,5.5703,5.5703,5.5703,5.5703,5.5703,5.5703,5.5934,5.6092,5.6097,5.6459,5.671,5.6952,5.7028,5.7477,5.8242,5.8242,5.8594,4.2639,4.2808,4.3059,4.6873,4.9306,5.1036,5.1904,5.2644,5.3182,5.3182,5.3167,5.2959,5.2266,5.2666,5.312,5.3242,5.3877,5.4855,5.6424,5.6703,5.6469,5.5699,5.5552,5.4283,5.1145,5.308,5.5474,5.7684,5.7266,5.7191,5.7867,5.7302,5.7227,5.7927,5.795,5.7973,5.7973,5.7997,5.7997,5.7997,5.7997,5.7997,5.7997,5.7997,5.7997,5.7997,5.7997,5.7997,5.7997,5.7997,5.7997,5.7997,5.7997,5.7997,5.7997,5.796,5.796,5.796,5.7923,5.7409,5.6748,5.6748,5.6235,5.5596,5.5596,5.5537,5.5537,5.5537,5.5537,5.5653,5.61,5.6199,5.6332,5.6794,5.6911,5.6684,5.5837,5.6034,5.6099,5.5246,5.5399,5.5682,5.5692,5.5692,5.5692,5.5703,5.5665,5.5626,5.5626,5.5626,5.5626,5.5665,5.5703,5.5703,5.5703,5.5703,5.5703,5.5703,5.5703,5.5703,5.5703,5.6522,5.7032,5.7163,5.7984,5.8564,5.8811,5.8814,5.8923,5.914,5.914,5.918,4.2853,4.4677,4.7039,4.9234,5.1104,5.2464,5.2747,5.3039,5.3203,5.3203,5.2344,5.1548,5.1286,5.1009,5.1145,5.2236,5.2657,5.3739,5.6418,5.5427,5.5097,5.6969,5.5317,5.4436,5.5464,5.5359,5.5094,5.4855,5.6543,5.7726,5.7997,5.7774,5.8006,5.8781,5.8804,5.9061,5.9612,5.9612,5.9612,5.9612,5.9612,5.9612,5.9612,5.9612,5.9318,5.8804,5.8804,5.851,5.7997,5.7997,5.7997,5.7997,5.7997,5.7997,5.7997,5.7997,5.7997,5.7997,5.7997,5.7813,5.7593,5.7593,5.7409,5.7079,5.6565,5.663,5.6739,5.6203,5.6293,5.6554,5.6732,5.6767,5.6886,5.7286,5.7391,5.7411,5.7416,5.7557,5.7553,5.7285,5.7328,5.7434,5.7434,5.7434,5.7434,5.7434,5.6434,5.5703,5.5703,5.5703,5.5703,5.5703,5.5703,5.5934,5.6522,5.656,5.6819,5.7396,5.7434,5.7434,5.7434,5.7776,5.8023,5.807,5.8542,5.8792,5.8892,5.9047,5.9411,6.0,6.0,6.0312,4.4529,4.6809,4.9349,5.1543,5.2858,5.3702,5.3995,5.4069,5.4069,5.4069,5.3225,5.2234,5.1389,5.1022,5.1206,5.227,5.2674,5.3885,5.6822,5.5904,5.5464,5.6969,5.5317,5.4656,5.6124,5.6124,5.5464,5.4179,5.6235,5.7556,5.7556,5.785,5.851,5.9588,5.9648,5.9905,6.0382,6.0419,6.0419,6.0419,6.0419,6.0419,6.0419,6.0419,5.9648,5.8377,5.9258,5.8841,5.7629,5.851,5.8841,5.8841,5.8547,5.8437,5.84,5.8107,5.8097,5.8216,5.8088,5.7997,5.7997,5.7997,5.8119,5.8128,5.7648,5.779,5.8072,5.7567,5.7614,5.7888,5.805,5.812,5.8228,5.8626,5.8744,5.8732,5.8735,5.8742,5.8627,5.8357,5.8319,5.8319,5.8319,5.8319,5.8319,5.8319,5.7357,5.6626,5.6626,5.6626,5.6626,5.6626,5.6626,5.6857,5.7434,5.7503,5.7785,5.8325,5.8414,5.8431,5.8431,5.8808,5.9068,5.9089,5.9576,5.9841,5.9899,6.0037,6.0351,6.0859,6.0859,6.1172,4.7434,4.8974,4.9988,5.3558,5.4473,5.4656,5.5449,5.5596,5.5537,5.5449,5.5317,5.4494,5.2123,5.227,5.2837,5.302,5.3739,5.506,5.7519,5.7813,5.7226,5.578,5.5647,5.5097,5.3665,5.5611,5.6638,5.5816,5.6528,5.7005,5.7005,5.7703,5.8841,6.0419,6.0456,6.0493,6.0529,6.0529,6.0529,6.0529,6.0529,6.0529,6.0529,6.0529,5.9245,5.7189,5.9465,5.9134,5.7152,5.9465,6.0419,6.0309,5.9551,5.9258,5.9171,5.8447,5.84,5.8727,5.829,5.8088,5.8051,5.8051,5.8354,5.8753,5.8753,5.9047,5.9424,5.9424,5.9441,5.9559,6.0006,6.0132,6.0269,6.0671,6.0781,6.055,5.9742,5.9588,5.9358,5.8588,5.8434,5.8434,5.8434,5.8434,5.8434,5.8434,5.8434,5.8396,5.8319,5.8319,5.8319,5.8319,5.8292,5.8341,5.838,5.849,5.859,5.8629,5.8772,5.8815,5.8815,5.9638,6.0126,6.0258,6.108,6.1577,6.1719,6.1719,6.1719,6.1719,6.1719,6.1719,4.8404,5.1078,5.4085,5.5038,5.528,5.5354,5.5559,5.5596,5.5097,5.3298,5.1463,4.9627,4.7792,4.7131,4.7846,5.0912,5.1573,5.2784,5.5794,5.517,5.473,5.55,5.6124,5.6822,5.757,5.8767,5.8914,5.7483,5.8694,5.9501,5.9501,5.9685,6.0236,6.1263,6.13,6.1594,6.2181,6.2218,6.2218,6.2218,6.2218,6.2218,6.2218,6.2218,6.152,6.0419,6.1043,6.0603,5.9538,6.0162,6.0419,6.0382,6.0162,6.0089,6.01,6.0285,6.0041,5.9628,5.9889,5.9609,5.9028,5.9028,5.9102,5.9212,5.9212,5.9543,5.9916,5.9916,6.0161,6.0482,6.0597,6.0622,6.0647,6.0769,6.0781,6.0742,6.0512,6.0473,6.0396,6.0204,6.0165,6.0165,6.0165,6.0165,6.0165,6.0165,6.0165,5.9704,5.8473,5.8319,5.8319,5.8319,5.8394,5.8711,5.9368,5.9537,5.9873,6.0566,6.061,6.0628,6.0628,6.0963,6.1134,6.1153,6.147,6.1678,6.1719,6.1719,6.1719,6.1719,6.1719,6.1719,5.1463,5.3518,5.5684,5.6051,5.6124,5.5831,5.4803,5.4546,5.3739,5.0949,4.926,4.7719,4.5736,4.5572,4.6764,4.9774,5.0875,5.2307,5.5207,5.5133,5.5133,5.6014,5.6859,5.796,5.9551,6.0456,6.0566,5.9648,5.9758,5.9869,5.9869,6.0236,6.0933,6.2108,6.2144,6.2365,6.278,6.278,6.278,6.278,6.278,6.278,6.278,6.278,6.1998,6.0603,6.1667,6.1263,5.9979,6.1043,6.1579,6.1763,6.1431,6.1404,6.1576,6.1534,6.1318,6.1109,6.1444,6.1353,6.0936,5.9753,5.9526,5.9728,5.9728,6.0021,6.043,6.043,6.061,6.0781,6.0781,6.0781,6.0781,6.0781,6.0781,6.0781,6.0781,6.0781,6.0781,6.0781,6.0781,6.0781,6.0781,6.0781,6.0781,6.0781,6.0856,6.0555,5.9629,5.9436,5.9414,5.9464,5.9571,5.9847,6.0398,6.0567,6.0876,6.1378,6.1424,6.1488,6.1488,6.1566,6.1582,6.1582,6.1677,6.1719,6.1719,6.1719,6.1719,6.1719,6.1719,6.1719,5.4913,5.5647,5.6088,5.6785,5.6969,5.6418,5.4326,5.3497,5.2286,4.915,4.8049,4.7095,4.5223,4.6012,4.7553,4.9463,5.1116,5.2784,5.4568,5.5978,5.6712,5.6528,5.7483,5.8804,6.0419,6.108,6.152,6.1741,6.0493,5.9661,5.9661,6.0346,6.1374,6.2768,6.278,6.278,6.278,6.278,6.278,6.278,6.278,6.278,6.278,6.278,6.1692,5.9913,6.2009,6.1763,6.0052,6.2129,6.3308,6.3627,6.2939,6.2911,6.3199,6.2554,6.2525,6.275,6.2848,6.3075,6.2913,6.0653,6.0136,6.038,6.038,6.0559,6.0781,6.0781,6.0781,6.0781,6.0781,6.0781,6.0781,6.0781,6.0781,6.0781,6.0781,6.0781,6.0781,6.0781,6.0781,6.0781,6.0781,6.0816,6.085,6.085,6.0964,6.1048,6.1048,6.0935,6.0923,6.1023,6.1073,6.1158,6.1306,6.1471,6.1517,6.1517,6.1634,6.1719,6.1719,6.1719,6.1719,6.1719,6.1719,6.1719,6.1719,6.1719,6.1719,6.1719,6.1719,6.1719,5.484,5.6051,5.7629,5.7776,5.7776,5.7666,5.7262,5.5133,5.2491,4.9904,4.6709,4.4599,4.5516,4.592,4.7095,5.0105,5.194,5.2454,5.0859,5.4216,5.6308,5.4987,5.7299,5.9612,6.1227,6.0933,6.1153,6.2511,6.2303,6.2181,6.2181,6.2303,6.2511,6.278,6.278,6.278,6.278,6.278,6.278,6.278,6.278,6.278,6.278,6.278,6.2804,6.2881,6.329,6.3499,6.3517,6.3968,6.4158,6.4255,6.4105,6.4087,6.4199,6.4453,6.4121,6.3657,6.4101,6.3847,6.3218,6.2759,6.2235,6.1747,6.1747,6.1322,6.0781,6.0781,6.0781,6.0781,6.0781,6.0781,6.0781,6.0781,6.0781,6.0781,6.0781,6.0781,6.0781,6.0781,6.0781,6.0781,6.0781,6.0874,6.0973,6.0973,6.1128,6.1246,6.1246,6.122,6.1207,6.124,6.1359,6.1424,6.1439,6.1584,6.1678,6.1678,6.1679,6.1719,6.1719,6.1719,6.1719,6.1719,6.1719,6.1719,6.1719,6.1719,6.1719,6.1719,6.1719,6.1719,5.495,5.6161,5.7997,5.7997,5.7997,5.7116,5.3739,5.1756,4.937,4.4856,4.2359,4.1222,4.1992,4.2506,4.4232,4.8783,5.0545,5.1646,5.2585,5.5427,5.7152,5.6381,5.84,6.0126,6.0896,6.0639,6.0896,6.2108,6.2181,6.2365,6.278,6.278,6.278,6.278,6.278,6.278,6.278,6.278,6.278,6.2805,6.3073,6.3215,6.3238,6.352,6.3787,6.4036,6.4036,6.3405,6.2522,6.3842,6.3761,6.2931,6.4255,6.4938,6.5199,6.5432,6.5259,6.4942,6.5193,6.5013,6.4666,6.4666,6.3782,6.2704,6.2704,6.2435,6.2089,6.2089,6.2089,6.2089,6.2089,6.2089,6.2089,6.2089,6.2089,6.2089,6.2089,6.2089,6.2089,6.2089,6.2089,6.2148,6.2225,6.2317,6.2366,6.2446,6.2641,6.2765,6.2765,6.2811,6.2509,6.1517,6.1478,6.1517,6.1587,6.1678,6.1719,6.1719,6.1719,6.1719,6.1719,6.1719,6.1719,6.1719,6.1719,6.1719,6.1719,6.1719,6.1719,6.1719,6.1719,6.1719,5.5537,5.6565,5.7997,5.7997,5.7997,5.6492,5.0692,4.882,4.6691,4.0928,3.9166,3.8909,3.9606,4.023,4.2396,4.7719,4.882,5.0472,5.4509,5.6308,5.7483,5.818,5.9538,6.0603,6.1153,6.086,6.1153,6.2291,6.2401,6.2658,6.3294,6.3356,6.3356,6.3356,6.3356,6.3369,6.3505,6.3505,6.3578,6.3685,6.4093,6.431,6.4332,6.4724,6.4973,6.5084,6.5084,6.3702,6.1633,6.4224,6.3856,6.1998,6.4535,6.5695,6.5897,6.5897,6.5897,6.5897,6.5897,6.5897,6.5897,6.5897,6.4859,6.3589,6.3589,6.3474,6.3308,6.3308,6.3308,6.3308,6.3308,6.3308,6.3308,6.3308,6.3308,6.3308,6.3308,6.3308,6.3294,6.3365,6.3338,6.34,6.3598,6.3681,6.3726,6.3865,6.4017,6.4145,6.4145,6.4212,6.3747,6.2273,6.2113,6.2129,6.2265,6.2265,6.2265,6.2265,6.2265,6.2265,6.2265,6.2265,6.2265,6.2265,6.207,6.1992,6.1992,6.1797,6.1719,6.1719,6.1719,6.1719,5.7116,5.7813,5.7997,5.7997,5.7997,5.7079,5.3555,5.0415,4.7315,4.3754,4.0744,3.9606,4.2506,4.3111,4.4543,4.871,4.8233,4.8764,5.2837,5.4179,5.5831,5.8744,5.9869,6.1263,6.3539,6.2365,6.2438,6.4787,6.4971,6.5007,6.5081,6.5081,6.5081,6.5081,6.5081,6.5312,6.5783,6.5783,6.6036,6.6498,6.6557,6.6614,6.6614,6.6672,6.6879,6.7316,6.7316,6.6132,6.4411,6.6984,6.6089,6.3386,6.5936,6.6487,6.5897,6.5897,6.5897,6.5897,6.5897,6.5897,6.5897,6.5897,6.5243,6.4474,6.4474,6.3935,6.3308,6.3308,6.3308,6.3308,6.3308,6.3308,6.3308,6.3308,6.3308,6.3308,6.3308,6.3308,6.3365,6.3555,6.3564,6.3606,6.3742,6.3916,6.4063,6.407,6.4203,6.4296,6.4296,6.4297,6.4219,6.4062,6.4023,6.4062,6.4062,6.4062,6.4062,6.4062,6.4062,6.4062,6.4062,6.4062,6.4062,6.4062,6.3281,6.289,6.289,6.2109,6.1719,6.1719,6.1719,6.1719,5.3665,5.5794,5.7997,5.7997,5.7997,5.6638,5.1463,4.926,4.6838,4.1662,3.9606,3.9093,4.0377,4.0598,4.1772,4.5296,4.5333,4.7058,5.3078,5.462,5.6492,6.0199,6.1374,6.2034,6.2548,6.2271,6.303,6.5357,6.5933,6.6657,6.7651,6.6472,6.5777,6.5777,6.6075,6.6384,6.6579,6.6599,6.6701,6.6918,6.7179,6.7303,6.7341,6.7649,6.789,6.8062,6.8062,6.5882,6.2627,6.6705,6.5782,6.2204,6.6282,6.7705,6.7398,6.7398,6.7398,6.7398,6.7398,6.7398,6.7321,6.6782,6.6397,6.6013,6.5513,6.5128,6.4859,6.4859,6.4859,6.4859,6.4859,6.4859,6.4859,6.4859,6.4859,6.4869,6.4988,6.4981,6.5025,6.5235,6.5273,6.5336,6.545,6.5542,6.5658,6.577,6.5819,6.5859,6.5859,6.5859,6.5859,6.5859,6.4922,6.4297,6.4297,6.4297,6.4297,6.4297,6.4297,6.4297,6.4297,6.4297,6.4297,6.4297,6.3945,6.3789,6.3789,6.3437,6.3242,6.3242,6.3242,6.3242,5.161,5.4693,5.7997,5.7997,5.7262,5.5133,4.9591,4.7572,4.5333,3.9827,3.8689,3.8689,3.8689,3.8689,3.9753,4.3001,4.3681,4.6067,5.2454,5.4216,5.6271,6.0089,6.1447,6.2292,6.2878,6.3869,6.509,6.6635,6.7237,6.8047,6.9237,6.8036,6.7208,6.7074,6.7416,6.7694,6.7846,6.7846,6.7919,6.8081,6.8406,6.8166,6.7477,6.8622,6.8744,6.8052,6.8821,6.6667,6.3012,6.7359,6.6436,6.2743,6.709,6.8629,6.8385,6.8385,6.8385,6.8385,6.8385,6.8385,6.8321,6.7667,6.7475,6.7359,6.6821,6.6282,6.5897,6.5897,6.5897,6.5897,6.5897,6.5897,6.5923,6.5943,6.5967,6.6008,6.6165,6.6179,6.6244,6.6429,6.6457,6.6498,6.6675,6.6687,6.6738,6.6874,6.6914,6.6914,6.6914,6.6914,6.6914,6.6914,6.5781,6.5078,6.5078,6.5078,6.5078,6.5078,6.5078,6.5078,6.5078,6.5078,6.5078,6.5078,6.4805,6.4687,6.4687,6.4414,6.4297,6.4297,6.4297,6.4296,5.2527,5.5537,5.7997,5.7997,5.5611,5.236,4.9077,4.5847,4.2616,3.9386,3.8689,3.8689,3.8689,3.8689,3.9753,4.3001,4.4158,4.614,5.0251,5.2234,5.4436,5.7666,5.9465,6.1895,6.5694,6.7985,6.9217,6.9275,6.9275,6.9275,6.9313,6.9793,6.9829,6.9275,6.9275,6.9531,7.0057,7.0057,7.0308,7.0846,7.086,6.9552,6.7205,6.9706,6.9513,6.7244,6.9783,6.9398,6.7244,6.9821,6.8898,6.609,6.8667,6.9167,6.8385,6.8385,6.8385,6.8385,6.8385,6.8385,6.8385,6.8385,6.8385,6.8385,6.8385,6.7205,6.5897,6.5897,6.5897,6.5897,6.5897,6.5897,6.5946,6.6079,6.6109,6.6135,6.6347,6.6387,6.6435,6.6557,6.6616,6.6678,6.6874,6.6914,6.6914,6.6914,6.6914,6.6914,6.6914,6.6914,6.6914,6.6914,6.6875,6.6875,6.6875,6.6875,6.6875,6.6875,6.6875,6.6875,6.6875,6.6875,6.6875,6.6875,6.6015,6.5586,6.5586,6.4726,6.4297,6.4297,6.4297,6.421,4.7399,4.9658,5.1653,5.1414,5.078,4.9325,4.6103,4.4718,4.314,3.97,3.9144,3.9236,3.9031,3.899,4.0051,4.332,4.4331,4.7021,5.3699,5.5558,5.7722,6.1891,6.3784,6.5622,6.7826,6.8068,6.8773,7.027,6.9329,6.9176,7.034,7.0539,7.0378,6.9847,7.0179,7.0478,7.0637,7.0652,7.0748,7.0898,7.0898,6.9552,6.7167,6.9744,6.9513,6.7244,6.9783,6.9436,6.7282,6.986,6.9244,6.6974,6.9513,7.036,7.0129,7.0129,7.0129,7.0129,7.0129,7.0129,7.0014,6.9475,6.9283,6.9207,6.8745,6.8123,6.7641,6.7752,6.7817,6.782,6.7924,6.7928,6.7945,6.8015,6.803,6.8079,6.8266,6.8292,6.8362,6.8543,6.8549,6.8511,6.8594,6.8633,6.8672,6.8672,6.8633,6.8594,6.8594,6.8594,6.8594,6.8594,6.8594,6.8125,6.6992,6.6914,6.6914,6.6914,6.6914,6.6914,6.6914,6.6914,6.6914,6.6914,6.664,6.6484,6.6484,6.6211,6.6012,6.5868,6.5868,6.579,4.446,4.6887,4.8932,4.8729,4.7884,4.6626,4.4603,4.3328,4.1958,3.9727,4.049,4.1065,3.9552,4.0326,4.1451,4.223,4.4966,4.8377,5.234,5.5485,5.8783,6.2559,6.5159,6.7347,6.918,6.9021,6.9413,7.0808,6.9937,6.9821,7.0821,7.0898,7.0762,7.0394,7.0734,7.0898,7.0898,7.0898,7.0898,7.0898,7.0898,6.9552,6.7167,6.9744,6.9513,6.7244,6.9783,7.0014,0.0,7.0244,6.9975,6.8667,7.0283,7.0898,7.0898,7.0898,7.0898,7.0898,7.0898,7.0898,7.0848,7.04,7.0328,7.0296,6.9893,6.9217,6.8615,6.8739,6.8782,6.8777,6.8871,6.8897,6.8909,6.9006,6.9021,6.9055,6.9262,6.9312,6.936,6.9492,6.9453,6.9414,6.9414,6.9414,6.9453,6.9492,6.9453,6.9414,6.9414,6.9414,6.9453,6.9453,6.9414,6.8984,6.793,6.7851,6.789,6.789,6.7851,6.7851,6.7851,6.7851,6.7851,6.7851,6.7851,6.7734,6.7383,6.6988,6.6735,6.6616,6.6541,6.6452,0.0,4.6337,4.8634,4.8619,4.6332,4.4092,4.4092,4.1806,0.0,3.9966,4.2532,4.3805,4.0582,4.2784,4.3969,4.0608,4.621,5.0241,4.8043,5.3391,5.8386,6.0623,6.4275,6.7512,6.9764,7.0546,7.0898,7.0898,7.0898,7.0898,7.0898,7.0975,7.0975,7.0975,7.1052,7.1014,7.0898,7.0898,7.0821,7.0629,7.0821,6.9475,6.6898,6.9667,6.9513,6.7244,6.9783,7.0898,7.0898,7.0898,7.0898,7.0898,7.0898,7.0898,7.0898,7.0898,7.0898,7.0898,7.0925,7.0939,7.0953,7.1158,7.134,7.1498,7.1498,7.0376,6.9091,6.9104,6.911,6.911,6.9122,6.9128,6.9162,6.9344,6.9399,6.9457,6.9647,6.9687,6.9687,6.9687,6.9687,6.9648,6.9609,6.957,6.9609,6.9687,6.9687,6.9648,6.9609,6.9648,6.9687,6.9687,6.9609,6.957,6.957,6.9531,6.9492,6.9492,6.9453,6.9414,6.9414,6.9414,6.9414,6.9414,6.9453,6.9101,6.8281,6.7275,6.6769,6.6762,6.6641,6.6462,4.1224,0.0,4.2193,4.1932,4.1484,4.1092,0.0,4.0664,4.0958,4.3302,4.4648,4.5073,4.3988,4.6607,4.7967,4.5124,4.914,5.2983,5.4006,5.915,6.2795,6.2705,6.6378,6.8891,6.88,7.0074,7.0898,7.0898,7.0898,7.0898,7.0898,7.1514,7.1898,7.1898,7.2552,7.2245,7.0898,7.0898,6.9937,6.8013,6.9975,6.8552,6.4359,6.8859,6.9513,6.7244,6.9783,7.0898,7.0898,7.0898,7.0898,7.0898,7.0898,7.0898,7.0898,7.0898,7.0898,7.0939,7.1074,7.1115,7.1169,7.134,7.1543,7.1655,7.1655,7.1315,7.0895,7.1009,7.1035,7.1093,7.1227,7.1275,7.1278,7.1324,7.1325,7.1365,7.1406,7.1406,7.1406,7.1406,7.1406,7.1406,7.1406,7.1406,7.1406,7.1406,7.1406,7.1406,7.1406,7.1406,7.1406,7.1406,7.1406,7.1406,7.1406,7.0234,6.9492,6.9492,6.9492,6.9453,6.9414,6.9453,6.9453,6.9414,6.9414,6.9336,6.9101,6.8759,6.8526,6.8349,6.8155,6.8024,4.0516,4.0389,4.0604,4.2018,4.1313,4.0678,4.2258,4.1502,4.1407,4.4662,4.5466,4.5675,4.5889,4.7747,4.8771,4.7318,5.0186,5.3951,5.78,6.1287,6.3551,6.3858,6.5936,6.7628,6.8308,6.9937,7.1052,7.1475,7.1514,7.1668,7.2091,7.2552,7.2783,7.2783,7.3245,7.3053,7.2091,7.2091,7.0821,6.8321,7.0898,7.0052,6.6359,7.0321,7.136,7.0052,7.0244,7.1014,7.2014,7.0821,7.1052,7.2091,7.2091,7.216,7.2223,7.2223,7.2279,7.2344,7.2452,7.2563,7.2652,7.2746,7.2888,7.3028,7.3028,7.2966,7.2782,7.2043,7.1856,7.1861,7.1952,7.1992,7.1992,7.1992,7.1992,7.1992,7.1992,7.1992,7.1992,7.1992,7.1992,7.1992,7.1992,7.1992,7.1992,7.1992,7.1992,7.1992,7.1992,7.1992,7.1992,7.1992,7.1992,7.1992,7.1992,7.1172,7.0664,7.0664,7.0664,7.0625,7.0586,7.0625,7.0625,7.0586,7.015,6.9907,6.9907,6.9231,6.8882,6.8768,6.8594,6.8485,4.0516,4.0593,4.1477,4.4786,4.3017,4.1401,4.4825,4.294,4.1631,4.5556,4.6364,4.6624,4.7509,4.9086,4.9817,4.8509,5.0885,5.4741,6.005,6.1897,6.3178,6.4436,6.5166,6.632,6.8231,7.0052,7.1398,7.2129,7.2322,7.2706,7.3476,7.363,7.3668,7.3668,7.3822,7.3899,7.3899,7.363,7.2206,6.9744,7.2283,7.2168,6.9783,7.236,7.3514,7.3399,7.1206,7.1514,7.3322,7.1168,7.158,7.3559,7.3559,7.3662,7.382,7.382,7.3911,7.3996,7.4022,7.4168,7.4369,7.4369,7.4478,7.4609,7.4609,7.4609,7.4297,7.2812,7.2383,7.2383,7.2226,7.2187,7.2148,7.2031,7.1992,7.1992,7.1992,7.1992,7.1992,7.1992,7.1992,7.1992,7.1992,7.2109,7.2187,7.2187,7.2305,7.2383,7.2383,7.2383,7.2383,7.2383,7.2383,7.2383,7.2383,7.2383,7.2344,7.2226,7.207,7.1992,7.1992,7.1992,7.1992,7.1951,7.1139,7.0668,7.0649,6.9531,6.8994,6.8984,6.8858,6.8783,4.0516,4.1046,4.2239,4.494,4.3017,4.1401,4.4825,4.294,4.2285,4.8634,4.9904,5.0164,5.0962,5.5972,5.7599,5.0356,5.378,5.8127,6.0473,6.3397,6.5128,6.4666,6.7744,6.9513,6.85,7.0591,7.2052,7.2168,7.2899,7.336,7.35,7.4168,7.4514,7.4514,7.5245,7.563,7.563,7.4207,7.2206,6.9744,7.2283,7.2168,6.9783,7.236,7.3514,7.3462,7.3091,7.3129,7.3476,7.3091,7.3241,7.3762,7.3762,7.3859,7.3985,7.3985,7.3968,7.4009,7.4177,7.4382,7.4569,7.4569,7.457,7.4609,7.4609,7.4609,7.4531,7.4297,7.4219,7.4023,7.3281,7.3086,7.289,7.2187,7.1992,7.1992,7.1992,7.1992,7.1992,7.1992,7.1992,7.1992,7.1992,7.2617,7.3086,7.3086,7.3711,7.4219,7.4219,7.4219,7.4219,7.4219,7.4219,7.4219,7.4219,7.4219,7.3906,7.3164,7.2422,7.1992,7.1992,7.1992,7.1909,7.175,7.1579,7.1452,7.1362,7.0968,7.0785,7.0785,7.0593,7.0514,4.0516,4.0785,4.2277,4.7134,4.5094,4.3508,4.9673,4.6317,4.4085,5.1818,5.0125,4.8471,5.2549,5.5088,5.6088,5.4472,5.9204,6.3012,6.2858,6.4589,6.609,6.659,6.7936,6.8898,6.909,7.0975,7.2591,7.3476,7.3937,7.4361,7.4822,7.5207,7.5399,7.5399,7.5784,7.6015,7.6015,7.5245,7.3553,7.1091,7.363,7.3514,7.1129,7.3707,7.4861,7.4798,7.3498,7.3727,7.4898,7.364,7.3976,7.5318,7.5318,7.5408,7.5567,7.5709,7.5726,7.5732,7.5839,7.5933,7.6015,7.6015,7.6015,7.6015,7.6015,7.6015,7.6015,7.6015,7.5312,7.4492,7.4101,7.3984,7.3906,7.3515,7.3398,7.3398,7.3398,7.3398,7.3398,7.3398,7.3398,7.3398,7.3398,7.375,7.3984,7.3984,7.4336,7.4609,7.4609,7.4609,7.4609,7.4609,7.4609,7.4609,7.4609,7.4609,7.4219,7.3359,7.2461,7.1951,7.1856,7.1856,7.1747,7.1599,7.1472,7.142,7.1353,7.1126,7.1053,7.1053,7.094,7.0898,4.0516,4.0669,4.2209,4.8057,4.597,4.4816,5.3664,4.9009,4.5316,5.4164,5.0856,4.8279,5.4511,5.428,5.4511,5.8781,6.3243,6.609,6.582,6.6359,6.7321,6.8821,6.859,6.8821,7.0167,7.1783,7.3322,7.4591,7.4899,7.5284,7.5976,7.6015,7.6015,7.6015,7.6015,7.6015,7.6015,7.6015,7.5014,7.3091,7.5053,7.4976,7.3168,7.5152,7.6066,7.5977,7.4231,7.4577,7.6216,7.4437,7.4872,7.669,7.6683,7.678,7.6995,7.7146,7.7187,7.7187,7.7187,7.7187,7.7187,7.7187,7.7187,7.7187,7.7187,7.7187,7.7187,7.7187,7.625,7.5156,7.4961,7.4883,7.4844,7.4648,7.4609,7.4609,7.4609,7.4609,7.4609,7.4609,7.4609,7.4609,7.4609,7.4765,7.4883,7.4883,7.5078,7.5195,7.5195,7.5195,7.5195,7.5195,7.5195,7.5195,7.5195,7.4998,7.4566,7.3863,7.3003,7.244,7.224,7.2236,7.2173,7.2034,7.1862,7.1683,7.1424,7.1262,7.1091,7.0898,7.0898,7.0898,4.0516,4.1085,4.2393,4.5248,4.3324,4.3324,5.3395,4.8548,4.4739,5.4829,5.4587,5.3895,5.8319,5.778,5.8011,6.2243,6.3308,6.4936,6.8783,6.9398,6.9744,7.0629,7.136,7.186,7.2014,7.3553,7.4591,7.4707,7.5438,7.5938,7.6015,7.6015,7.6015,7.6015,7.6015,7.6015,7.6015,7.6015,7.5899,7.5745,7.5899,7.5899,7.576,7.6094,7.6261,7.6273,7.6307,7.6404,7.656,7.638,7.6526,7.6872,7.6868,7.6998,7.7187,7.7187,7.7187,7.7187,7.7187,7.7187,7.7187,7.7187,7.7187,7.7187,7.7187,7.7187,7.7187,7.7187,7.7109,7.6836,7.6015,7.582,7.5586,7.4805,7.4609,7.4609,7.4609,7.4609,7.4609,7.4609,7.4609,7.4609,7.4609,7.5273,7.582,7.582,7.6484,7.6992,7.6992,7.6992,7.6992,7.6992,7.6992,7.6992,7.6992,7.6109,7.5482,7.5446,7.4623,7.4026,7.3826,7.3819,7.3729,7.3566,7.3545,7.3052,7.2132,7.2105,7.1668,7.0898,7.0898,7.0898,4.0516,4.1123,4.2931,4.7595,4.5009,4.3855,5.351,5.0933,4.9125,5.8292,5.6434,5.3857,5.6011,5.8858,6.1435,6.3051,6.5551,6.7859,6.9475,7.0129,7.0744,7.1591,7.2014,7.2591,7.3668,7.4322,7.4938,7.5476,7.5822,7.6015,7.6015,7.6015,7.6015,7.6015,7.6015,7.6052,7.6185,7.6197,7.6254,7.6361,7.6254,7.6266,7.6361,7.6457,7.6501,7.651,7.6709,7.6775,7.6819,7.6929,7.7005,7.7099,7.7099,7.7145,7.7187,7.7187,7.7187,7.7187,7.7187,7.7187,7.7187,7.7187,7.7187,7.7187,7.7187,7.7187,7.7187,7.7187,7.7187,7.7109,7.6797,7.6719,7.664,7.6289,7.6211,7.6211,7.6211,7.6211,7.6211,7.6211,7.6211,7.6211,7.6211,7.6484,7.6719,7.6719,7.6992,7.7187,7.7187,7.7187,7.7187,7.7187,7.7187,7.7146,7.7005,7.6627,7.6313,7.6054,7.482,7.4021,7.3801,7.3791,7.3749,7.3601,7.3588,7.3381,7.3014,7.3014,7.286,7.2514,7.2514,7.2514,4.0893,4.1354,4.3047,4.8202,4.5817,4.4662,5.3972,5.2433,5.1395,5.9946,5.9281,5.7203,5.728,6.0589,6.3462,6.4051,6.659,6.8859,6.9937,7.0783,7.1514,7.2129,7.2668,7.3437,7.4591,7.4938,7.5361,7.5976,7.6015,7.6015,7.6015,7.6052,7.6081,7.6081,7.6147,7.6266,7.6381,7.6391,7.651,7.6702,7.6576,7.6552,7.6582,7.6683,7.6702,7.6715,7.6922,7.6998,7.7,7.7145,7.7344,7.7656,7.789,7.8008,7.8008,7.8008,7.8008,7.8008,7.8008,7.8008,7.8008,7.8008,7.8008,7.8008,7.8008,7.8008,7.8008,7.8008,7.8008,7.8008,7.8008,7.7617,7.7187,7.7187,7.7187,7.7187,7.7187,7.7187,7.7187,7.7187,7.7187,7.7187,7.7187,7.7187,7.7187,7.7187,7.7187,7.7187,7.7187,7.7187,7.7187,7.7187,7.7146,7.7052,7.6922,7.6775,7.6582,7.6327,7.5255,7.4555,7.4444,7.4432,7.4372,7.4284,7.4284,7.4168,7.3899,7.3899,7.3745,7.3514,7.3514,7.3514,4.1816,4.1816,4.2624,4.6047,4.5009,4.5586,5.4867,5.2395,5.0587,5.905,6.3512,6.532,6.3589,6.332,6.3935,6.5628,6.5936,6.709,7.0437,7.1668,7.2206,7.2206,7.3707,7.4707,7.4707,7.5515,7.5976,7.5976,7.5991,7.6029,7.6029,7.6171,7.6306,7.6306,7.651,7.6621,7.6621,7.6621,7.6715,7.6919,7.6919,7.6819,7.6636,7.6829,7.6919,7.6922,7.7142,7.7226,7.7226,7.7226,7.7734,7.8594,7.9375,7.9687,7.9687,7.9687,7.9687,7.9687,7.9687,7.9687,7.9687,7.9687,7.9687,7.9687,7.9687,7.9687,7.9687,7.9687,7.9687,7.9687,7.9687,7.8476,7.7226,7.7226,7.7226,7.7226,7.7226,7.7226,7.7226,7.7226,7.7226,7.7226,7.7226,7.7226,7.7226,7.7226,7.7226,7.7226,7.7226,7.7226,7.7226,7.7226,7.7044,7.6919,7.6915,7.6552,7.6295,7.6295,7.6108,7.6015,7.6015,7.6015,7.6015,7.6015,7.6015,7.5592,7.4707,7.4707,7.4322,7.3514,7.3514,7.3514,4.4083,4.38,4.3593,4.7017,4.773,4.8702,5.328,5.3857,5.5011,6.0562,6.2974,6.3358,6.105,6.4551,6.7398,6.609,6.7859,6.9975,7.1591,7.2052,7.2629,7.3822,7.4399,7.4938,7.5553,7.598,7.6195,7.6195,7.6359,7.6419,7.6419,7.6493,7.6488,7.6488,7.7182,7.7586,7.7726,7.8277,7.8682,7.886,7.886,7.8543,7.7944,7.7997,7.8313,7.8861,7.8945,7.8945,7.8945,7.8945,7.9101,7.9375,7.9609,7.9687,7.9687,7.9687,7.9687,7.9687,7.9687,7.9687,7.9687,7.9687,7.9687,7.9687,7.9687,7.9687,7.9687,7.9687,7.9687,7.9687,7.9687,7.9336,7.8945,7.8945,7.8945,7.8945,7.8945,7.8945,7.8945,7.8945,7.8945,7.8945,7.8945,7.8945,7.8945,7.8945,7.8945,7.8945,7.8945,7.8814,7.8749,7.8749,7.8574,7.8394,7.8241,7.762,7.7171,7.7007,7.638,7.6015,7.6015,7.6015,7.6015,7.6015,7.6015,7.5861,7.563,7.563,7.5476,7.5245,7.5245,7.5245,4.6025,4.593,4.6435,5.1237,5.1249,5.1084,5.4992,5.6625,5.8635,6.3257,6.4897,6.5161,6.3971,6.7134,6.9512,6.8323,7.0103,7.1833,7.2375,7.3005,7.3817,7.4811,7.5237,7.5662,7.6204,7.6359,7.6419,7.6419,7.6513,7.6582,7.6582,7.7008,7.7239,7.7239,7.8111,7.8675,7.8801,7.927,7.9597,7.9687,7.9687,7.9648,7.9492,7.914,7.9258,7.9687,7.9687,7.9687,7.9726,8.0078,8.0234,8.0234,8.0586,8.0742,8.0742,8.0742,8.0742,8.0742,8.0742,8.0742,8.0742,8.0742,8.0742,8.0742,8.0742,8.0742,8.0742,8.0742,8.0742,8.0742,8.0742,8.0742,8.0547,7.9844,7.9687,7.9687,7.9687,7.9687,7.9687,7.9687,7.9687,7.9687,7.9687,7.9687,7.9687,7.9687,7.9687,7.9687,7.9599,7.9486,7.9353,7.9305,7.9096,7.8942,7.8812,7.8256,7.7909,7.7761,7.7284,7.6976,7.6976,7.6361,7.6015,7.6015,7.6015,7.6015,7.6015,7.6015,7.6015,7.6015,7.6015,7.6015,4.7766,4.8152,5.0131,5.6437,5.4718,5.3073,5.9282,6.0514,6.1687,6.6523,6.8156,6.8975,7.0019,7.0253,7.0596,7.1485,7.2263,7.2853,7.3009,7.4332,7.5344,7.5422,7.6115,7.6582,7.6582,7.6636,7.665,7.665,7.6702,7.6748,7.6748,7.7779,7.8341,7.8341,7.929,7.9805,7.9805,7.9883,7.9922,7.9922,7.9922,8.0351,8.1094,8.0234,7.9844,7.9922,7.9922,7.9922,8.0,8.0781,8.1133,8.1211,8.1992,8.2304,8.2304,8.2304,8.2304,8.2304,8.2304,8.2304,8.2304,8.2304,8.2304,8.2304,8.2304,8.2304,8.2304,8.2304,8.2304,8.2304,8.2304,8.2304,8.1914,8.0312,7.9922,7.9922,7.9922,7.9922,7.9922,7.9922,7.9922,7.9922,7.9922,7.9922,7.9922,7.9921,7.9881,7.983,7.9643,7.9583,7.9528,7.9322,7.9125,7.9025,7.9025,7.8756,7.8631,7.8631,7.8515,7.8477,7.8477,7.7053,7.6245,7.6245,7.6169,7.613,7.613,7.6053,7.6015,7.6015,7.6015,7.6015,4.9642,5.0092,5.0174,5.2275,5.3436,5.6179,6.422,6.5085,6.5039,6.7976,6.771,6.7618,6.9786,7.0752,7.1523,7.238,7.2698,7.3243,7.4566,7.5072,7.5539,7.6232,7.6504,7.6582,7.6582,7.6744,7.6847,7.6847,7.7617,7.8072,7.8072,7.89,7.9372,7.9372,8.0234,8.0703,8.0703,8.1406,8.1758,8.1758,8.1758,8.1836,8.1992,8.1133,8.1094,8.1758,8.1758,8.1758,8.1758,8.1953,8.2031,8.2031,8.2226,8.2304,8.2304,8.2304,8.2304,8.2304,8.2304,8.2304,8.2304,8.2304,8.2304,8.2304,8.2304,8.2304,8.2304,8.2304,8.2304,8.2304,8.2304,8.2304,8.2226,8.1836,8.1758,8.1758,8.1758,8.1758,8.1758,8.1758,8.1758,8.1758,8.1758,8.1758,8.1677,8.1522,8.1368,8.124,8.1201,8.1053,8.094,8.0926,8.0744,8.0598,8.0598,7.9946,7.9515,7.9515,7.8861,7.8477,7.8477,7.813,7.7938,7.7938,7.7323,7.7015,7.7015,7.6322,7.6015,7.6015,7.6015,7.6015,4.9492,5.1365,5.3115,5.5613,5.8763,6.2217,6.5871,6.7351,6.8382,7.0063,6.9706,6.9471,7.0831,7.1764,7.2505,7.2974,7.3754,7.4574,7.5471,7.5939,7.6369,7.6833,7.6872,7.6872,7.6872,7.6993,7.7208,7.7638,7.8161,7.8672,7.9062,7.9883,8.0312,8.0312,8.1172,8.1601,8.1601,8.207,8.2304,8.2304,8.2304,8.2304,8.2265,8.1836,8.1875,8.2304,8.2304,8.2304,8.2304,8.2304,8.2304,8.2304,8.2304,8.2304,8.2304,8.2304,8.2304,8.2304,8.2304,8.2304,8.2304,8.2304,8.2304,8.2304,8.2304,8.2304,8.2304,8.2304,8.2304,8.2304,8.2304,8.2304,8.2304,8.2304,8.2304,8.2304,8.2304,8.2304,8.2304,8.2304,8.2304,8.2304,8.2304,8.222,8.211,8.1883,8.1785,8.1687,8.1572,8.1469,8.1347,8.1258,8.1137,8.1093,8.1093,8.0669,8.0439,8.0439,8.0015,7.9746,7.9746,7.9746,7.9361,7.853,7.8092,7.7861,7.7861,7.74,7.7207,7.7169,7.6784,7.663,4.8633,5.2148,5.6562,6.0859,6.4414,6.6758,6.6367,6.8242,7.043,7.1719,7.1992,7.2031,7.2187,7.2812,7.3398,7.3711,7.4961,7.5937,7.6094,7.6758,7.7187,7.7187,7.7187,7.7187,7.7187,7.7344,7.7734,7.8437,7.8789,7.9219,7.9883,8.0742,8.1211,8.1211,8.1914,8.2304,8.2304,8.2304,8.2304,8.2304,8.2304,8.2304,8.2304,8.2304,8.2304,8.2304,8.2304,8.2304,8.2304,8.2304,8.2304,8.2304,8.2304,8.2304,8.2304,8.2304,8.2304,8.2304,8.2304,8.2304,8.2304,8.2304,8.2304,8.2304,8.2304,8.2304,8.2304,8.2304,8.2304,8.2304,8.2304,8.2304,8.2304,8.2304,8.2304,8.2304,8.2304,8.2304,8.2304,8.2264,8.222,8.2217,8.2217,8.2046,8.185,8.1656,8.1636,8.1534,8.1359,8.1361,8.1298,8.1124,8.1093,8.1093,8.1093,8.1093,8.1093,8.1093,8.1093,8.1093,8.1093,8.1093,8.04,7.8977,7.8784,7.8707,7.8707,7.8554,7.8477,7.8477,7.7823,7.7515,4.8476,5.2578,5.7461,6.1758,6.2148,6.2773,6.7812,6.8164,6.8281,7.1367,7.1992,7.2226,7.3008,7.3203,7.3789,7.5312,7.5742,7.6172,7.6914,7.7148,7.7187,7.7187,7.7187,7.7187,7.7187,7.789,7.8359,7.8476,7.9844,8.0703,8.082,8.164,8.2148,8.2148,8.2226,8.2304,8.2304,8.2304,8.2304,8.2304,8.2304,8.2304,8.2304,8.2304,8.2304,8.2304,8.2304,8.2304,8.2304,8.2304,8.2304,8.2304,8.2304,8.2304,8.2304,8.2304,8.2304,8.2304,8.2304,8.2304,8.2304,8.2304,8.2304,8.2304,8.2304,8.2304,8.2304,8.2304,8.2304,8.2304,8.2304,8.2304,8.2304,8.2304,8.2304,8.2304,8.2304,8.2304,8.2263,8.2065,8.1894,8.176,8.176,8.1627,8.148,8.1436,8.1311,8.1152,8.1146,8.1131,8.1116,8.1093,8.1093,8.1093,8.1093,8.1093,8.1093,8.1093,8.1093,8.1093,8.1093,8.1093,8.0977,8.0746,8.0015,7.9631,7.9631,7.8861,7.8477,7.8477,7.84,7.8323,5.0859,5.3789,5.6758,6.3515,6.3125,6.2578,6.8164,6.8515,6.8476,7.1406,7.2383,7.2851,7.3242,7.4101,7.5,7.5781,7.6328,7.6758,7.7148,7.7187,7.7187,7.7187,7.7187,7.7383,7.789,7.8281,7.8906,7.9844,8.0586,8.1211,8.1719,8.2109,8.2304,8.2304,8.2304,8.2304,8.2304,8.2304,8.2304,8.2304,8.2304,8.2304,8.2304,8.2304,8.2304,8.2304,8.2304,8.2304,8.2304,8.2304,8.2304,8.2304,8.2304,8.2304,8.2304,8.2304,8.2304,8.2304,8.2304,8.2304,8.2304,8.2304,8.2304,8.2304,8.2304,8.2304,8.2304,8.2304,8.2304,8.2304,8.2304,8.2304,8.2304,8.2304,8.2304,8.2304,8.2304,8.2304,8.2265,8.2176,8.1996,8.1844,8.1703,8.1524,8.1347,8.1269,8.1176,8.1093,8.1093,8.1093,8.1093,8.1093,8.1093,8.1093,8.1093,8.1093,8.1093,8.1093,8.1093,8.1093,8.1093,8.1093,8.1093,8.1093,8.0708,8.0516,8.0516,8.0131,7.9939,7.9939,7.9477,7.9246,5.1797,5.3516,5.4883,6.2656,6.25,6.164,6.6367,6.7305,6.793,7.0508,7.2422,7.3633,7.3633,7.4883,7.5976,7.6172,7.6797,7.7187,7.7187,7.7187,7.7187,7.7187,7.7383,7.7773,7.8437,7.8906,7.9648,8.0898,8.1211,8.1601,8.2265,8.2304,8.2304,8.2304,8.2304,8.2304,8.2304,8.2304,8.2304,8.2304,8.2304,8.2304,8.2304,8.2304,8.2304,8.2304,8.2304,8.2304,8.2304,8.2304,8.2304,8.2304,8.2304,8.2304,8.2304,8.2304,8.2304,8.2304,8.2304,8.2304,8.2304,8.2304,8.2304,8.2304,8.2304,8.2304,8.2304,8.2304,8.2304,8.2304,8.2304,8.2304,8.2304,8.2222,8.2221,8.2223,8.2304,8.222,8.2168,8.2168,8.1923,8.1703,8.1572,8.1403,8.1271,8.1139,8.1093,8.1093,8.1093,8.1093,8.1093,8.1093,8.1093,8.1093,8.1093,8.1093,8.1093,8.1093,8.1093,8.1093,8.1093,8.1093,8.1093,8.1093,8.1093,8.1093,8.1093,8.1093,8.1093,8.1093,8.0439,8.0131,4.9219,5.043,5.168,5.7031,5.7617,5.7773,6.1289,6.3359,6.5234,6.7851,7.168,7.4531,7.4531,7.5273,7.6172,7.6992,7.7187,7.7187,7.7187,7.7187,7.7187,7.7187,7.793,7.8437,7.8515,7.9922,8.0898,8.0976,8.1758,8.2265,8.2304,8.2304,8.2304,8.2304,8.2304,8.2304,8.2304,8.2304,8.2304,8.2304,8.2304,8.2304,8.2304,8.2304,8.2304,8.2304,8.2304,8.2304,8.2304,8.2304,8.2304,8.2304,8.2304,8.2304,8.2304,8.2304,8.2304,8.2304,8.2304,8.2304,8.2304,8.2304,8.2304,8.2304,8.2304,8.2304,8.2304,8.2304,8.2304,8.2304,8.2304,8.2304,8.2264,8.2059,8.2039,8.2062,8.2264,8.1992,8.1718,8.1718,8.1391,8.1146,8.1116,8.1139,8.1124,8.1093,8.1093,8.1093,8.1093,8.1093,8.1093,8.1093,8.1093,8.1093,8.1093,8.1093,8.1093,8.1093,8.1093,8.1093,8.1093,8.1093,8.1093,8.1093,8.1093,8.1093,8.1093,8.1093,8.1093,8.1093,8.1054,8.1016,4.75,4.7695,4.8359,5.4648,5.4726,5.4609,5.9687,6.2656,6.4726,6.6211,7.082,7.4258,7.3125,7.5039,7.6836,7.7148,7.7187,7.7187,7.7187,7.7187,7.7422,7.7969,7.832,7.8906,8.0,8.0664,8.1211,8.1797,8.0625,8.0586,8.2226,8.0742,8.0625,8.2265,8.2304,8.2304,8.2304,8.2304,8.2304,8.2304,8.2304,8.2304,8.2304,8.2304,8.2304,8.2304,8.2304,8.2304,8.2304,8.2304,8.2304,8.2304,8.2304,8.2304,8.2304,8.2304,8.2304,8.2304,8.2304,8.2304,8.2304,8.2304,8.2304,8.2304,8.2304,8.2304,8.2304,8.2304,8.2304,8.2265,8.2127,8.2115,8.2059,8.1861,8.1825,8.1837,8.1894,8.1819,8.1688,8.1688,8.1491,8.1311,8.1311,8.1181,8.1093,8.1093,8.1093,8.1093,8.1093,8.1093,8.1093,8.1093,8.1093,8.1093,8.1093,8.1093,8.1093,8.1093,8.1093,8.1093,8.1093,8.1093,8.1093,8.1093,8.1093,8.1093,8.1093,8.1093,8.1093,8.1093,8.1093,8.1093,4.5156,4.5,4.543,5.0898,5.1406,5.1836,5.6719,6.0937,6.4101,6.4961,7.0195,7.4258,7.3086,7.5234,7.7187,7.7187,7.7187,7.7187,7.7187,7.7187,7.7539,7.8398,7.875,7.9453,8.0859,8.125,8.1679,8.2265,8.0742,8.0508,8.2226,8.0703,8.0547,8.2265,8.2304,8.2304,8.2304,8.2304,8.2304,8.2304,8.2304,8.2304,8.2304,8.2304,8.2304,8.2304,8.2304,8.2304,8.2304,8.2304,8.2304,8.2304,8.2304,8.2304,8.2304,8.2304,8.2304,8.2304,8.2304,8.2304,8.2304,8.2304,8.2304,8.2304,8.222,8.2218,8.2176,8.212,8.2113,8.2062,8.1914,8.1855,8.1746,8.1645,8.1543,8.1512,8.1512,8.1553,8.1609,8.1609,8.1425,8.1285,8.1285,8.1196,8.1093,8.1093,8.1093,8.1093,8.1093,8.1093,8.1093,8.1093,8.1093,8.1093,8.1093,8.1093,8.1093,8.1093,8.1093,8.1093,8.1093,8.1093,8.1093,8.1093,8.1093,8.1093,8.1093,8.1093,8.1093,8.1093,8.1093,8.1093,0.0,0.0,0.0,4.5547,4.7539,4.9531,5.2031,5.789,6.3086,6.3984,6.9648,7.4453,7.4492,7.5976,7.7187,7.7187,7.7187,7.7187,7.7187,7.7187,7.7539,7.8437,7.9219,8.0039,8.0937,8.1797,8.2304,8.2304,8.2226,8.2226,8.2304,8.2304,8.2304,8.2304,8.2304,8.2304,8.2304,8.2304,8.2304,8.2304,8.2304,8.2304,8.2304,8.2304,8.2304,8.2304,8.2304,8.2304,8.2304,8.2304,8.2304,8.2304,8.2304,8.2304,8.2304,8.2304,8.2304,8.2304,8.2304,8.2304,8.2265,8.2265,8.2265,8.2263,8.2056,8.1988,8.1962,8.1739,8.1688,8.168,8.168,8.1534,8.1395,8.1395,8.1256,8.1093,8.1093,8.1244,8.1395,8.1395,8.1242,8.1093,8.1093,8.1093,8.1093,8.1093,8.1093,8.1093,8.1093,8.1093,8.1093,8.1093,8.1093,8.1093,8.1093,8.1093,8.1093,8.1093,8.1093,8.1093,8.1093,8.1093,8.1093,8.1093,8.1093,8.1093,8.1093,8.1093,8.1093,8.1093,8.1093,8.1093,4.1484,0.0,0.0,0.0,0.0,0.0,4.9648,5.4805,5.9726,6.1172,6.6523,7.1289,7.25,7.5156,7.7187,7.7187,7.7187,7.7187,7.7187,7.7187,7.7734,7.9219,7.957,8.0273,8.1797,8.2148,8.2304,8.2304,8.0586,8.0351,8.2187,8.2304,8.2304,8.2304,8.2304,8.2304,8.2304,8.2304,8.2304,8.2304,8.2304,8.2304,8.2304,8.2304,8.2304,8.2304,8.2304,8.2304,8.2304,8.2304,8.2304,8.2304,8.2304,8.2304,8.2304,8.2304,8.2219,8.2068,8.2068,8.1984,8.1873,8.1873,8.1873,8.1861,8.1819,8.176,8.1753,8.1742,8.1688,8.1687,8.1504,8.1336,8.1181,8.1181,8.1131,8.1093,8.1093,8.1146,8.1181,8.1181,8.1131,8.1093,8.1093,8.1093,8.1093,8.1093,8.1093,8.1093,8.1093,8.1093,8.1093,8.1093,8.1093,8.1093,8.1093,8.1093,8.1093,8.1093,8.1093,8.1093,8.1093,8.1093,8.1093,8.1093,8.1093,8.1093,8.1093,8.1093,8.1093,8.1093,8.1093,8.1093,0.0,0.0,0.0,0.0,0.0,0.0,4.9062,5.4648,5.9883,6.1211,6.6601,7.1172,7.1406,7.3437,7.5156,7.5508,7.5586,7.5937,7.7031,7.7187,7.7812,7.9492,7.9687,8.039,8.2148,8.2304,8.2304,8.2304,8.0937,8.0742,8.2226,8.2304,8.2304,8.2304,8.2304,8.2304,8.2304,8.2304,8.2304,8.2304,8.2304,8.2304,8.2304,8.2304,8.2304,8.2304,8.2304,8.2264,8.2173,8.2173,8.2221,8.2304,8.2219,8.2173,8.2171,8.2068,8.198,8.1873,8.1873,8.1812,8.1688,8.1688,8.1688,8.1664,8.1609,8.1582,8.1553,8.148,8.1447,8.1403,8.1285,8.1196,8.1093,8.1093,8.1093,8.1093,8.1093,8.1093,8.1093,8.1093,8.1093,8.1093,8.1093,8.1093,8.1093,8.1093,8.1093,8.1093,8.1093,8.1093,8.1093,8.1093,8.1093,8.1093,8.1093,8.1093,8.1093,8.1093,8.1093,8.1093,8.1093,8.1093,8.1093,8.1093,8.1093,8.1093,8.1093,8.1093,8.1093,8.1093,8.1093,8.1093,0.0,0.0,0.0,0.0,0.0,0.0,4.9335,5.5351,6.0742,6.2031,6.7265,7.125,7.0195,7.0703,7.1562,7.2461,7.2656,7.3672,7.6406,7.7031,7.7695,7.8984,7.9453,8.0351,8.1992,8.2226,8.2304,8.2304,8.2304,8.2304,8.2304,8.2304,8.2304,8.2304,8.2304,8.2304,8.2304,8.2304,8.2304,8.2304,8.2304,8.2304,8.2304,8.2265,8.2265,8.2264,8.2223,8.2125,8.1971,8.1971,8.2065,8.222,8.2049,8.1971,8.1962,8.1785,8.1711,8.1687,8.1687,8.1631,8.1615,8.1615,8.1615,8.1609,8.1403,8.1359,8.1336,8.1161,8.1093,8.1093,8.1093,8.1093,8.1093,8.1093,8.1093,8.1093,8.1093,8.1093,8.1093,8.1093,8.1093,8.1093,8.1093,8.1093,8.1093,8.1093,8.1093,8.1093,8.1093,8.1093,8.1093,8.1093,8.1093,8.1093,8.1093,8.1093,8.1093,8.1093,8.1093,8.1093,8.1093,8.1093,8.1093,8.1093,8.1093,8.1093,8.1093,8.1093,8.1093,8.1093,8.1093,8.1093,0.0,0.0,0.0,0.0,0.0,0.0,4.7658,5.0209,5.3344,5.707,5.9492,6.1875,6.4961,6.625,6.7148,6.8008,6.875,7.0312,7.3594,7.5859,7.6797,7.5703,7.8008,8.0117,8.1133,8.1875,8.2304,8.2304,8.2304,8.2304,8.2304,8.2304,8.2304,8.2304,8.2304,8.2304,8.2304,8.2304,8.2304,8.2304,8.2304,8.2304,8.2304,8.2125,8.2059,8.2053,8.1883,8.1773,8.1739,8.1739,8.176,8.1831,8.1753,8.1739,8.1739,8.1695,8.1609,8.1458,8.1458,8.1335,8.1214,8.1214,8.1214,8.12,8.1152,8.1176,8.1161,8.1108,8.1093,8.1093,8.1093,8.1093,8.1093,8.1093,8.1093,8.1093,8.1093,8.1093,8.1093,8.1093,8.1093,8.1093,8.1093,8.1093,8.1093,8.1093,8.1093,8.1093,8.1093,8.1093,8.1093,8.1093,8.1093,8.1093,8.1093,8.1093,8.1093,8.1093,8.1093,8.1093,8.1093,8.1093,8.1093,8.1093,8.1093,8.1093,8.1093,8.1093,8.1093,8.1093,8.1093,8.1093,0.0,0.0,0.0,4.3303,0.0,0.0,0.0,4.9676,5.2464,5.4684,5.6879,5.8755,6.0007,6.1388,6.2609,6.3469,6.4725,6.6211,6.793,7.2265,7.5586,7.6445,7.8047,7.9609,8.0898,8.1406,8.1836,8.2265,8.2304,8.2304,8.2304,8.2304,8.2304,8.2304,8.2304,8.2304,8.2304,8.2304,8.2263,8.2168,8.2168,8.2113,8.1992,8.1889,8.1855,8.185,8.1725,8.1623,8.1543,8.1543,8.1501,8.143,8.1494,8.1543,8.1534,8.1425,8.1349,8.1231,8.1231,8.1181,8.1093,8.1093,8.1093,8.1093,8.1093,8.1093,8.1093,8.1093,8.1093,8.1093,8.1093,8.1093,8.1093,8.1093,8.1093,8.1093,8.1093,8.1093,8.1093,8.1093,8.1093,8.1093,8.1093,8.1093,8.1093,8.1093,8.1093,8.1093,8.1093,8.1093,8.1093,8.1093,8.1093,8.1093,8.1093,8.1093,8.1093,8.1093,8.1093,8.1093,8.1093,8.1093,8.1093,8.1093,8.1093,8.1093,8.1093,8.1093,8.1093,8.1093,8.1093,8.1093,0.0,0.0,0.0,0.0,0.0,4.6279,0.0,0.0,0.0,5.2658,5.4892,5.6498,5.5437,5.6475,5.7646,5.8195,6.0215,6.1673,6.1674,6.7182,7.2301,7.5156,7.625,7.7265,7.8633,7.9687,8.082,8.2146,8.2223,8.2221,8.2176,8.2221,8.2223,8.2223,8.2223,8.2223,8.2223,8.2218,8.2115,8.1958,8.1958,8.1861,8.168,8.164,8.1623,8.1653,8.1609,8.1512,8.1349,8.1349,8.1269,8.1124,8.1285,8.1349,8.1324,8.1176,8.1093,8.1093,8.1093,8.1093,8.1093,8.1093,8.1093,8.1093,8.1093,8.1093,8.1093,8.1093,8.1208,8.1323,8.1323,8.1477,8.1593,8.1593,8.1593,8.1593,8.1593,8.1593,8.1593,8.1593,8.1593,8.1477,8.117,8.1093,8.1093,8.1093,8.1093,8.1093,8.1093,8.1093,8.1093,8.1093,8.1093,8.1093,8.1093,8.1093,8.1093,8.1093,8.1093,8.1093,8.1093,8.1093,8.1093,8.1093,8.1093,8.1093,8.1093,8.1093,8.1093,8.1093,8.1093,8.1093,0.0,0.0,0.0,0.0,4.5585,0.0,4.7068,0.0,4.8093,4.8919,0.0,5.0071,5.1433,0.0,0.0,5.1082,5.4351,5.6966,5.6956,6.0924,6.4056,6.4686,6.8125,7.0547,7.0781,7.4961,7.8862,8.1819,8.2046,8.1967,8.1799,8.1958,8.2046,8.2046,8.2046,8.2046,8.2046,8.1861,8.1778,8.1718,8.1718,8.1703,8.168,8.1504,8.1425,8.1403,8.1269,8.1161,8.1131,8.1131,8.1139,8.1093,8.1139,8.1131,8.1116,8.1108,8.1093,8.1093,8.1093,8.1093,8.1093,8.1093,8.1093,8.1093,8.1093,8.1093,8.1093,8.1093,8.1593,8.217,8.217,8.2747,8.3324,8.3324,8.3324,8.3324,8.3324,8.3324,8.3324,8.3324,8.3324,8.2824,8.1362,8.1093,8.1093,8.1093,8.1093,8.1093,8.1093,8.1093,8.1093,8.1093,8.1093,8.1093,8.1093,8.1093,8.1093,8.1093,8.1093,8.1093,8.1093,8.1093,8.1093,8.1093,8.1093,8.1093,8.1093,8.1093,8.1093,8.1093,8.1093,8.1093,0.0,0.0,0.0,0.0,0.0,0.0,5.064,0.0,4.7804,0.0,0.0,0.0,0.0,0.0,0.0,0.0,5.2819,5.485,5.5371,5.7001,5.9844,6.4421,6.6541,6.8841,7.187,7.3247,7.5534,7.9322,7.9166,7.9058,7.9484,8.0987,8.1837,8.1837,8.1837,8.1837,8.1837,8.1725,8.1662,8.1514,8.1514,8.1469,8.1361,8.1258,8.1228,8.1214,8.1131,8.1093,8.1093,8.1093,8.1093,8.1093,8.1093,8.1093,8.1093,8.1093,8.1093,8.1093,8.1093,8.1093,8.117,8.1631,8.2131,8.2554,8.2554,8.2554,8.2554,8.2554,8.2785,8.3054,8.3054,8.3324,8.3593,8.3593,8.3593,8.3593,8.3593,8.3593,8.3593,8.3593,8.3593,8.3362,8.267,8.2131,8.1631,8.117,8.1093,8.1093,8.1093,8.1093,8.1093,8.1093,8.1093,8.1093,8.1093,8.1093,8.1093,8.1093,8.1093,8.1093,8.1093,8.1093,8.1093,8.1093,8.1093,8.1093,8.1093,8.1093,8.1093,8.1093,8.1093,8.1093,5.6934,0.0,0.0,0.0,0.0,0.0,0.0,0.0,0.0,0.0,0.0,0.0,0.0,0.0,0.0,0.0,0.0,5.3469,5.3398,5.3974,5.6705,6.2886,6.4649,6.6902,7.0907,7.1264,7.2562,7.5806,7.6342,7.6855,7.767,8.0201,8.1627,8.1627,8.1627,8.1627,8.1627,8.1563,8.1469,8.1311,8.1311,8.1256,8.1093,8.1093,8.1093,8.1093,8.1093,8.1093,8.1093,8.1093,8.1093,8.1131,8.1323,8.1439,8.14,8.117,8.1246,8.1439,8.1439,8.1593,8.1862,8.2477,8.3093,8.3593,8.3593,8.3593,8.3593,8.3593,8.3747,8.3939,8.3939,8.4132,8.4286,8.4286,8.4286,8.4286,8.4286,8.4286,8.4286,8.4286,8.4286,8.4209,8.3978,8.3208,8.2439,8.1862,8.1785,8.1785,8.1785,8.1785,8.1785,8.1785,8.1554,8.1439,8.1439,8.1246,8.1093,8.1093,8.1093,8.1093,8.1093,8.1093,8.1093,8.1093,8.1093,8.1093,8.1093,8.1093,8.1093,8.1093,8.1093,8.1093,0.0,0.0,0.0,5.6665,0.0,0.0,0.0,0.0,5.0635,0.0,0.0,0.0,0.0,0.0,0.0,0.0,0.0,0.0,0.0,5.1693,5.4078,5.6281,6.0149,6.3034,6.4104,6.7897,7.0572,7.1349,7.4449,7.663,7.7266,7.9906,8.143,8.143,8.143,8.143,8.143,8.1214,8.1124,8.1108,8.1108,8.1108,8.1093,8.1093,8.1093,8.1093,8.1093,8.1093,8.1093,8.1093,8.1093,8.117,8.1939,8.2247,8.217,8.14,8.1593,8.2247,8.2247,8.2824,8.3516,8.3555,8.3555,8.3593,8.3593,8.3593,8.3593,8.3593,8.4209,8.4863,8.4863,8.544,8.6017,8.6017,8.6017,8.6017,8.6017,8.6017,8.6017,8.6017,8.6017,8.5786,8.4978,8.4132,8.3555,8.3516,8.3516,8.3516,8.3516,8.3516,8.3516,8.3516,8.2747,8.2247,8.2247,8.1554,8.1093,8.1093,8.1093,8.1093,8.1093,8.1093,8.1093,8.1093,8.1093,8.1093,8.1093,8.1093,8.1093,8.1093,8.1093,8.1093,6.6667,6.7128,6.6628,6.4628,6.2627,0.0,0.0,0.0,0.0,0.0,0.0,0.0,0.0,0.0,0.0,0.0,0.0,0.0,0.0,5.2279,5.3465,5.4143,5.6441,5.9224,6.2385,6.2965,6.4616,6.8224,6.9562,7.0812,7.222,7.6335,7.8679,7.8679,8.0337,8.1224,8.1224,8.1131,8.1093,8.1093,8.1093,8.1093,8.1093,8.1093,8.1093,8.1093,8.1093,8.1093,8.1131,8.167,8.19,8.1977,8.2824,8.317,8.3131,8.2862,8.2939,8.317,8.317,8.3708,8.4478,8.4478,8.4824,8.5247,8.5247,8.5247,8.5247,8.5247,8.5478,8.5709,8.5709,8.5901,8.6094,8.6094,8.6094,8.6094,8.6094,8.6094,8.6094,8.6094,8.6094,8.6017,8.5747,8.544,8.4863,8.3747,8.3593,8.3593,8.3593,8.3593,8.3593,8.3593,8.3324,8.317,8.317,8.2901,8.2516,8.1939,8.19,8.167,8.1131,8.1093,8.1093,8.1093,8.1093,8.1093,8.1093,8.1093,8.1093,8.1093,8.1093,8.1093,7.236,7.2822,7.2399,7.0667,6.8538,6.6538,6.5013,0.0,5.805,0.0,0.0,0.0,0.0,0.0,0.0,0.0,0.0,0.0,0.0,5.1972,5.2433,5.2702,5.528,5.7665,5.9254,6.0281,6.1858,6.4205,6.609,6.7744,6.9167,7.4361,7.7284,7.7284,7.9785,8.1093,8.1093,8.1093,8.1093,8.1093,8.1093,8.1093,8.1093,8.1093,8.1093,8.1093,8.1093,8.1246,8.1554,8.2093,8.2477,8.2862,8.3708,8.4055,8.4016,8.3708,8.3785,8.4093,8.4401,8.4863,8.5324,8.5324,8.567,8.6094,8.6094,8.6094,8.6247,8.6863,8.6594,8.6247,8.6863,8.6555,8.6094,8.6094,8.6094,8.6094,8.6094,8.6094,8.6094,8.6094,8.6094,8.6094,8.6094,8.6094,8.5747,8.4632,8.4478,8.4478,8.4478,8.4478,8.4478,8.4478,8.4209,8.3939,8.3632,8.3593,8.3362,8.2785,8.2747,8.2516,8.2016,8.1708,8.1823,8.2439,8.1554,8.14,8.1977,8.14,8.1093,8.1093,8.1093,8.1093]}]]